[[{"header":{"parameterUnit":"m.s-1","parameterCategory":1,"la1":30.6,"la2":29.2853,"lo1":-89.7004,"lo2":-87.6739,"dy":0.0162,"dx":0.0183,"nx":112,"ny":82,"refTime":"2024-05-23T06:00:00:Z","depth":0,"parameterNumber":2,"parameterNumberName":"U-component_of_WINDS"},"data":[0.0,0.0,0.0,0.0,0.0,0.0,0.0,0.0,0.0,0.0,0.0,0.0,0.0,0.0,0.0,0.0,0.0,0.0,0.0,0.0,0.0,0.0,0.0,0.0,0.0,0.0,0.0,0.0,0.0,0.0,0.0,0.0,0.0,0.0,0.0,0.0,0.0,0.0,0.0,0.0,0.0,0.0,0.0,0.0,0.0,0.0,0.0,0.0,0.0,0.0,0.0,0.0,0.0,0.0,0.0,0.0,0.0,0.0,0.0,0.0,0.0,0.0,0.0,0.0,0.0,0.0,0.0,0.0,0.0,0.0,0.0,0.0,0.0,0.0,0.0,0.0,0.0,0.0,0.0,0.0,0.0,0.0,0.0,0.0,0.0,0.0,0.0,0.0,0.0,0.0,-4.4631,-4.4732,-4.543,-4.5899,-4.5899,-4.5909,-4.5899,-4.5899,0.0,0.0,0.0,0.0,0.0,0.0,0.0,0.0,0.0,0.0,0.0,0.0,0.0,0.0,0.0,0.0,0.0,0.0,0.0,0.0,0.0,0.0,0.0,0.0,0.0,0.0,0.0,0.0,0.0,0.0,0.0,0.0,0.0,0.0,0.0,0.0,0.0,0.0,0.0,0.0,0.0,0.0,0.0,0.0,0.0,0.0,0.0,0.0,0.0,0.0,0.0,0.0,0.0,0.0,0.0,0.0,0.0,0.0,0.0,0.0,0.0,0.0,0.0,0.0,0.0,0.0,0.0,0.0,0.0,0.0,0.0,0.0,0.0,0.0,0.0,0.0,0.0,0.0,0.0,0.0,0.0,0.0,0.0,0.0,0.0,0.0,0.0,0.0,0.0,0.0,0.0,0.0,0.0,0.0,0.0,0.0,0.0,0.0,0.0,0.0,0.0,0.0,0.0,0.0,-4.4806,-4.54,-4.5725,-4.5899,-4.5899,-4.5909,-4.5899,-4.5899,0.0,0.0,0.0,0.0,0.0,0.0,0.0,0.0,0.0,0.0,0.0,0.0,0.0,0.0,0.0,0.0,0.0,0.0,0.0,0.0,0.0,0.0,0.0,0.0,0.0,0.0,0.0,0.0,0.0,0.0,0.0,0.0,0.0,0.0,0.0,0.0,0.0,0.0,0.0,0.0,0.0,0.0,0.0,0.0,0.0,0.0,0.0,0.0,0.0,0.0,0.0,0.0,0.0,0.0,0.0,0.0,0.0,0.0,0.0,0.0,0.0,0.0,0.0,0.0,0.0,0.0,0.0,0.0,0.0,0.0,0.0,0.0,0.0,0.0,0.0,0.0,0.0,0.0,0.0,0.0,0.0,0.0,0.0,0.0,0.0,0.0,0.0,0.0,0.0,0.0,0.0,0.0,0.0,0.0,0.0,0.0,0.0,0.0,0.0,0.0,0.0,0.0,0.0,-4.4872,-4.5063,-4.5559,-4.5769,-4.5899,-4.5899,-4.5976,-4.5981,-4.5903,-4.4091,0.0,0.0,0.0,0.0,0.0,0.0,0.0,0.0,0.0,0.0,0.0,0.0,0.0,0.0,0.0,0.0,0.0,0.0,0.0,0.0,0.0,0.0,0.0,0.0,0.0,0.0,0.0,0.0,0.0,0.0,0.0,0.0,0.0,0.0,0.0,0.0,0.0,0.0,0.0,0.0,0.0,0.0,0.0,0.0,0.0,0.0,0.0,0.0,0.0,0.0,0.0,0.0,0.0,0.0,0.0,0.0,0.0,0.0,0.0,0.0,0.0,0.0,0.0,0.0,0.0,0.0,0.0,0.0,0.0,0.0,0.0,0.0,0.0,0.0,0.0,0.0,0.0,0.0,0.0,0.0,0.0,0.0,0.0,0.0,0.0,0.0,0.0,0.0,0.0,0.0,0.0,0.0,0.0,0.0,0.0,0.0,0.0,0.0,0.0,0.0,0.0,0.0,-4.5096,-4.5222,-4.5568,-4.5769,-4.5899,-4.5899,-4.5839,-4.5749,-4.5616,-4.3647,0.0,0.0,0.0,0.0,0.0,0.0,0.0,0.0,0.0,0.0,0.0,0.0,0.0,0.0,0.0,0.0,0.0,0.0,0.0,0.0,0.0,0.0,0.0,0.0,0.0,0.0,0.0,0.0,0.0,0.0,0.0,0.0,0.0,0.0,0.0,0.0,0.0,0.0,0.0,0.0,0.0,0.0,0.0,0.0,0.0,0.0,0.0,0.0,0.0,0.0,0.0,0.0,0.0,0.0,0.0,0.0,0.0,0.0,0.0,0.0,0.0,0.0,0.0,0.0,0.0,0.0,0.0,0.0,0.0,0.0,0.0,0.0,0.0,0.0,0.0,0.0,0.0,0.0,0.0,0.0,0.0,0.0,0.0,0.0,0.0,0.0,0.0,0.0,0.0,0.0,0.0,0.0,0.0,0.0,0.0,0.0,0.0,0.0,0.0,0.0,0.0,0.0,-4.5096,-4.5222,-4.5568,-4.5769,-4.5899,-4.5899,-4.5272,-4.4852,-4.4787,-4.2783,0.0,0.0,0.0,0.0,0.0,0.0,0.0,0.0,0.0,0.0,0.0,0.0,0.0,0.0,0.0,0.0,0.0,0.0,0.0,0.0,0.0,0.0,0.0,0.0,0.0,0.0,0.0,0.0,0.0,0.0,0.0,0.0,0.0,0.0,0.0,0.0,0.0,0.0,0.0,0.0,0.0,0.0,0.0,0.0,0.0,0.0,0.0,0.0,0.0,0.0,0.0,0.0,0.0,0.0,0.0,0.0,0.0,0.0,0.0,0.0,0.0,0.0,0.0,0.0,0.0,0.0,0.0,0.0,0.0,0.0,0.0,0.0,0.0,0.0,0.0,0.0,0.0,0.0,0.0,0.0,0.0,0.0,0.0,0.0,0.0,0.0,0.0,0.0,0.0,0.0,0.0,0.0,0.0,0.0,0.0,0.0,0.0,0.0,0.0,0.0,0.0,0.0,-4.541,-4.5448,-4.5586,-4.5769,-4.5899,-4.5899,-4.5807,-4.5439,-4.4733,0.0,0.0,0.0,0.0,0.0,0.0,0.0,0.0,0.0,0.0,0.0,0.0,0.0,0.0,0.0,0.0,0.0,0.0,0.0,0.0,0.0,0.0,0.0,0.0,0.0,0.0,0.0,0.0,0.0,0.0,0.0,0.0,0.0,0.0,0.0,0.0,0.0,0.0,0.0,0.0,0.0,0.0,0.0,0.0,0.0,0.0,0.0,0.0,0.0,0.0,0.0,0.0,0.0,0.0,0.0,0.0,0.0,0.0,0.0,0.0,0.0,0.0,0.0,0.0,0.0,0.0,0.0,0.0,0.0,0.0,0.0,0.0,0.0,0.0,0.0,0.0,0.0,0.0,0.0,0.0,0.0,0.0,0.0,0.0,0.0,0.0,0.0,0.0,0.0,0.0,0.0,0.0,0.0,0.0,0.0,0.0,0.0,0.0,0.0,0.0,0.0,0.0,-4.5175,-4.5456,-4.5594,-4.5594,-4.5769,-4.5899,-4.5899,-4.5892,-4.546,-4.4429,0.0,0.0,0.0,0.0,0.0,0.0,0.0,0.0,0.0,0.0,0.0,0.0,0.0,0.0,0.0,0.0,0.0,0.0,0.0,0.0,0.0,0.0,0.0,0.0,0.0,0.0,0.0,0.0,0.0,0.0,0.0,0.0,0.0,0.0,0.0,0.0,0.0,0.0,0.0,0.0,0.0,0.0,0.0,0.0,0.0,0.0,0.0,0.0,0.0,0.0,0.0,0.0,0.0,0.0,0.0,0.0,0.0,0.0,0.0,0.0,0.0,0.0,0.0,0.0,0.0,0.0,0.0,0.0,0.0,0.0,0.0,0.0,0.0,0.0,0.0,0.0,0.0,0.0,0.0,0.0,0.0,0.0,0.0,0.0,0.0,0.0,0.0,0.0,0.0,0.0,0.0,0.0,0.0,0.0,0.0,0.0,0.0,0.0,0.0,0.0,0.0,0.0,-4.4402,-4.514,-4.5594,-4.5594,-4.5769,-4.5899,-4.5899,-4.5345,-4.4587,0.0,0.0,0.0,0.0,0.0,0.0,0.0,0.0,0.0,0.0,0.0,0.0,0.0,0.0,0.0,0.0,0.0,0.0,0.0,0.0,0.0,0.0,0.0,0.0,0.0,0.0,0.0,0.0,0.0,0.0,0.0,0.0,0.0,0.0,0.0,0.0,0.0,0.0,0.0,0.0,0.0,0.0,0.0,0.0,0.0,0.0,0.0,0.0,0.0,0.0,0.0,0.0,0.0,0.0,0.0,0.0,0.0,0.0,0.0,0.0,0.0,0.0,0.0,0.0,0.0,0.0,0.0,0.0,0.0,0.0,0.0,0.0,0.0,0.0,0.0,0.0,0.0,0.0,0.0,0.0,0.0,0.0,0.0,0.0,0.0,0.0,0.0,0.0,0.0,0.0,0.0,0.0,0.0,0.0,0.0,0.0,0.0,0.0,0.0,0.0,0.0,0.0,0.0,-4.4324,-4.514,-4.5594,-4.5594,-4.5742,-4.5859,-4.5894,-4.5267,-4.4236,-4.2779,0.0,0.0,0.0,0.0,0.0,0.0,0.0,0.0,0.0,0.0,0.0,0.0,0.0,0.0,0.0,0.0,0.0,0.0,0.0,0.0,0.0,0.0,0.0,0.0,0.0,0.0,0.0,0.0,0.0,0.0,0.0,0.0,0.0,0.0,0.0,0.0,0.0,0.0,0.0,0.0,0.0,0.0,0.0,0.0,0.0,0.0,0.0,0.0,0.0,0.0,0.0,0.0,0.0,0.0,0.0,0.0,0.0,0.0,0.0,0.0,0.0,0.0,0.0,0.0,0.0,0.0,0.0,0.0,0.0,0.0,0.0,0.0,0.0,0.0,0.0,0.0,0.0,0.0,0.0,0.0,0.0,0.0,0.0,0.0,0.0,0.0,0.0,0.0,0.0,0.0,0.0,0.0,0.0,0.0,0.0,0.0,0.0,0.0,0.0,0.0,0.0,0.0,-4.3933,-4.4769,-4.5348,-4.5684,-4.5836,-4.5797,-4.5487,-4.5094,-4.402,-4.198,0.0,0.0,0.0,0.0,0.0,0.0,0.0,0.0,0.0,0.0,0.0,0.0,0.0,0.0,0.0,0.0,0.0,0.0,0.0,0.0,0.0,0.0,0.0,0.0,0.0,0.0,0.0,0.0,0.0,0.0,0.0,0.0,0.0,0.0,0.0,0.0,0.0,0.0,0.0,0.0,0.0,0.0,0.0,0.0,0.0,0.0,0.0,0.0,0.0,0.0,0.0,0.0,0.0,0.0,0.0,0.0,0.0,0.0,0.0,0.0,0.0,0.0,0.0,0.0,0.0,0.0,0.0,0.0,0.0,0.0,0.0,0.0,0.0,0.0,0.0,0.0,0.0,0.0,0.0,0.0,0.0,0.0,0.0,0.0,0.0,0.0,0.0,0.0,0.0,0.0,0.0,0.0,0.0,0.0,0.0,0.0,0.0,0.0,0.0,0.0,0.0,0.0,-4.3255,-4.4124,-4.4859,-4.5587,-4.5787,-4.5533,-4.4733,-4.4717,-4.3691,-4.121,0.0,0.0,0.0,0.0,0.0,0.0,0.0,0.0,0.0,0.0,0.0,0.0,0.0,0.0,0.0,0.0,0.0,0.0,0.0,0.0,0.0,0.0,0.0,0.0,0.0,0.0,0.0,0.0,0.0,0.0,0.0,0.0,0.0,0.0,0.0,0.0,0.0,0.0,0.0,0.0,0.0,0.0,0.0,0.0,0.0,0.0,0.0,0.0,0.0,0.0,0.0,0.0,0.0,0.0,0.0,0.0,0.0,0.0,0.0,0.0,-4.6268,-4.62,0.0,0.0,0.0,0.0,0.0,0.0,0.0,0.0,0.0,0.0,0.0,0.0,0.0,0.0,0.0,0.0,0.0,0.0,0.0,0.0,0.0,0.0,0.0,0.0,0.0,0.0,0.0,0.0,0.0,0.0,0.0,0.0,0.0,0.0,0.0,0.0,0.0,0.0,0.0,0.0,-4.2356,-4.3224,-4.3741,-4.3921,-4.3961,-4.3899,-4.3712,-4.3183,-4.2062,-4.0132,-3.9352,0.0,0.0,0.0,0.0,0.0,0.0,0.0,0.0,0.0,0.0,0.0,0.0,0.0,0.0,0.0,0.0,0.0,0.0,0.0,0.0,0.0,0.0,0.0,0.0,0.0,0.0,0.0,0.0,0.0,0.0,0.0,0.0,0.0,0.0,0.0,0.0,0.0,0.0,0.0,0.0,0.0,0.0,0.0,0.0,0.0,0.0,0.0,0.0,0.0,0.0,0.0,0.0,0.0,0.0,0.0,0.0,0.0,0.0,0.0,-4.6308,-4.6268,0.0,0.0,0.0,0.0,0.0,0.0,0.0,0.0,0.0,0.0,0.0,0.0,0.0,0.0,0.0,0.0,0.0,0.0,0.0,0.0,0.0,0.0,0.0,0.0,0.0,0.0,0.0,0.0,0.0,0.0,0.0,0.0,0.0,0.0,0.0,0.0,0.0,0.0,0.0,0.0,-4.2076,-4.2684,-4.3063,-4.3458,-4.3494,-4.3302,-4.2813,-4.2479,-4.1384,-3.9217,-3.8711,0.0,0.0,0.0,0.0,0.0,0.0,0.0,0.0,0.0,0.0,0.0,0.0,0.0,0.0,0.0,0.0,0.0,0.0,0.0,0.0,0.0,0.0,0.0,0.0,0.0,0.0,0.0,0.0,0.0,0.0,0.0,0.0,0.0,0.0,0.0,0.0,0.0,0.0,0.0,0.0,0.0,0.0,0.0,0.0,0.0,0.0,0.0,0.0,0.0,0.0,0.0,0.0,0.0,-4.7478,-4.7523,-4.7394,-4.7534,-4.7129,-4.6308,-4.6308,-4.6308,-4.6289,-4.6175,0.0,0.0,0.0,0.0,0.0,0.0,0.0,0.0,0.0,0.0,0.0,0.0,0.0,0.0,0.0,0.0,0.0,0.0,0.0,0.0,0.0,0.0,-4.4141,-4.4141,-4.4707,-4.5018,-4.424,0.0,0.0,0.0,0.0,0.0,0.0,0.0,0.0,0.0,0.0,0.0,-4.1894,-4.2187,-4.2459,-4.3103,-4.315,-4.2815,-4.1987,-4.1866,-4.0859,-3.8551,-3.8373,-3.7634,0.0,0.0,0.0,0.0,0.0,0.0,0.0,0.0,0.0,0.0,0.0,0.0,0.0,0.0,0.0,0.0,0.0,0.0,0.0,0.0,0.0,0.0,0.0,0.0,0.0,0.0,0.0,0.0,0.0,0.0,0.0,0.0,-4.4285,-4.5036,0.0,0.0,0.0,0.0,0.0,0.0,0.0,0.0,0.0,0.0,0.0,0.0,0.0,-4.6827,-4.674,-4.744,-4.7907,-4.8127,-4.8287,-4.8015,-4.7401,-4.7535,-4.7129,-4.6308,-4.6308,0.0,-4.6308,-4.6289,0.0,0.0,0.0,0.0,0.0,0.0,0.0,0.0,0.0,0.0,0.0,0.0,0.0,0.0,0.0,0.0,0.0,0.0,0.0,0.0,0.0,0.0,-4.5957,-4.5957,-4.6055,-4.6094,-4.5976,-4.4714,-4.3303,-4.2303,-4.146,-4.0555,0.0,0.0,0.0,0.0,0.0,0.0,-4.1211,-4.1367,-4.1406,-4.1503,-4.1409,-4.1287,-4.1161,-4.0463,-3.9568,-3.8473,-3.7826,-3.7012,-3.6035,-3.5203,0.0,0.0,0.0,0.0,0.0,0.0,0.0,0.0,0.0,0.0,0.0,0.0,0.0,0.0,0.0,0.0,0.0,0.0,0.0,0.0,0.0,0.0,0.0,0.0,0.0,0.0,0.0,0.0,0.0,-4.4377,-4.4621,-4.4511,-4.5067,-4.5444,0.0,0.0,0.0,0.0,0.0,0.0,0.0,0.0,0.0,-4.699,-4.7375,-4.7567,-4.7567,-4.7932,-4.8391,-4.89,-4.8561,-4.823,-4.7899,-4.7545,-4.6936,-4.6198,-4.6198,-4.6225,-4.6308,-4.6308,-4.6308,-4.6289,0.0,0.0,0.0,0.0,-4.6013,-4.5723,-4.5723,-4.5488,-4.5078,-4.4566,0.0,0.0,0.0,0.0,0.0,0.0,0.0,-4.3906,-4.4766,-4.5273,-4.5683,-4.6172,-4.6308,-4.6308,-4.6308,-4.5682,-4.4856,-4.3998,-4.3482,-4.2632,-4.0816,-4.0202,0.0,0.0,0.0,-4.0215,-4.1094,-4.1191,-4.1171,-4.1102,-4.1048,-4.0786,-4.0256,-3.9901,-3.9119,-3.7769,-3.7436,-3.6914,-3.6035,-3.5604,-3.5555,0.0,0.0,0.0,0.0,0.0,0.0,0.0,0.0,0.0,0.0,0.0,0.0,0.0,0.0,0.0,0.0,0.0,0.0,0.0,0.0,0.0,0.0,0.0,0.0,0.0,0.0,0.0,0.0,-4.4412,-4.4822,-4.4094,-4.5169,-4.5779,0.0,0.0,0.0,0.0,0.0,0.0,-4.7173,-4.7212,-4.749,-4.8086,-4.8317,-4.8432,-4.8432,-4.8644,-4.9104,-4.9765,-4.9003,-4.8535,-4.8315,-4.7553,-4.6785,-4.6045,-4.6082,-4.617,-4.6247,-4.6289,-4.6308,-4.6308,-4.6308,-4.6308,-4.6308,-4.6308,-4.6308,-4.6308,-4.6308,-4.6308,-4.6191,-4.5547,-4.4746,-4.4023,-4.4023,0.0,0.0,0.0,0.0,-4.4238,-4.5117,-4.5332,-4.5508,-4.6152,-4.6308,-4.6308,-4.6308,-4.6308,-4.6113,-4.5469,-4.5156,-4.4336,-4.2207,-4.1641,0.0,-4.0351,-4.0234,-4.0469,-4.1113,-4.1191,-4.1151,-4.1055,-4.1023,-4.073,-4.007,-3.9611,-3.8832,-3.7554,-3.7165,-3.668,-3.6035,-3.5996,-3.5974,-3.5938,0.0,0.0,0.0,0.0,0.0,0.0,0.0,0.0,0.0,0.0,0.0,0.0,0.0,0.0,0.0,0.0,0.0,0.0,0.0,0.0,0.0,0.0,0.0,0.0,0.0,0.0,0.0,0.0,0.0,-4.4048,-4.5398,0.0,0.0,0.0,0.0,-4.7388,-4.7392,-4.7584,-4.801,-4.8048,-4.8067,-4.8105,-4.8894,-4.9336,-4.9336,-5.0173,-5.065,-5.0816,-4.9959,-4.9181,-4.8462,-4.7596,-4.6725,-4.5916,-4.6042,-4.6091,-4.6117,-4.6247,-4.6308,-4.6308,-4.6308,-4.6308,-4.6308,-4.6308,-4.6308,-4.6308,-4.6308,-4.6308,-4.6289,-4.625,-4.5644,-4.4922,-4.4922,-4.4355,0.0,0.0,-4.4922,-4.5137,-4.6016,-4.623,-4.625,-4.6289,-4.6308,-4.6308,-4.6308,-4.6308,-4.6289,-4.623,-4.5566,-4.4707,-4.373,0.0,-4.207,-4.1269,-4.1133,-4.1152,-4.1191,-4.1191,-4.1191,-4.1191,-4.1078,-4.1033,-4.1112,-3.9494,-3.8474,-3.8515,-3.6973,-3.6055,-3.5996,-3.5996,-3.5996,-3.5996,-3.4266,0.0,0.0,0.0,0.0,0.0,0.0,0.0,0.0,0.0,0.0,0.0,0.0,0.0,0.0,0.0,0.0,0.0,0.0,0.0,0.0,0.0,0.0,0.0,0.0,0.0,0.0,0.0,0.0,-4.5249,-4.6189,0.0,-4.6243,-4.6442,-4.6859,-4.7467,-4.7502,-4.7917,-4.8904,-4.8933,-4.9183,-4.976,-5.0067,-5.025,-5.025,-5.0539,-5.0712,-5.0764,-4.9896,-4.9043,-4.8214,-4.7383,-4.6577,-4.5836,-4.5931,-4.6027,-4.6113,-4.6247,-4.6308,-4.6308,-4.6308,-4.6308,-4.6308,-4.6308,-4.6308,-4.6308,-4.6308,-4.6308,-4.6308,-4.6308,-4.6094,-4.584,-4.584,-4.5625,-4.5449,-4.5742,-4.584,-4.5918,-4.6211,-4.6308,-4.6308,-4.6308,-4.6308,-4.6308,-4.6308,-4.6308,-4.6308,-4.6308,-4.6055,-4.5566,-4.4687,-4.3808,-4.2949,-4.2109,-4.1523,-4.1191,-4.1191,-4.1191,-4.1191,-4.1191,-4.115,-4.0915,-4.041,-3.9236,-3.8317,-3.7793,-3.6641,-3.5996,-3.5996,-3.5996,-3.5996,-3.5996,-3.4823,-3.3922,0.0,0.0,0.0,0.0,0.0,0.0,0.0,0.0,0.0,0.0,0.0,0.0,0.0,0.0,0.0,0.0,0.0,0.0,0.0,0.0,0.0,0.0,0.0,0.0,0.0,-4.5645,-4.6214,-4.592,-4.6856,-4.7279,-4.6678,-4.6879,-4.729,-4.794,-4.8099,-4.8596,-4.9571,-4.9749,-5.0087,-5.0673,-5.0712,-5.0712,-5.0712,-5.0712,-5.0712,-5.0693,-4.9817,-4.9106,-4.8509,-4.7413,-4.6626,-4.6158,-4.5966,-4.5927,-4.6042,-4.6175,-4.6268,-4.6308,-4.6308,-4.6308,-4.6308,-4.6308,-4.6308,-4.6308,-4.6308,-4.6308,-4.6308,-4.6308,-4.6308,-4.6308,-4.6308,-4.6308,-4.6308,-4.6308,-4.6308,-4.6308,-4.6308,-4.6308,-4.623,-4.5937,-4.5859,-4.5781,-4.5488,-4.543,-4.543,-4.543,-4.5898,-4.5937,-4.4766,-4.4082,-4.3301,-4.2168,-4.1543,-4.1191,-4.1191,-4.1191,-4.1191,-4.1191,-4.1191,-4.0976,-4.0391,-3.9277,-3.8359,-3.7773,-3.6641,-3.5996,-3.5996,-3.5723,-3.5703,-3.5996,-3.5115,-3.4231,-3.3323,0.0,0.0,0.0,0.0,0.0,0.0,0.0,0.0,0.0,0.0,0.0,0.0,0.0,0.0,0.0,0.0,0.0,0.0,0.0,0.0,0.0,0.0,0.0,-4.4764,-4.6122,-4.6819,-4.6067,-4.7352,-4.7975,-4.7204,-4.7828,-4.8477,-4.8863,-4.9265,-4.9645,-5.008,-5.0472,-5.0683,-5.0712,-5.0712,-5.0712,-5.0712,-5.0712,-5.0712,-5.0693,-4.9837,-4.9413,-4.9298,-4.7682,-4.6904,-4.6826,-4.61,-4.583,-4.5903,-4.6039,-4.6174,-4.6289,-4.6308,-4.6308,-4.6308,-4.6308,-4.6308,-4.6308,-4.6308,-4.6308,-4.6308,-4.6308,-4.6308,-4.6308,-4.6308,-4.6308,-4.6308,-4.6308,-4.6308,-4.6308,-4.6308,-4.6289,-4.6055,-4.5195,-4.498,-4.4726,-4.3887,-4.3691,-4.3691,-4.3691,-4.5058,-4.5683,-4.3984,-4.3672,-4.3105,-4.1484,-4.1211,0.0,-4.1191,-4.1191,-4.1191,-4.1191,-4.1191,-4.1191,-4.1191,-3.9609,-3.8594,-3.8594,-3.6953,-3.5996,-3.5996,-3.5195,-3.5137,-3.5976,-3.508,-3.4153,-3.3235,0.0,0.0,0.0,0.0,0.0,0.0,0.0,0.0,0.0,0.0,0.0,0.0,0.0,0.0,0.0,0.0,0.0,0.0,0.0,0.0,0.0,-4.5186,-4.5773,-4.636,-4.6819,-4.7223,-4.7609,-4.8031,-4.8214,-4.7975,-4.8177,-4.8477,-4.8863,-4.8994,-4.9371,-5.0068,-5.0195,-5.0399,-5.0683,-5.0712,-5.0712,-5.0712,-5.0712,-5.0712,-5.0712,-5.0462,-4.9683,-4.8432,-4.799,-4.7105,-4.595,-4.5856,-4.5809,-4.5825,-4.5918,-4.6036,-4.6152,-4.6268,-4.6308,-4.6308,-4.6308,-4.6308,-4.6308,-4.6308,-4.6308,-4.6308,-4.6308,-4.6308,-4.6308,-4.6308,-4.6308,-4.6308,-4.6308,-4.6308,-4.6308,-4.6308,-4.582,-4.5293,-4.5058,-4.4512,-4.3984,-4.375,-4.3691,-4.3691,-4.3691,-4.4082,-4.4258,-4.3789,-4.3183,-4.2598,-4.2148,-4.1562,-4.1191,-4.1191,-4.1191,-4.1191,-4.1191,-4.1191,-4.1191,-4.1191,-3.9609,-3.8594,-3.8594,-3.6953,-3.5996,-3.5996,-3.5762,-3.5721,-3.5919,-3.501,-3.4396,0.0,0.0,0.0,0.0,0.0,0.0,0.0,0.0,0.0,0.0,0.0,0.0,0.0,0.0,0.0,0.0,0.0,0.0,0.0,0.0,0.0,0.0,-4.6085,-4.6672,-4.748,-4.759,-4.7773,-4.8251,-4.8306,-4.8306,-4.8306,-4.8306,-4.8402,-4.8621,-4.8795,-4.9187,-4.9813,-5.0019,-5.0283,-5.0683,-5.0712,-5.0712,-5.0712,-5.0712,-5.0712,-5.0712,-5.0327,-4.9625,-4.8625,-4.7932,-4.7067,-4.6133,-4.5843,-4.5747,-4.5809,-4.5842,-4.5914,-4.6033,0.0,0.0,0.0,0.0,-4.6308,-4.6308,-4.6308,-4.6308,-4.6308,-4.6308,-4.6308,-4.6308,-4.6308,-4.6308,-4.6308,-4.6308,-4.6035,-4.5762,-4.5762,-4.5117,-4.4355,-4.4004,-4.3516,-4.3066,-4.2734,-4.2656,-4.2656,-4.2656,-4.2656,0.0,-4.2656,-4.2519,-4.2285,-4.1953,-4.1504,-4.1191,-4.1191,-4.1191,-4.1191,-4.1191,-4.1191,-4.1191,-4.1191,-3.9548,0.0,0.0,0.0,-3.5719,-3.5386,-3.5699,0.0,0.0,0.0,0.0,0.0,0.0,0.0,0.0,-3.6479,-3.7681,0.0,0.0,0.0,0.0,0.0,0.0,0.0,0.0,0.0,0.0,0.0,0.0,0.0,0.0,0.0,0.0,-4.7094,-4.7369,-4.8196,-4.8306,-4.8306,-4.8306,-4.8306,-4.8306,-4.8306,-4.8306,-4.8306,-4.8306,-4.8621,-4.9046,-4.9475,-4.9827,0.0,0.0,0.0,-5.0712,-5.0712,-5.0712,-5.0712,-5.0693,-4.9817,-4.9356,-4.9202,-4.7625,-4.6846,-4.6721,-4.5932,-4.5665,-4.5789,-4.5789,-4.5825,-4.5912,-4.6045,-4.6177,-4.6308,-4.6308,-4.6308,-4.6308,-4.6308,0.0,0.0,-4.6269,-4.623,-4.6172,-4.6269,-4.623,-4.6132,-4.6152,-4.5527,-4.4843,-4.4844,-4.4219,-4.3359,-4.2578,-4.2324,-4.207,-4.1348,-4.1191,-4.1191,-4.1191,-4.1191,-4.1191,-4.1191,-4.1797,-4.2012,-4.1308,-4.1191,-4.1191,-4.1191,-4.1191,-4.1191,-4.1191,-4.1191,0.0,-4.1035,-3.942,-3.8344,-3.8241,-3.6646,-3.5373,-3.4665,-3.5304,-3.5294,-3.4467,-3.5198,-3.5556,-3.55,-3.55,-3.5631,-3.5868,-3.6767,-3.8108,0.0,0.0,0.0,0.0,0.0,0.0,0.0,0.0,0.0,0.0,0.0,0.0,0.0,0.0,0.0,-4.7003,-4.7094,-4.7369,-4.8196,-4.8306,-4.8306,-4.8306,-4.8306,-4.8306,-4.8306,-4.8306,-4.8306,-4.8306,-4.8364,-4.8728,-4.946,-4.9561,-4.9949,-5.0673,-5.0712,-5.0712,-5.0712,-5.0712,-5.0712,-5.0693,-4.9817,0.0,-4.8317,-4.7336,-4.6528,-4.5845,-4.5671,-4.562,-4.5635,-4.5635,-4.5737,-4.5912,-4.6045,-4.6177,-4.6308,-4.6308,-4.6308,-4.6308,-4.6308,-4.584,-4.5371,-4.6074,-4.582,-4.5371,-4.6094,-4.5776,0.0,-4.5233,-4.4585,-4.3888,-4.3945,-4.3301,-4.2617,-4.2441,-4.1894,-4.1387,-4.123,-4.1191,-4.1191,-4.1191,-4.1191,-4.1191,-4.1191,-4.1328,-4.1387,-4.1211,-4.1191,-4.1191,-4.1191,-4.1191,-4.1191,-4.1191,-4.1191,-4.0877,-4.0059,-3.9014,-3.8075,-3.7319,-3.6284,-3.5626,-3.547,-3.5564,-3.5539,-3.5354,-3.5469,-3.5515,-3.55,-3.55,-3.5906,-3.6673,-3.6922,-3.7691,0.0,0.0,0.0,0.0,0.0,0.0,0.0,0.0,0.0,0.0,0.0,-4.5959,-4.6387,0.0,-4.6963,-4.7591,-4.77,-4.7828,-4.8251,-4.8306,-4.8306,-4.8306,-4.8306,-4.8306,-4.8306,-4.8306,-4.8306,-4.8306,-4.8306,-4.8658,-4.946,-4.9489,-4.9872,-5.0673,-5.0712,-5.0712,-5.0712,-5.0712,-5.0712,-5.0693,-4.9375,-4.8529,-4.8067,-4.6817,-4.6009,-4.5594,-4.5594,-4.5594,-4.5594,-4.5594,-4.5703,-4.5855,-4.5959,-4.6119,-4.6308,-4.6308,-4.6308,-4.6308,-4.6308,-4.5723,-4.5078,-4.5508,-4.5058,-4.4433,-4.4863,-4.4666,-4.431,-4.4335,-4.3709,-4.3001,-4.3047,-4.2422,-4.1797,-4.1797,-4.1484,-4.1191,-4.1191,-4.1191,-4.1191,-4.1191,-4.1191,-4.1191,-4.1191,-4.1191,-4.1191,-4.1191,-4.1191,-4.1191,-4.1191,-4.1191,-4.1015,-4.0501,-4.0441,-4.0059,-3.9075,-3.8176,-3.725,-3.6309,-3.5843,-3.5611,-3.5611,-3.5579,-3.5552,-3.5552,-3.5528,-3.55,-3.55,-3.55,-3.5753,-3.626,-3.7181,-3.8156,0.0,0.0,0.0,0.0,0.0,0.0,0.0,-4.545,-4.5608,-4.6589,-4.6557,-4.6654,-4.7636,-4.7831,-4.803,-4.8691,-4.8655,-4.8545,-4.8545,-4.8416,-4.8306,-4.8306,-4.8306,-4.8306,-4.8306,-4.8306,-4.8306,-4.8306,-4.8306,-4.8658,-4.946,-4.9489,-4.9872,-5.0673,-5.0712,-5.0712,-5.0712,-5.0712,-5.0712,-5.0673,-4.8933,-4.8105,-4.8048,-4.6355,-4.5594,-4.5594,-4.5594,-4.5594,-4.5594,-4.5594,-4.568,-4.5816,-4.5861,-4.6021,-4.6225,-4.6289,-4.6308,-4.6289,-4.6113,-4.5488,-4.4746,-4.4746,-4.416,-4.3476,-4.3652,-4.3574,-4.3436,-4.3437,-4.2812,-4.2128,-4.2168,-4.1699,-4.1191,-4.1191,-4.1191,-4.1191,-4.1191,-4.1191,-4.1191,-4.1191,-4.1191,-4.1191,-4.1171,-4.1151,-4.1171,-4.1191,-4.1191,-4.1191,-4.1151,-4.1014,-4.0599,-3.9763,-3.9525,-3.9053,-3.8116,-3.7162,-3.6302,-3.5552,-3.55,-3.55,-3.55,-3.55,-3.55,-3.55,-3.55,-3.55,-3.55,-3.55,-3.5534,-3.5626,-3.7373,-3.8637,-4.2065,-4.23,-4.2849,-4.3407,-4.4132,-4.4702,0.0,-4.5329,-4.5863,-4.6009,-4.7095,-4.8086,-4.8198,-4.9428,-5.0417,-5.0508,-4.9921,-4.9463,-4.9463,-4.8783,-4.8306,-4.8306,-4.8306,-4.8306,-4.8306,-4.8306,-4.8306,-4.8306,-4.8306,-4.8658,-4.946,-4.9489,-4.9872,-5.0673,-5.0712,-5.0712,-5.0712,-5.0712,-5.0712,-5.0673,-4.8933,-4.8105,-4.8048,-4.6355,-4.5594,-4.5594,-4.5594,-4.5594,-4.5594,-4.5594,-4.568,-4.5803,-4.5803,-4.5875,-4.5978,-4.6203,-4.6308,-4.6191,-4.541,-4.457,-4.3848,-4.3848,-4.3262,-4.2695,-4.3476,-4.3118,-4.2477,-4.2538,-4.1868,-4.1189,-4.1308,-4.1269,-4.1191,-4.1191,-4.1191,-4.1191,-4.1191,-4.1191,-4.1191,-4.1191,-4.1191,-4.1151,-4.103,-4.1023,-4.1055,-4.1171,-4.1191,-4.115,-4.1048,-4.0343,-3.98,-3.9633,-3.8926,-3.8073,-3.7138,-3.6207,-3.5604,-3.55,-3.55,-3.55,-3.55,-3.55,-3.55,-3.55,-3.55,-3.55,-3.55,-3.55,-3.5494,-3.5553,-3.7361,-3.8297,-4.1834,-4.1979,-4.2304,-4.2884,-4.3287,-4.387,-4.5095,-4.5663,-4.6177,-4.7095,-4.8196,-4.9003,-4.904,-5.0013,-5.0802,-5.0802,-5.0105,-4.961,-4.961,-4.8838,-4.8306,-4.8306,-4.8746,-4.9058,-4.9058,-4.86,-4.871,-4.9682,-4.8857,-4.8753,-4.9784,-4.9634,-4.976,-5.0336,-5.0584,-5.0712,-5.0712,-5.0712,-5.0712,-5.0673,-4.8933,-4.8105,-4.8048,-4.6355,-4.5594,-4.5594,-4.5594,-4.5594,-4.5594,-4.5594,-4.5627,-4.5685,-4.5782,-4.5821,-4.588,-4.6101,-4.6177,-4.6062,-4.5273,-4.4433,-4.3613,-4.3105,-4.2383,-4.1777,-4.2129,-4.1971,-4.1675,-4.1699,-4.1424,-4.1128,-4.1191,-4.1149,-4.1081,-4.1081,-4.1025,-4.099,-4.1076,-4.1081,-4.1104,-4.1172,-4.1148,-4.1076,-4.1019,-4.0947,-4.0922,-4.1056,-4.1021,-4.0986,-4.0994,-4.0209,-3.9221,-3.8149,-3.7215,-3.6516,-3.6111,-3.572,-3.55,-3.55,-3.55,-3.55,-3.55,-3.55,-3.55,-3.55,-3.55,-3.55,-3.55,-3.55,-3.55,-3.5519,-3.6762,-3.7603,-4.1505,-4.1556,-4.1746,-4.25,-4.2874,-4.3479,-4.5187,-4.592,-4.6599,-4.7868,-4.8879,-4.9649,-5.0006,-5.0488,-5.0905,-5.1104,-5.0485,-4.9882,-4.9663,-4.907,-4.8655,-4.8655,-4.9225,-4.9776,-5.0216,-4.9279,-4.915,-5.038,-4.9132,-4.8716,-4.972,-4.9602,-4.9673,-5.008,-5.0493,-5.0712,-5.0712,-5.0712,-5.0712,-5.0673,-4.8933,-4.8105,-4.8048,-4.6355,-4.5594,-4.5594,-4.5594,-4.5594,-4.5594,-4.5594,-4.5594,-4.5612,-4.5708,-4.5747,-4.5763,-4.5942,-4.6024,-4.5894,-4.4899,-4.4172,-4.3493,-4.238,-4.164,-4.1191,-4.1191,-4.1191,-4.1191,-4.115,-4.1149,-4.1148,-4.1103,-4.1021,-4.0933,-4.0933,-4.087,-4.0847,-4.0964,-4.0996,-4.1049,-4.1171,-4.1082,-4.099,-4.0955,-4.0843,-4.082,-4.0893,-4.08,-4.0682,-4.0613,-3.9544,-3.82,-3.6682,-3.5913,-3.55,-3.55,-3.55,-3.55,-3.55,-3.55,-3.55,-3.55,-3.55,-3.55,-3.55,-3.55,-3.55,-3.55,-3.55,-3.55,-3.5519,-3.6327,-3.718,-4.0926,-4.0926,-4.1206,-4.2402,-4.329,-4.4023,-4.4601,-4.5938,-4.7187,-4.7623,-4.8716,-4.993,-5.1026,-5.1067,-5.1161,-5.1937,-5.1396,-5.0602,-4.9821,-4.9612,-4.9555,-4.9555,-4.9592,-5.0216,-5.1775,-5.0492,-4.9592,-4.9629,-4.8802,-4.8495,-4.8917,-4.928,-4.9673,-5.008,-5.0493,-5.0712,-5.0712,-5.0712,-5.0712,-5.0673,-4.8933,-4.8105,-4.8048,-4.6355,-4.5594,-4.5594,-4.5594,-4.5594,-4.5594,-4.5594,-4.5594,-4.5594,-4.5603,-4.5603,-4.561,-4.5768,-4.5853,-4.5674,-4.402,-4.3517,-4.3316,-4.1603,-4.1102,-4.1191,-4.1191,-4.1191,-4.1171,-4.103,-4.1017,-4.0986,-4.0854,-4.0805,-4.0805,-4.0805,-4.0801,-4.0847,-4.0964,-4.0996,-4.1049,-4.1171,-4.1082,-4.0957,-4.082,-4.0742,-4.0709,-4.0709,-4.0596,-4.0307,-3.9723,-3.7981,-3.6463,-3.5629,-3.5526,-3.55,-3.55,-3.55,-3.55,-3.55,-3.55,-3.55,-3.55,-3.55,-3.55,-3.55,-3.55,-3.55,-3.55,-3.55,-3.55,-3.5519,-3.6327,-3.718,-4.0552,-4.0631,-4.1087,-4.1895,-4.2618,-4.3447,-4.4746,-4.5894,-4.6954,-4.7834,-4.9265,-5.0372,-5.048,-5.0943,-5.1289,-5.1293,-5.1084,-5.0813,-5.052,-5.045,-5.0398,-5.0398,-5.0857,-5.1408,-5.194,-5.1022,-5.0618,-5.1153,-4.9941,-4.9209,-4.9344,-4.9442,-4.9561,-4.9706,-5.0347,-5.0712,-5.0712,-5.0712,-5.0423,-4.9817,-4.8125,-4.7009,-4.6413,-4.5864,-4.5594,-4.5594,-4.5594,-4.5594,-4.5594,-4.5594,-4.5594,-4.5594,-4.5594,-4.5594,-4.5603,-4.566,-4.5673,-4.5568,-4.4589,-4.3975,-4.3411,-4.2241,-4.1493,-4.1081,-4.1171,-4.1149,-4.1054,-4.1,-4.0996,-4.0964,-4.0824,-4.0761,-4.0736,-4.0736,-4.0665,-4.0629,-4.0777,-4.08,-4.0835,-4.0911,-4.0859,-4.0786,-4.0742,-4.0649,-4.0574,-4.0574,-4.019,-3.9575,-3.8657,-3.7531,-3.6498,-3.5591,-3.55,-3.55,-3.55,-3.55,-3.55,-3.55,-3.55,-3.55,-3.55,-3.55,-3.55,-3.55,-3.55,-3.55,-3.55,-3.55,-3.55,-3.5519,-3.5788,-3.6654,-4.041,-4.0497,-4.1041,-4.1643,-4.2331,-4.3214,-4.4477,-4.554,-4.648,-4.7348,-4.8744,-4.9834,-4.9854,-5.0081,-5.033,-5.0521,-5.0323,-5.0274,-5.0528,-5.0705,-5.0924,-5.1204,-5.1683,-5.2105,-5.2399,-5.1701,-5.1316,-5.1555,-5.005,-4.9132,-4.9132,-4.9361,-4.9489,-4.9489,-5.0272,-5.0712,-5.0712,-5.0712,-5.0106,-4.8913,-4.7836,-4.6721,-4.5594,-4.5594,-4.5594,-4.5594,-4.5594,-4.5594,-4.5594,-4.5594,-4.5594,-4.5594,-4.5594,-4.5594,-4.5594,-4.5594,-4.5594,-4.5494,-4.4802,-4.4283,-4.3736,-4.2567,-4.1831,-4.1359,-4.1124,-4.0994,-4.0917,-4.0909,-4.0899,-4.0859,-4.0723,-4.0653,-4.063,-4.063,-4.0566,-4.0549,-4.0667,-4.0697,-4.0627,-4.0412,-4.0301,-4.0142,-3.9851,-3.9695,-3.9708,-4.0015,-3.9247,-3.8486,-3.805,-3.7064,-3.6163,-3.5552,-3.55,-3.55,-3.55,-3.55,-3.55,-3.55,-3.55,-3.55,-3.55,-3.55,-3.55,-3.55,-3.55,-3.55,-3.55,-3.55,-3.55,-3.55,-3.55,-3.6231,-4.0441,-4.0528,-4.1087,-4.1703,-4.2533,-4.3374,-4.3918,-4.497,-4.5937,-4.6264,-4.7346,-4.8461,-4.92,-4.8698,-4.8524,-4.9649,-4.9335,-4.9199,-4.9878,-5.0533,-5.1221,-5.1914,-5.1995,-5.2291,-5.3025,-5.2364,-5.1575,-5.0824,-4.928,-4.8361,-4.8306,-4.9062,-4.9489,-4.9489,-5.0272,-5.0712,-5.0712,-5.0616,-4.974,-4.8105,-4.8009,-4.7144,-4.5594,-4.5594,-4.5594,-4.5594,-4.5594,-4.5594,-4.5594,-4.5594,-4.5594,-4.5594,-4.5594,-4.5594,-4.5594,-4.5594,-4.5594,-4.5479,-4.4643,-4.4427,-4.4228,-4.2589,-4.2086,-4.1933,-4.107,-4.0793,-4.0788,-4.0718,-4.0697,-4.0661,-4.053,-4.0496,-4.0496,-4.0496,-4.0496,-4.053,-4.0655,-4.0686,-4.048,-3.9785,-3.95,-3.9154,-3.8385,-3.8151,-3.8354,-3.9188,-3.7958,-3.7208,-3.7914,-3.6533,-3.5494,-3.55,-3.55,-3.55,-3.55,-3.55,-3.55,-3.55,-3.55,-3.55,-3.55,-3.55,-3.55,-3.55,-3.55,-3.55,-3.55,-3.55,-3.55,-3.55,-3.55,-3.5923,-4.0897,-4.111,-4.1725,-4.2322,-4.3139,-4.3915,-4.4346,-4.5413,-4.6406,-4.6685,-4.7834,-4.8747,-4.8536,-4.8771,-4.8998,-4.8987,-4.9414,-4.9973,-5.0699,-5.1381,-5.1855,-5.1988,-5.1995,-5.1956,-5.1806,-5.0837,-5.0225,-5.0286,-4.9638,-4.8985,-4.8343,-4.9062,-4.9489,-4.9489,-5.0272,-5.0712,-5.0712,-4.9413,-4.8548,-4.8086,-4.6836,-4.6018,-4.5594,-4.5594,-4.5594,-4.5594,-4.5594,-4.5594,-4.5594,-4.5594,-4.5594,-4.5594,-4.5594,-4.5594,-4.5594,-4.5594,-4.5594,-4.5575,-4.5344,-4.4928,-4.4324,-4.3247,-4.2503,-4.1876,-4.1045,-4.0776,-4.0729,-4.0709,-4.0697,-4.0661,-4.053,-4.0496,-4.0496,-4.0496,-4.0496,-4.0512,-4.0537,-4.0552,-4.0509,-4.0307,-3.9758,-3.9261,-3.9049,-3.8987,-3.9034,-3.9265,-3.8397,-3.7788,-3.7976,-3.6582,-3.5564,-3.5514,-3.55,-3.55,-3.55,-3.55,-3.55,-3.55,-3.55,-3.55,-3.55,-3.55,-3.55,-3.55,-3.55,-3.55,-3.55,-3.55,-3.55,-3.55,-3.55,-3.5923,-4.1064,-4.1335,-4.1982,-4.2737,-4.3597,-4.4359,-4.4732,-4.55,-4.6144,-4.6297,-4.7529,-4.8417,-4.7789,-4.8689,-4.9437,-4.9186,-4.9623,-5.0356,-5.139,-5.1856,-5.2091,-5.2006,-5.1995,-5.1811,-5.1341,-5.0267,-4.973,-5.0056,-4.9436,-4.882,-4.8343,-4.9062,-4.9489,-4.9489,-5.0272,-5.0712,-5.0712,-4.9356,-4.849,-4.8086,-4.6797,-4.597,-4.5594,-4.5594,-4.5594,-4.5594,-4.5594,-4.5594,-4.5594,-4.5594,-4.5594,-4.5594,-4.5594,-4.5594,-4.5594,-4.5594,-4.5594,-4.5594,-4.5594,-4.5343,-4.4773,-4.3557,-4.2592,-4.1763,-4.0916,-4.0629,-4.061,-4.061,-4.061,-4.0589,-4.0527,-4.0496,-4.0496,-4.0496,-4.0496,-4.0496,-4.0496,-4.0496,-4.04,-4.0035,-3.8988,-3.8277,-3.8661,-3.8411,-3.8411,-3.9188,-3.8238,-3.7565,-3.795,-3.6569,-3.5534,-3.5494,-3.55,-3.55,-3.55,-3.55,-3.55,-3.55,-3.55,-3.55,-3.55,-3.55,-3.55,-3.55,-3.55,-3.55,-3.55,-3.55,-3.55,-3.55,-3.55,-3.5731,-4.1291,-4.1512,-4.2132,-4.3065,-4.3964,-4.4701,-4.5011,-4.5362,-4.5629,-4.5603,-4.6894,-4.7844,-4.718,-4.8506,-4.9714,-4.9775,-4.9889,-5.0471,-5.1892,-5.2112,-5.2055,-5.1859,-5.183,-5.1628,-5.1095,-5.0121,-4.9677,-5.0077,-4.9082,-4.8402,-4.8306,-4.9062,-4.9547,-4.9664,-5.0336,-5.0712,-5.0712,-4.9721,-4.8856,-4.8086,-4.7182,-4.6336,-4.5594,-4.5594,-4.5594,-4.5594,-4.5594,-4.5594,-4.5594,-4.5594,-4.5594,-4.5594,-4.5594,-4.5594,-4.5594,-4.5594,-4.5594,-4.5594,-4.5594,-4.5518,-4.5171,-4.3605,-4.2585,-4.1797,-4.0804,-4.0496,-4.0496,-4.0496,-4.0496,-4.0496,-4.0496,-4.0496,-4.0496,-4.0496,-4.0496,-4.0496,-4.0496,-4.0496,-4.0285,-3.9592,-3.8142,-3.7296,-3.8046,-3.7546,-3.7565,-3.9073,-3.7911,-3.7161,-3.7892,-3.6538,-3.55,-3.55,-3.55,-3.55,-3.55,-3.55,-3.55,-3.55,-3.55,-3.55,-3.55,-3.55,-3.55,-3.55,-3.55,-3.55,-3.55,-3.55,-3.55,-3.55,-3.55,-3.55,-4.242,-4.246,-4.2772,-4.3631,-4.4228,-4.4701,-4.5011,-4.5453,-4.5725,-4.561,-4.6769,-4.7693,-4.7472,-4.8408,-4.9445,-5.009,-5.006,-5.0421,-5.1892,-5.2112,-5.1815,-5.1108,-5.1004,-5.0693,-4.9893,-4.9344,-4.9316,-5.0054,-4.9612,-4.8996,-4.8344,-4.9062,-4.98,-5.0472,-5.0624,-5.0712,-5.0712,-4.9125,-4.8259,-4.8086,-4.6547,-4.5748,-4.5594,-4.5594,-4.5594,-4.5594,-4.5594,-4.5594,-4.5594,-4.5594,-4.5594,-4.5594,-4.5594,-4.5594,-4.5594,-4.5594,-4.5594,-4.5594,-4.5594,-4.5133,-4.4374,-4.3412,-4.3008,-4.2585,-4.0977,-4.0496,-4.0496,-4.0496,-4.0496,-4.0496,-4.0496,-4.0496,-4.0496,-4.0496,-4.0496,-4.0496,-4.0496,-4.0496,-4.0458,-4.0323,-3.9515,-3.8892,-3.9053,-3.8957,-3.8957,-3.9246,-3.843,-3.7834,-3.7988,-3.6538,-3.55,-3.55,-3.55,-3.55,-3.55,-3.55,-3.55,-3.55,-3.55,-3.55,-3.55,-3.55,-3.55,-3.55,-3.55,-3.55,-3.55,-3.55,-3.55,-3.55,-3.55,-3.55,-4.2711,-4.2711,-4.2959,-4.4039,-4.446,-4.4732,-4.5243,-4.5537,-4.568,-4.5612,-4.6827,-4.7818,-4.7541,-4.9008,-5.0303,-5.0479,-5.0571,-5.1022,-5.2155,-5.2166,-5.1733,-5.089,-5.0802,-5.0454,-4.9585,-4.9139,-4.923,-5.0043,-4.9733,-4.9234,-4.8639,-4.9171,-4.9872,-5.0673,-5.0712,-5.0481,-5.0029,-4.874,-4.7894,-4.7471,-4.6201,-4.5594,-4.5594,-4.5594,-4.5594,-4.5594,-4.5594,-4.5594,-4.5594,-4.5594,-4.5594,-4.5594,-4.5594,-4.5594,-4.5594,-4.5594,-4.5594,-4.5594,-4.5594,-4.5037,-4.4162,-4.3355,-4.2797,-4.2181,-4.09,-4.0496,-4.0496,-4.0496,-4.0496,-4.0496,-4.0496,-4.0496,-4.0496,-4.0496,-4.0496,-4.0496,-4.0496,-4.0496,-4.0496,-4.0496,-3.9842,-3.9438,-3.9842,-3.9573,-3.9438,-3.9861,-3.8834,-3.8007,-3.8007,-3.6538,-3.55,-3.55,-3.55,-3.55,-3.55,-3.55,-3.55,-3.55,-3.55,-3.55,-3.55,-3.55,-3.55,-3.55,-3.55,-3.55,-3.55,-3.55,-3.55,-3.55,-3.55,-3.55,-4.2884,-4.2922,-4.3246,-4.4332,-4.4644,-4.4853,-4.5457,-4.5594,-4.5594,-4.5594,-4.6797,-4.7809,-4.7649,-4.9353,-5.078,-5.0818,-5.118,-5.1739,-5.2543,-5.251,-5.2031,-5.1055,-5.0844,-5.0454,-4.9585,-4.9218,-4.9352,-5.0171,-4.9859,-4.9489,-4.9171,-4.946,-4.9962,-5.0673,-5.0712,-5.0289,-4.9413,-4.8548,-4.7702,-4.6885,-4.6009,-4.5594,-4.5594,-4.5594,-4.5594,-4.5594,-4.5594,-4.5594,-4.5594,-4.5594,-4.5594,-4.5594,-4.5594,-4.5594,-4.5594,-4.5594,-4.5594,-4.5594,-4.5594,-4.5152,-4.4412,-4.3412,-4.2508,-4.1643,-4.0766,-4.0496,-4.0496,-4.0496,-4.0496,-4.0496,-4.0496,-4.0496,-4.0496,-4.0496,-4.0496,-4.0496,-4.0496,-4.0496,-4.0496,-4.0496,-3.9996,-3.9765,-4.04,-3.9977,-3.9765,-4.04,-3.9065,-3.8007,-3.8007,-3.6538,-3.55,-3.55,-3.55,-3.55,-3.55,-3.55,-3.55,-3.55,-3.55,-3.55,-3.55,-3.55,-3.55,-3.55,-3.55,-3.55,-3.55,-3.55,-3.55,-3.55,-3.55,-3.55,-4.3512,-4.3642,-4.3998,-4.4487,-4.4837,-4.514,-4.5513,-4.5594,-4.5594,-4.5594,-4.6355,-4.7231,-4.7914,-4.8583,-4.9534,-5.1002,-5.1637,-5.2215,-5.3013,-5.3414,-5.3051,-5.1543,-5.1005,-5.0454,-4.9585,-4.946,-4.9773,-5.0575,-5.0272,-5.0031,-4.9987,-5.0012,-5.0249,-5.0683,-5.0712,-5.0289,-4.9413,-4.8548,-4.7702,-4.6885,-4.6009,-4.5594,-4.5594,-4.5594,-4.5594,-4.5594,-4.5594,-4.5594,-4.5594,-4.5594,-4.5594,-4.5594,-4.5594,-4.5594,-4.5594,-4.5594,-4.5594,-4.5594,-4.5594,-4.5556,-4.5229,-4.3624,-4.2508,-4.1643,-4.0766,-4.0496,-4.0496,-4.0496,-4.0496,-4.0496,-4.0496,-4.0496,-4.0496,-4.0496,-4.0496,-4.0496,-4.0496,-4.0496,-4.0496,-4.0496,-4.0439,-4.0419,-4.0496,-4.0439,-4.0419,-4.0496,-3.9065,-3.8007,-3.8007,-3.6538,-3.55,-3.55,-3.55,-3.55,-3.55,-3.55,-3.55,-3.55,-3.55,-3.55,-3.55,-3.55,-3.55,-3.55,-3.55,-3.55,-3.55,-3.55,-3.55,-3.55,-3.55,-3.55,-4.3852,-4.3912,-4.4106,-4.4501,-4.4861,-4.5191,-4.5522,-4.5594,-4.5594,-4.5594,-4.6682,-4.7721,-4.8048,-4.9114,-5.0155,-5.0826,-5.0886,-5.1233,-5.2277,-5.2362,-5.1973,-5.1137,-5.1082,-5.0669,-4.9615,-4.9719,-5.0092,-5.0663,-5.0554,-5.0472,-5.0472,-5.0237,-5.0283,-5.0683,-5.0183,-4.949,-4.8625,-4.7798,-4.6951,-4.6105,-4.5768,-4.5594,-4.5594,-4.5594,-4.5594,-4.5594,-4.5594,-4.5594,-4.5594,-4.5594,-4.5594,-4.5594,-4.5594,-4.5594,-4.5594,-4.5594,-4.5594,-4.5594,-4.5594,-4.5267,-4.4624,-4.347,-4.2508,-4.1643,-4.0766,-4.0496,-4.0496,-4.0496,-4.0496,-4.0496,-4.0496,-4.0496,-4.0496,-4.0496,-4.0496,-4.0496,-4.0496,-4.0496,-4.0496,-4.0496,-4.0496,-4.0496,-4.0496,-4.0496,-4.0496,-4.0496,-3.9065,-3.8007,-3.8007,-3.6538,-3.55,-3.55,-3.55,-3.55,-3.55,-3.55,-3.55,-3.55,-3.55,-3.55,-3.55,-3.55,-3.55,-3.55,-3.55,-3.55,-3.55,-3.55,-3.55,-3.55,-3.55,-3.55,-4.4204,-4.4247,-4.4382,-4.4682,-4.4988,-4.5312,-4.555,-4.5594,-4.5671,-4.5932,-4.6913,-4.7894,-4.8394,-4.949,-5.0404,-5.0654,-5.0875,-5.1317,-5.2151,-5.2356,-5.2265,-5.1766,-5.1592,-5.1112,-5.0123,-5.0177,-5.038,-5.0673,-5.0712,-5.0712,-5.0712,-5.0191,-5.0027,-5.0317,-4.9721,-4.8875,-4.7759,-4.7173,-4.6471,-4.5594,-4.5594,-4.5594,-4.5594,-4.5594,-4.5594,-4.5594,-4.5594,-4.5594,-4.5594,-4.5594,-4.5594,-4.5594,-4.5594,-4.5594,-4.5594,-4.5594,-4.5594,-4.5594,-4.5594,-4.521,-4.4509,-4.3451,-4.2681,-4.197,-4.0843,-4.0496,-4.0496,-4.0496,-4.0496,-4.0496,-4.0496,-4.0496,-4.0496,-4.0496,-4.0496,-4.0496,-4.0496,-4.0496,-4.0496,-4.0496,-4.0496,-4.0496,-4.0496,-4.0496,-4.0419,-4.0189,-3.8911,-3.7911,-3.7642,-3.6385,-3.55,-3.55,-3.55,-3.55,-3.55,-3.55,-3.55,-3.55,-3.55,-3.55,-3.55,-3.55,-3.55,-3.55,-3.55,-3.55,-3.55,-3.55,-3.55,-3.55,-3.55,-3.5635,-4.4682,-4.4837,-4.5085,-4.5096,-4.5342,-4.5605,-4.5594,-4.5594,-4.5845,-4.6721,-4.6904,-4.7432,-4.9086,-4.9394,-4.9702,-5.0558,-5.2087,-5.3173,-5.3173,-5.4279,-5.4764,-5.3957,-5.2755,-5.1817,-5.1326,-5.0933,-5.0702,-5.0712,-5.0712,-5.0712,-5.0712,-4.9875,-4.9413,-4.9413,-4.9394,-4.8606,-4.6923,-4.6904,-4.6471,-4.5594,-4.5594,-4.5594,-4.5594,-4.5594,-4.5594,-4.5594,-4.5594,-4.5594,-4.5594,-4.5594,-4.5594,-4.5594,-4.5594,-4.5594,-4.5594,-4.5594,-4.5594,-4.5594,-4.5594,-4.5594,-4.5306,-4.3643,-4.3085,-4.2758,-4.1035,-4.0496,-4.0496,-4.0496,-4.0496,-4.0496,-4.0496,-4.0496,-4.0496,-4.0496,-4.0496,-4.0496,-4.0496,-4.0496,-4.0496,-4.0496,-4.0496,-4.0496,-4.0496,-4.0496,-4.0227,-3.9438,-3.8565,-3.77,-3.6827,-3.6,-3.55,-3.55,-3.55,-3.55,-3.55,-3.55,-3.55,-3.55,-3.55,-3.55,-3.55,-3.55,-3.55,-3.55,-3.55,-3.55,-3.55,-3.55,-3.55,-3.55,-3.55,-3.5923,-4.4966,-4.503,-4.5096,-4.5096,-4.5352,-4.5594,-4.5594,-4.5594,-4.5845,-4.6721,-4.7336,-4.8067,-4.9183,-4.9894,-5.0548,-5.1395,-5.1962,-5.263,-5.3489,-5.3958,-5.3813,-5.2722,-5.1478,-5.0754,-5.0875,-5.0778,-5.0712,-5.0712,-5.0712,-5.0712,-5.0712,-4.9875,-4.9394,-4.9394,-4.8298,-4.7451,-4.6904,-4.6317,-4.5874,-4.5594,-4.5594,-4.5594,-4.5594,-4.5594,-4.5594,-4.5594,-4.5594,-4.5594,-4.5594,-4.5594,-4.5594,-4.5594,-4.5594,-4.5594,-4.5594,-4.5594,-4.5594,-4.5594,-4.5594,-4.5594,-4.5325,-4.3643,-4.3104,-4.2777,-4.1035,-4.0496,-4.0496,-4.0496,-4.0496,-4.0496,-4.0496,-4.0496,-4.0496,-4.0496,-4.0496,-4.0496,-4.0496,-4.0496,-4.0496,-4.0496,-4.0496,-4.0496,-4.0496,-4.0035,-3.9592,-3.9342,-3.8046,-3.7,-3.6731,-3.6,-3.55,-3.55,-3.55,-3.55,-3.55,-3.55,-3.55,-3.55,-3.55,-3.55,-3.55,-3.55,-3.55,-3.55,-3.55,-3.55,-3.55,-3.55,-3.5788,-3.6327,-3.6327,-3.7084,-4.5361,-4.5333,-4.5303,-4.5342,-4.5493,-4.5594,-4.5594,-4.5594,-4.5845,-4.6721,-4.7548,-4.8375,-4.924,-5.0106,-5.0856,-5.1375,-5.1692,-5.2284,-5.3417,-5.3853,-5.3658,-5.2582,-5.1469,-5.0766,-5.0712,-5.0712,-5.0712,-5.0712,-5.0712,-5.0558,-5.0231,-4.9375,-4.8779,-4.8471,-4.7451,-4.674,-4.6413,-4.5874,-4.5594,-4.5594,-4.5594,-4.5594,-4.5594,-4.5594,-4.5594,-4.5594,-4.5594,-4.5594,0.0,-4.5594,-4.5594,-4.5594,-4.5594,-4.5594,-4.5594,-4.5594,-4.5594,-4.5594,-4.5594,-4.5594,-4.5364,-4.3989,-4.3124,-4.2354,-4.0939,-4.0496,-4.0496,-4.0496,-4.0496,-4.0496,-4.0496,-4.0496,-4.0496,-4.0496,-4.0496,-4.0496,-4.0496,-4.0496,-4.0496,-4.0496,-4.0496,-4.0496,-4.0496,-3.9823,-3.9188,-3.8854,-3.7603,-3.6596,-3.6288,-3.5808,-3.55,-3.55,-3.55,-3.55,-3.55,-3.55,-3.55,-3.55,-3.55,-3.55,-3.55,-3.55,-3.55,-3.55,-3.55,-3.55,-3.55,-3.55,-3.575,-3.625,-3.6904,-3.7777,0.0,-4.5715,-4.5627,-4.5775,-4.57,-4.5594,-4.5594,-4.5594,0.0,-4.6721,-4.749,-4.8298,-4.9221,-5.0048,-5.0654,-5.077,-5.1414,-5.2192,-5.3087,-5.3837,-5.401,-5.3203,-5.2327,-5.1529,-5.077,-5.0712,-5.0712,-5.0712,-5.0635,-5.025,-4.9433,-4.8529,-4.7682,-4.6923,-4.6827,-4.6413,-4.5614,-4.5594,-4.5594,-4.5594,-4.5594,-4.5594,-4.5594,-4.5594,-4.5594,-4.5594,-4.5594,-4.5594,-4.5594,-4.5594,-4.5594,-4.5594,-4.5594,-4.5594,-4.5594,-4.5594,-4.5594,-4.5594,-4.5594,-4.5594,-4.546,-4.4509,-4.3124,-4.1643,-4.0766,-4.0496,-4.0496,-4.0496,-4.0496,-4.0496,-4.0496,-4.0496,-4.0496,-4.0496,-4.0496,-4.0496,-4.0496,-4.0496,-4.0496,-4.0496,-4.0496,-4.0496,-4.0496,-3.9785,-3.8931,-3.8123,-3.7219,-3.6346,-3.5596,-3.55,-3.55,-3.55,-3.55,-3.55,-3.55,-3.55,-3.55,-3.55,-3.55,-3.55,-3.55,-3.55,-3.55,-3.55,-3.55,-3.55,-3.55,-3.55,-3.5558,-3.5712,-3.7276,-3.8065,-4.5828,0.0,-4.5627,-4.5775,-4.57,-4.5594,0.0,-4.5594,-4.5845,-4.6721,-4.7038,-4.7644,-4.9125,-4.9567,-5.0125,-5.1414,-5.1769,-5.2192,-5.3087,-5.2799,-5.2442,-5.2231,-5.1471,-5.0914,-5.0731,-5.0712,-5.0712,-5.0712,-5.0067,-4.9625,-4.9413,-4.799,-4.7096,-4.6904,-4.624,-4.5806,-4.5594,-4.5594,-4.5594,-4.5594,-4.5594,-4.5594,-4.5594,-4.5594,-4.5594,-4.5594,-4.5594,-4.5594,-4.5594,-4.5594,-4.5594,-4.5594,-4.5594,-4.5594,-4.5594,-4.5594,-4.5594,-4.5594,-4.5594,-4.5594,-4.5344,-4.3874,-4.2662,-4.1643,-4.0766,-4.0496,-4.0496,-4.0496,-4.0496,-4.0496,-4.0496,-4.0496,-4.0496,-4.0496,-4.0496,-4.0496,-4.0496,-4.0496,-4.0496,-4.0496,-4.0496,-4.0496,-4.0496,-3.9284,-3.8238,-3.8027,-3.6731,-3.5712,-3.5519,-3.55,-3.55,-3.55,-3.55,-3.55,-3.55,-3.55,-3.55,-3.55,-3.55,-3.55,-3.55,-3.55,-3.55,-3.55,-3.55,-3.55,-3.55,-3.55,-3.6154,-3.743,-3.7815,-3.8681,-4.5862,-4.6054,-4.6215,-4.6329,-4.6271,-4.6201,-4.6201,-4.5893,-4.5729,-4.6201,-4.6624,-4.7182,-4.8086,-4.8875,-4.9702,-5.0606,-5.1087,-5.1645,-5.2481,-5.2192,-5.1904,-5.1904,-5.1183,-5.0712,-5.0712,-5.0712,-5.0539,-5.0125,-4.9663,-4.9067,-4.8298,-4.7394,-4.6721,-4.6317,-4.5845,-4.5594,-4.5594,-4.5594,-4.5594,-4.5594,-4.5594,-4.5594,-4.5594,-4.5594,-4.5594,-4.5594,-4.5594,-4.5594,-4.5594,-4.5594,-4.5594,-4.5594,-4.5594,-4.5594,-4.5594,-4.5594,-4.5594,-4.5594,-4.5594,-4.5344,-4.4778,-4.3508,-4.2508,-4.1643,-4.0766,-4.0496,-4.0496,-4.0496,-4.0496,-4.0496,-4.0496,-4.0496,-4.0496,-4.0496,-4.0496,-4.0496,-4.0496,-4.0496,-4.0496,-4.0496,-4.0496,-4.0381,-4.0015,-3.8873,-3.7853,-3.7469,-3.6327,-3.55,-3.55,-3.55,-3.55,-3.55,-3.55,-3.55,-3.55,-3.55,-3.55,-3.55,-3.55,-3.55,-3.55,-3.55,-3.5673,-3.6038,-3.5692,-3.5885,-3.6661,-3.5885,-3.6154,-3.7411,-3.7815,-3.8488,-4.5899,-4.6494,-4.7058,-4.6796,-4.6819,-4.6837,-4.6666,-4.6078,-4.5594,-4.5594,-4.6182,-4.6778,-4.7038,-4.824,-4.9298,-4.9548,-5.0231,-5.0933,-5.1625,-5.1712,-5.1712,-5.1712,-5.1125,-5.0654,-5.0519,-5.05,-5.0144,-4.926,-4.9086,-4.8394,-4.6981,-4.6778,-4.6355,-4.5614,-4.5594,-4.5594,-4.5594,-4.5594,-4.5594,-4.5594,-4.5594,-4.5594,-4.5594,-4.5594,-4.5594,-4.5594,-4.5594,-4.5594,-4.5594,-4.5594,-4.5594,-4.5594,-4.5594,-4.5594,-4.5594,-4.5594,-4.5594,-4.5594,-4.5594,-4.5037,-4.4162,-4.3355,-4.2508,-4.1643,-4.0766,-4.0496,-4.0496,-4.0496,-4.0496,-4.0496,-4.0496,-4.0496,-4.0496,-4.0496,-4.0496,-4.0496,-4.0496,-4.0496,-4.0496,-4.0496,-4.0496,-4.0246,-3.9438,-3.8584,-3.77,-3.6827,-3.6019,-3.55,-3.55,-3.55,-3.55,-3.55,-3.55,-3.55,-3.55,-3.55,-3.5558,-3.5673,-3.5577,-3.55,-3.55,-3.5615,-3.6,-3.6692,-3.6154,-3.6577,-3.8007,-3.6558,-3.6288,-3.7123,-3.7719,-3.8142,-4.5899,-4.6962,-4.7685,-4.5979,-4.6247,-4.6627,-4.5615,-4.5496,-4.5594,-4.5594,-4.571,-4.622,-4.7644,-4.8125,-4.8779,-5.0269,-5.0616,-5.075,-5.0856,-5.0875,-5.0875,-5.0875,-5.0789,-5.0423,-4.9663,-4.9606,-4.924,-4.8375,-4.7682,-4.7182,-4.6904,-4.6201,-4.5748,-4.5594,-4.5594,-4.5594,-4.5594,-4.5594,-4.5594,-4.5594,-4.5594,-4.5594,-4.5594,-4.5594,-4.5594,-4.5594,-4.5594,-4.5594,-4.5594,-4.5594,-4.5594,-4.5594,-4.5594,-4.5594,-4.5594,-4.5594,-4.5594,-4.5594,-4.5594,-4.5037,-4.4162,-4.3355,-4.2508,-4.1643,-4.0766,-4.0496,-4.0496,-4.0496,-4.0496,-4.0496,-4.0496,-4.0496,-4.0496,-4.0496,-4.0496,-4.0496,-4.0496,-4.0496,-4.0496,-4.0496,-4.0496,-4.0246,-3.9438,-3.8584,-3.77,-3.6827,-3.6019,-3.55,-3.55,-3.55,-3.55,-3.55,-3.55,-3.55,-3.55,-3.55,-3.5788,-3.6462,-3.5885,-3.55,-3.55,-3.6154,-3.6577,-3.6692,-3.7296,-3.7738,-3.8007,-3.7738,-3.8065,-3.8892,-3.8277,-3.8757,-4.5932,-4.6785,-4.7365,-4.5941,-4.6765,-4.7654,-4.6633,-4.6175,-4.5917,-4.5636,-4.5594,-4.5979,-4.7221,-4.7817,-4.8663,-5.0423,-5.0712,-5.0712,-5.0712,-5.0712,-5.0712,-5.0712,-5.0289,-4.9837,-4.9433,-4.8971,-4.8355,-4.7509,-4.6906,-4.6464,-4.6212,-4.5659,-4.5419,-4.5586,-4.5594,-4.5594,-4.5594,-4.5594,-4.5594,-4.5594,-4.5594,-4.5594,-4.5594,-4.5594,-4.5594,-4.5594,-4.5594,-4.5594,-4.5594,-4.5594,-4.5594,-4.5594,-4.5594,-4.5594,-4.5594,-4.5594,-4.5594,-4.5594,-4.5594,-4.5037,-4.4162,-4.3355,-4.2508,-4.1643,-4.0766,-4.0496,-4.0496,-4.0496,-4.0496,-4.0496,-4.0496,-4.0496,-4.0496,-4.0496,-4.0496,-4.0496,-4.0496,-4.0496,-4.0496,-4.0496,-4.0496,-4.0246,-3.9438,-3.8977,-3.8411,-3.7526,-3.7084,-3.6853,-3.6853,-3.6442,-3.6327,-3.6796,-3.6423,-3.6346,-3.6815,-3.6853,-3.6615,-3.6096,-3.6538,-3.6635,-3.6173,-3.6969,-3.7623,-3.8104,-3.8046,-3.845,-3.9361,-3.843,-3.845,-3.9284,-3.8892,-3.913,-4.6005,-4.6558,-4.7,-4.6164,-4.711,-4.8031,-4.7384,-4.6548,-4.5883,-4.5774,-4.562,-4.5773,-4.6722,-4.7721,-4.8836,-5.0183,-5.0577,-5.0635,-5.0423,-5.0404,-5.0327,-5.0106,-4.949,-4.9029,-4.8836,-4.8221,-4.749,-4.6663,-4.631,-4.5934,-4.5515,-4.5312,-4.5302,-4.5485,-4.5559,-4.5594,-4.5594,-4.5594,-4.5594,-4.5594,-4.5594,-4.5594,-4.5594,-4.5594,-4.5594,-4.5594,-4.5594,-4.5594,-4.5594,-4.5594,-4.5594,-4.5594,-4.5594,-4.5594,-4.5594,-4.5594,-4.5594,-4.5594,-4.5594,-4.5037,-4.4162,-4.3355,-4.2508,-4.1643,-4.0766,-4.0496,-4.0496,-4.0496,-4.0496,-4.0496,-4.0496,-4.0496,-4.0496,-4.0496,-4.0496,-4.0496,-4.0496,-4.0496,-4.0439,-4.0265,-4.0362,-4.0189,-3.9169,-3.9169,-3.8996,-3.8123,-3.8007,-3.8007,-3.8007,-3.743,-3.7257,-3.793,-3.7411,-3.7276,-3.795,-3.818,-3.7661,-3.6173,-3.7296,-3.77,-3.7019,-3.7834,-3.8623,-3.9284,-3.8834,-3.9219,-4.0496,-3.92,-3.8931,-3.9573,-3.94,-3.94,-4.6119,-4.6631,-4.709,-4.6572,-4.647,-4.649,-4.6484,-4.557,-4.5004,-4.6043,-4.5671,-4.55,-4.6675,-4.8221,-4.9356,-4.9471,-5.0164,-5.0423,-4.9606,-4.949,-4.9183,-4.8375,-4.824,-4.7894,-4.7154,-4.7019,-4.6624,-4.5768,-4.5673,-4.5496,-4.514,-4.541,-4.5429,-4.5159,-4.5438,-4.5594,-4.5594,-4.5594,-4.5594,-4.5594,-4.5594,-4.5594,-4.5594,-4.5594,-4.5594,-4.5594,-4.5594,-4.5594,-4.5594,-4.5594,-4.5594,-4.5594,-4.5594,-4.5594,-4.5594,-4.5594,-4.5594,-4.5594,-4.5594,-4.5037,-4.4162,-4.3355,-4.2508,-4.1643,-4.0766,-4.0496,-4.0496,-4.0496,-4.0496,-4.0496,-4.0496,-4.0496,-4.0496,-4.0496,-4.0496,-4.0496,-4.0496,-4.0496,-4.0285,-3.9534,-3.9996,-3.9996,-3.8373,-3.8757,-3.8996,-3.8123,-3.8007,-3.8007,-3.8007,-3.795,-3.793,-3.7988,-3.795,-3.793,-3.7988,-3.8738,-3.8815,-3.7873,-3.793,-3.7969,-3.7911,-3.8738,-3.9246,-3.9304,-3.9977,-4.0381,-4.0496,-4.0381,-4.0342,-4.04,-3.965,-3.9708,-4.6036,-4.6185,-4.6394,-4.6378,-4.5963,-4.5631,-4.5947,-4.5683,-4.5375,-4.5533,-4.5482,-4.5726,-4.6722,-4.7836,-4.8586,-4.8586,-4.8875,-4.8971,-4.8644,-4.8586,-4.8471,-4.8144,-4.7663,-4.7231,-4.6923,-4.6413,-4.5951,-4.5614,-4.5203,-4.5011,-4.5096,-4.4787,-4.4657,-4.48,-4.5118,-4.5292,-4.5292,-4.5495,-4.5594,-4.5594,-4.5594,-4.5594,-4.5594,-4.5594,-4.5594,-4.5594,-4.5594,-4.5594,-4.5594,-4.5594,-4.5594,-4.5594,-4.5594,-4.5594,-4.5594,-4.5594,-4.5594,-4.5594,-4.5594,-4.5383,-4.4902,-4.3547,-4.2874,-4.2335,-4.0939,-4.0496,-4.0496,-4.0496,-4.0496,-4.0496,-4.0496,-4.0496,-4.0496,-4.0496,-4.0496,-4.0496,-4.0496,-4.0496,-4.0419,-4.0112,-4.0285,-4.0304,-3.9669,-3.9823,-3.9938,-3.9611,-3.9554,-3.9554,-3.9554,-3.9123,-3.8988,-3.9496,-3.9554,-3.9554,-3.9554,-3.9861,-3.9919,-3.9592,-3.9554,-3.9342,-3.8834,-3.9611,-4.0054,-4.0054,-4.0342,-4.0496,-4.0496,-4.0496,-4.0496,-4.0496,-4.0189,-4.0208,-4.6011,-4.5928,-4.5938,-4.6096,-4.5625,-4.5174,-4.5508,-4.5513,-4.5432,-4.5457,-4.5543,-4.5787,-4.6374,-4.7163,-4.7721,-4.7721,-4.7932,-4.8009,-4.7759,-4.7721,-4.7625,-4.7336,-4.6817,-4.649,-4.649,-4.585,-4.5438,-4.5438,-4.4919,-4.4644,-4.4757,-4.4401,-4.4247,-4.4419,-4.4757,-4.4988,-4.5096,-4.5332,-4.5495,-4.5594,-4.5594,-4.5594,-4.5594,-4.5594,-4.5594,-4.5594,-4.5594,-4.5594,-4.5594,-4.5594,-4.5594,-4.5594,-4.5594,-4.5594,-4.5594,-4.5594,-4.5594,-4.5594,-4.5594,-4.5594,-4.5325,-4.3643,-4.3104,-4.2777,-4.1035,-4.0496,-4.0496,-4.0496,-4.0496,-4.0496,-4.0496,-4.0496,-4.0496,-4.0496,-4.0496,-4.0496,-4.0496,-4.0496,-4.0419,-4.0169,-4.0323,-4.0419,-4.0169,-4.0323,-4.0496,-4.0496,-4.0496,-4.0496,-4.0496,-4.0015,-3.99,-4.0439,-4.0496,-4.0496,-4.0496,-4.0496,-4.0496,-4.0496,-4.0496,-4.0246,-3.9708,-4.0208,-4.0496,-4.0496,-4.0496,-4.0496,-4.0496,-4.0496,-4.0496,-4.0496,-4.0496,-4.0496,-4.6144,-4.5998,-4.5872,-4.5821,-4.5451,-4.5096,-4.5096,-4.4849,-4.4928,-4.6066,-4.5917,-4.5594,-4.5594,-4.6317,-4.6885,-4.6885,-4.7567,-4.7798,-4.7,-4.6885,-4.6567,-4.571,-4.5594,-4.5594,-4.5594,-4.5302,-4.5096,-4.5096,-4.48,-4.4433,-4.4013,-4.4359,-4.4419,-4.4016,-4.4373,-4.4745,-4.5085,-4.5096,-4.5282,-4.5605,-4.5605,-4.5594,-4.5594,-4.5594,-4.5594,-4.5594,-4.5594,-4.5594,-4.5594,-4.5594,-4.5594,-4.5594,-4.5594,-4.5594,-4.5594,-4.5594,-4.5594,-4.5594,-4.5594,-4.5594,-4.5306,-4.3643,-4.3085,-4.2758,-4.1035,-4.0496,-4.0496,-4.0496,-4.0496,-4.0496,-4.0496,-4.0496,-4.0496,-4.0496,-4.0496,-4.0496,-4.0496,-4.0496,-4.0265,-3.9477,-3.9958,-4.0246,-3.9457,-3.9977,-4.0496,-4.0496,-4.0496,-4.0496,-4.0496,-4.0496,-4.0496,-4.0496,-4.0496,-4.0496,-4.0496,-4.0496,-4.0496,-4.0496,-4.0496,-4.0496,-4.0496,-4.0496,-4.0496,-4.0496,-4.0496,-4.0496,-4.0496,-4.0496,-4.0496,-4.0496,-4.0496,-4.0496,-4.6144,-4.5998,-4.5872,-4.5821,-4.5626,-4.5448,-4.5448,-4.5201,-4.5109,-4.5687,-4.5695,-4.5594,-4.5594,-4.5806,-4.599,-4.599,-4.6182,-4.6259,-4.6009,-4.599,-4.5893,-4.5633,-4.5594,-4.5594,-4.5594,-4.5302,-4.5096,-4.5096,-4.4535,-4.4136,-4.4016,-4.3899,-4.3775,-4.3646,-4.3986,-4.4219,-4.4332,-4.4842,-4.5159,-4.5243,-4.5243,-4.5362,-4.5594,-4.5594,-4.5594,-4.5594,-4.5594,-4.5594,-4.5594,-4.5594,-4.5594,-4.5594,-4.5594,-4.5594,-4.5594,-4.5594,-4.5594,-4.5594,-4.5594,-4.521,-4.4509,-4.3451,-4.2701,-4.197,-4.0843,-4.0496,-4.0496,-4.0496,-4.0496,-4.0496,-4.0496,-4.0496,-4.0496,-4.0496,-4.0496,-4.0496,-4.0496,-4.0496,-4.0439,-4.0189,-4.0342,-4.0419,-4.0189,-4.0342,-4.0496,-4.0496,-4.0496,-4.0496,-4.0496,-4.0496,-4.0496,-4.0496,-4.0496,-4.0496,-4.0496,-4.0496,-4.0496,-4.0496,-4.0496,-4.0496,-4.0496,-4.0496,-4.0496,-4.0496,-4.0496,-4.0496,-4.0496,-4.0496,-4.0496,-4.0496,-4.0496,-4.0496,-4.6144,-4.5998,-4.5872,-4.5821,-4.57,-4.5594,-4.5594,-4.5438,-4.5352,-4.5559,-4.5594,-4.5594,-4.5594,-4.5594,-4.562,-4.5673,-4.5688,-4.5688,-4.5688,-4.5688,-4.5657,-4.5603,-4.5485,-4.541,-4.541,-4.4947,-4.4663,-4.4663,-4.4136,-4.3804,-4.3804,-4.3614,-4.3515,-4.3515,-4.3712,-4.3865,-4.4001,-4.4436,-4.4738,-4.4908,-4.5041,-4.5211,-4.541,-4.541,-4.541,-4.541,-4.5531,-4.5594,-4.5594,-4.5594,-4.5594,-4.5594,-4.5594,-4.5594,-4.5594,-4.5594,-4.5594,-4.5594,-4.5594,-4.5037,-4.4162,-4.3355,-4.2508,-4.1643,-4.0766,-4.0496,-4.0496,-4.0496,-4.0496,-4.0496,-4.0496,-4.0496,-4.0496,-4.0496,-4.0496,-4.0496,-4.0496,-4.0496,-4.0496,-4.0496,-4.0496,-4.0496,-4.0496,-4.0496,-4.0496,-4.0496,-4.0496,-4.0496,-4.0496,-4.0496,-4.0496,-4.0496,-4.0496,-4.0496,-4.0496,-4.0496,-4.0496,-4.0496,-4.0496,-4.0496,-4.0496,-4.0496,-4.0496,-4.0496,-4.0496,-4.0496,-4.0496,-4.0496,-4.0496,-4.0496,-4.0496,-4.0496,-4.6147,-4.6005,-4.5891,-4.582,-4.5688,-4.5594,-4.5594,-4.5594,-4.5594,-4.5594,-4.5594,-4.5594,-4.5594,-4.5594,-4.5643,-4.5769,-4.5803,-4.5803,-4.5803,-4.5803,-4.5754,-4.562,-4.5312,-4.5096,-4.5096,-4.4423,-4.4001,-4.4001,-4.3677,-4.3515,-4.3515,-4.3515,-4.3515,-4.3515,-4.3515,-4.3646,-4.3955,-4.3967,-4.4175,-4.454,-4.4842,-4.5,-4.5,-4.5096,-4.5159,-4.515,-4.5476,-4.5594,-4.5594,-4.5594,-4.5594,-4.5594,-4.5594,-4.5594,-4.5594,-4.5594,-4.5594,-4.5594,-4.5594,-4.4979,-4.4066,-4.3335,-4.247,-4.1527,-4.0746,-4.0496,-4.0496,-4.0496,-4.0496,-4.0496,-4.0496,-4.0496,-4.0496,-4.0496,-4.0496,-4.0496,-4.0496,-4.0496,-4.0496,-4.0496,-4.0496,-4.0496,-4.0496,-4.0496,-4.0496,-4.0496,-4.0496,-4.0496,-4.0496,-4.0496,-4.0496,-4.0496,-4.0496,-4.0496,-4.0496,-4.0496,-4.0496,-4.0496,-4.0496,-4.0496,-4.0496,-4.0496,-4.0496,-4.0496,-4.0496,-4.0496,-4.0496,-4.0496,-4.0496,-4.0496,-4.0496,-4.0496,-4.6268,-4.6082,-4.5894,-4.5886,-4.575,-4.5594,-4.5594,-4.5594,-4.5594,-4.5594,-4.5594,-4.5594,-4.5594,-4.5594,-4.5643,-4.5769,-4.5803,-4.5803,-4.5803,-4.5803,-4.5754,-4.562,-4.5312,-4.5096,-4.5096,-4.4423,-4.4001,-4.4001,-4.3677,-4.3515,-4.3515,-4.3515,-4.3515,-4.3515,-4.3515,-4.3531,-4.3614,-4.3865,-4.4028,-4.4117,-4.4204,-4.4247,-4.4276,-4.511,-4.5495,-4.5495,-4.5568,-4.5594,-4.5594,-4.5594,-4.5594,-4.5594,-4.5594,-4.5594,-4.5594,-4.5594,-4.5594,-4.5594,-4.5594,-4.4624,-4.3335,-4.3162,-4.2047,-4.0746,-4.0554,-4.0496,-4.0496,-4.0496,-4.0496,-4.0496,-4.0496,-4.0496,-4.0496,-4.0496,-4.0496,-4.0496,-4.0496,-4.0496,-4.0496,-4.0496,-4.0496,-4.0496,-4.0496,-4.0496,-4.0496,-4.0496,-4.0496,-4.0496,-4.0496,-4.0496,-4.0496,-4.0496,-4.0496,-4.0496,-4.0496,-4.0496,-4.0496,-4.0496,-4.0496,-4.0496,-4.0496,-4.0496,-4.0496,-4.0496,-4.0496,-4.0496,-4.0496,-4.0496,-4.0496,-4.0496,-4.0496,-4.0496,-4.6308,-4.6091,-4.5872,-4.5776,-4.5681,-4.5594,-4.5594,-4.5594,-4.5594,-4.5594,-4.5594,-4.5594,-4.5594,-4.564,-4.574,-4.583,-4.5891,-4.5933,-4.5933,-4.5901,-4.582,-4.5715,-4.5195,-4.4861,-4.4861,-4.419,-4.3756,-4.3756,-4.3597,-4.3515,-4.3515,-4.3515,-4.3515,-4.3515,-4.3515,-4.3515,-4.3515,-4.366,-4.3756,-4.3756,-4.3924,-4.4171,-4.4529,-4.4935,-4.5312,-4.5594,-4.5594,-4.5594,-4.5594,-4.5594,-4.5594,-4.5594,-4.5594,-4.5594,-4.5594,-4.5594,-4.5594,-4.5594,-4.5594,-4.4489,-4.3104,-4.3104,-4.1912,-4.0496,-4.0496,-4.0496,-4.0496,-4.0496,-4.0496,-4.0496,-4.0496,-4.0496,-4.0496,-4.0496,-4.0496,-4.0496,-4.0496,-4.0496,-4.0496,-4.0496,-4.0496,-4.0496,-4.0496,-4.0496,-4.0496,-4.0496,-4.0496,-4.0496,-4.0496,-4.0496,-4.0496,-4.0496,-4.0496,-4.0496,-4.0496,-4.0496,-4.0496,-4.0496,-4.0496,-4.0496,-4.0496,-4.0496,-4.0496,-4.0496,-4.0496,-4.0496,-4.0496,-4.0496,-4.0496,-4.0496,-4.0496,-4.0496,-4.6308,-4.6091,-4.5867,-4.5673,-4.562,-4.5594,-4.5594,-4.5594,-4.5594,-4.5594,-4.5594,-4.5594,-4.5594,-4.5715,-4.5814,-4.5881,-4.6005,-4.6108,-4.6108,-4.5985,-4.5872,-4.5803,-4.5088,-4.4593,-4.4593,-4.3931,-4.3515,-4.3515,-4.3515,-4.3515,-4.3515,-4.3515,-4.3515,-4.3515,-4.3515,-4.3515,-4.3515,-4.3515,-4.3515,-4.3496,-4.3833,-4.4359,-4.5019,-4.48,-4.5011,-4.5594,-4.5594,-4.5594,-4.5594,-4.5594,-4.5594,-4.5594,-4.5594,-4.5594,-4.5594,-4.5594,-4.5594,-4.5594,-4.5594,-4.4489,-4.3104,-4.3104,-4.1912,-4.0496,-4.0496,-4.0496,-4.0496,-4.0496,-4.0496,-4.0496,-4.0496,-4.0496,-4.0496,-4.0496,-4.0496,-4.0496,-4.0496,-4.0496,-4.0496,-4.0496,-4.0496,-4.0496,-4.0496,-4.0496,-4.0496,-4.0496,-4.0496,-4.0496,-4.0496,-4.0496,-4.0496,-4.0496,-4.0496,-4.0496,-4.0496,-4.0496,-4.0496,-4.0496,-4.0496,-4.0481,-4.0422,-4.0473,-4.0481,-4.0422,-4.0441,-4.0457,-4.0496,-4.0457,-4.0457,-4.0496,-4.0496,-4.0496,-4.6308,-4.6091,-4.5886,-4.5796,-4.5696,-4.5594,-4.5594,-4.5594,-4.5594,-4.5594,-4.5594,-4.5594,-4.5594,-4.5715,-4.5814,-4.5881,-4.6005,-4.6108,-4.6108,-4.5985,-4.5872,-4.5803,-4.5088,-4.4593,-4.4593,-4.3931,-4.3515,-4.3515,-4.3515,-4.3515,-4.3515,-4.3515,-4.3515,-4.3515,-4.3515,-4.3515,-4.3515,-4.3515,-4.3515,-4.3496,-4.3833,-4.4233,-4.4688,-4.4919,-4.5243,-4.5594,-4.5594,-4.5594,-4.5594,-4.5594,-4.5594,-4.5594,-4.5594,-4.5594,-4.5594,-4.5594,-4.5594,-4.5594,-4.5594,-4.4489,-4.3104,-4.3104,-4.1912,-4.0496,-4.0496,-4.0496,-4.0496,-4.0496,-4.0496,-4.0496,-4.0496,-4.0496,-4.0496,-4.0496,-4.0496,-4.0496,-4.0496,-4.0496,-4.0496,-4.0496,-4.0496,-4.0496,-4.0496,-4.0496,-4.0496,-4.0496,-4.0496,-4.0496,-4.0496,-4.0496,-4.0496,-4.0496,-4.0496,-4.0496,-4.0496,-4.0496,-4.0496,-4.0496,-4.0496,-4.0389,-4.0158,-4.0372,-4.0389,-4.0158,-4.0148,-4.0278,-4.0496,-4.0278,-4.0267,-4.0496,-4.0496,-4.0496,-4.6202,-4.6091,-4.599,-4.5846,-4.5761,-4.5685,-4.562,-4.5594,-4.5594,-4.5594,-4.5594,-4.561,-4.5692,-4.579,-4.5901,-4.6008,-4.6119,-4.6203,-4.6203,-4.6036,-4.5881,-4.5861,-4.5102,-4.4593,-4.4593,-4.3931,-4.3515,-4.3515,-4.3515,-4.3515,-4.3515,-4.3515,-4.3515,-4.3515,-4.3515,-4.3515,-4.3515,-4.3515,-4.3515,-4.3496,-4.3833,-4.4204,-4.4606,-4.4943,-4.5273,-4.5594,-4.5594,-4.5594,-4.5594,-4.5594,-4.5594,-4.5594,-4.5594,-4.5594,-4.5594,-4.5594,-4.5594,-4.5537,-4.5037,-4.4085,-4.3028,-4.2527,-4.1527,-4.0496,-4.0496,-4.0496,-4.0496,-4.0496,-4.0496,-4.0496,-4.0496,-4.0496,-4.0496,-4.0496,-4.0496,-4.0496,-4.0496,-4.0496,-4.0496,-4.0496,-4.0496,-4.0496,-4.0496,-4.0496,-4.0496,-4.0496,-4.0496,-4.0496,-4.0496,-4.0496,-4.0496,-4.0496,-4.0496,-4.0496,-4.0496,-4.0496,-4.0496,-4.0496,-4.0496,-4.0449,-4.033,-4.0441,-4.043,-4.033,-4.033,-4.0381,-4.0496,-4.0381,-4.0381,-4.0496,-4.0496,-4.0496,-4.6175,-4.6138,-4.6061,-4.5869,-4.5815,-4.5756,-4.5627,-4.5594,-4.5594,-4.5594,-4.5594,-4.564,-4.5803,-4.5876,-4.5936,-4.608,-4.6203,-4.6308,-4.6308,-4.6075,-4.5899,-4.5899,-4.5132,-4.4593,-4.4593,-4.3931,-4.3515,-4.3515,-4.3515,-4.3515,-4.3515,-4.3515,-4.3515,-4.3515,-4.3515,-4.3515,-4.3515,-4.3515,-4.3515,-4.3496,-4.3833,-4.4204,-4.4606,-4.4943,-4.5273,-4.5594,-4.5594,-4.5594,-4.5594,-4.5594,-4.5594,-4.5594,-4.5594,-4.5594,-4.5594,-4.5594,-4.5594,-4.5479,-4.4605,-4.3778,-4.297,-4.2077,-4.12,-4.0496,-4.0496,-4.0496,-4.0496,-4.0496,-4.0496,-4.0496,-4.0496,-4.0496,-4.0496,-4.0496,-4.0496,-4.0496,-4.0496,-4.0496,-4.0496,-4.0496,-4.0496,-4.0496,-4.0496,-4.0496,-4.0496,-4.0496,-4.0496,-4.0496,-4.0496,-4.0496,-4.0496,-4.0496,-4.0496,-4.0496,-4.0496,-4.0496,-4.0496,-4.0496,-4.0496,-4.0473,-4.0397,-4.0389,-4.0389,-4.0389,-4.0389,-4.0422,-4.0496,-4.0422,-4.0422,-4.0496,-4.0496,-4.0496,-4.6289,-4.62,-4.6072,-4.592,-4.5853,-4.5756,-4.5627,-4.5594,-4.5594,-4.5594,-4.5594,-4.5669,-4.5867,-4.5894,-4.5936,-4.608,-4.6203,-4.6308,-4.6308,-4.6075,-4.5899,-4.5899,-4.5132,-4.4593,-4.4593,-4.3931,-4.3515,-4.3515,-4.3515,-4.3515,-4.3515,-4.3515,-4.3515,-4.3515,-4.3515,-4.3515,-4.3515,-4.3515,-4.3515,-4.3496,-4.3833,-4.4204,-4.4606,-4.4943,-4.5273,-4.5594,-4.5594,-4.5594,-4.5594,-4.5594,-4.5594,-4.5594,-4.5594,-4.5594,-4.5594,-4.5594,-4.5594,-4.5479,-4.4605,-4.3778,-4.297,-4.2077,-4.12,-4.0496,-4.0496,-4.0496,-4.0496,-4.0496,-4.0496,-4.0496,-4.0496,-4.0496,-4.0496,-4.0496,-4.0496,-4.0496,-4.0496,-4.0496,-4.0496,-4.0496,-4.0496,-4.0496,-4.0496,-4.0496,-4.0496,-4.0496,-4.0496,-4.0496,-4.0496,-4.0496,-4.0496,-4.0496,-4.0496,-4.0496,-4.0496,-4.0496,-4.0496,-4.0496,-4.0496,-4.0381,-4.0129,-4.012,-4.012,-4.012,-4.012,-4.026,-4.0496,-4.0241,-4.0241,-4.0496,-4.0496,-4.0496,-4.6308,-4.6268,-4.6199,-4.6053,-4.6011,-4.5957,-4.5769,-4.5718,-4.57,-4.562,-4.5665,-4.5757,-4.5891,-4.5899,-4.5978,-4.6199,-4.6268,-4.6308,-4.6308,-4.6075,-4.5899,-4.5899,-4.5132,-4.4593,-4.4593,-4.3931,-4.3515,-4.3515,-4.3515,-4.3515,-4.3515,-4.3515,-4.3515,-4.3515,-4.3515,-4.3515,-4.3515,-4.3515,-4.3515,-4.3496,-4.3833,-4.4204,-4.4606,-4.4943,-4.5273,-4.5594,-4.5594,-4.5594,-4.5594,-4.5594,-4.5594,-4.5594,-4.5594,-4.5594,-4.5594,-4.5594,-4.5594,-4.5402,-4.4008,-4.3335,-4.2854,-4.1431,-4.0746,-4.0496,-4.0496,-4.0496,-4.0496,-4.0496,-4.0496,-4.0496,-4.0496,-4.0496,-4.0496,-4.0496,-4.0496,-4.0496,-4.0496,-4.0496,-4.0457,-4.0286,-4.0241,-4.0241,-4.0241,-4.0241,-4.0313,-4.0473,-4.0496,-4.0496,-4.0496,-4.0496,-4.0496,-4.0496,-4.0496,-4.0496,-4.0496,-4.0496,-4.0496,-4.0496,-4.0496,-4.0381,-4.011,-4.0101,-4.0002,-3.9786,-3.9992,-4.0223,-4.0496,-4.0397,-4.0417,-4.0496,-4.0496,-4.0496,-4.6308,-4.6308,-4.6268,-4.6122,-4.6108,-4.6042,-4.5861,-4.5821,-4.5769,-4.5696,-4.5733,-4.5814,-4.5896,-4.5932,-4.6039,-4.6268,-4.6308,-4.6308,-4.6308,-4.6113,-4.594,-4.5903,-4.5276,-4.482,-4.4769,-4.4223,-4.3823,-4.3679,-4.3679,-4.3631,-4.3515,-4.3515,-4.3515,-4.3515,-4.3515,-4.3515,-4.3515,-4.3515,-4.3515,-4.3496,-4.3833,-4.4204,-4.4606,-4.4943,-4.5273,-4.5594,-4.5594,-4.5594,-4.5594,-4.5594,-4.5594,-4.5594,-4.5594,-4.5594,-4.5594,-4.5594,-4.5421,-4.4979,-4.3585,-4.2912,-4.2412,-4.0977,-4.0496,-4.0496,-4.0496,-4.0496,-4.0496,-4.0496,-4.0496,-4.0496,-4.0496,-4.0496,-4.0573,-4.0873,-4.0931,-4.1008,-4.1304,-4.092,-4.0457,-4.0278,-4.0158,-4.0101,-4.0101,-4.0002,-4.0023,-4.0311,-4.0364,-4.0389,-4.0489,-4.0496,-4.0496,-4.0496,-4.0496,-4.0496,-4.0496,-4.0496,-4.0496,-4.0496,-4.0496,-4.0381,-4.011,-3.9992,-3.9819,-3.9599,-3.972,-3.9954,-4.0364,-4.0457,-4.0496,-4.0496,-4.0496,-4.0496,0.0,0.0,0.0,-4.6122,-4.6091,-4.6075,-4.5932,-4.5864,-4.5816,-4.5809,-4.5809,-4.5826,-4.5885,-4.6024,-4.6147,-4.6289,-4.6308,-4.6308,-4.6308,-4.6177,-4.6045,-4.5912,-4.5536,-4.5256,-4.511,-4.48,-4.4447,-4.4061,-4.4016,-4.3849,-4.3531,-4.3515,-4.3515,-4.3515,-4.3515,-4.3515,-4.3515,-4.3515,-4.3515,-4.3496,-4.3833,-4.4204,-4.4606,-4.4943,-4.5273,-4.5594,-4.5594,-4.5594,-4.5594,-4.5594,-4.5594,-4.5594,-4.5594,-4.5594,-4.5594,-4.5594,-4.5056,-4.422,-4.3412,-4.2585,-4.1739,-4.0843,-4.0535,-4.0535,-4.0516,-4.0496,-4.0496,-4.0496,-4.0496,-4.0516,-4.0535,-4.0535,-4.0766,-4.1643,-4.1846,-4.2058,-4.2912,-4.1739,-4.0527,-4.0519,-4.0278,-4.0081,-4.0081,-3.9797,-3.969,-4.0032,-4.0091,-4.0177,-4.043,-4.0481,-4.0481,-4.0489,-4.0489,-4.0489,-4.0496,-4.0496,-4.0496,-4.0496,-4.0489,-4.0364,-4.0101,-3.9765,-3.9587,-3.9576,-3.9251,-3.9445,-4.0091,-4.0356,-4.0489,-4.0496,-4.0496,-4.0496,-4.6177,0.0,0.0,0.0,0.0,0.0,-4.6077,-4.6027,-4.599,-4.5886,-4.5959,-4.6014,-4.6039,-4.6149,-4.6267,-4.6289,-4.6308,-4.6308,-4.6308,-4.6177,-4.6045,-4.5912,-4.5536,-4.5256,-4.511,-4.48,-4.4553,-4.4447,-4.4161,-4.3955,-4.3865,-4.3629,-4.3515,-4.3515,-4.3515,-4.3515,-4.3515,-4.3515,-4.3515,-4.3496,-4.3833,-4.4204,-4.4606,-4.4943,-4.5273,-4.5594,-4.5594,-4.5594,-4.5594,-4.5594,-4.5594,-4.5594,-4.5594,-4.5594,-4.5594,-4.5594,-4.546,-4.5133,-4.4259,-4.3816,-4.3374,-4.1912,-4.145,-4.1316,-4.0689,-4.0496,-4.0496,-4.0496,-4.0496,-4.065,-4.1277,-4.145,-4.1662,-4.2527,-4.2739,-4.2816,-4.3047,-4.2239,-4.1302,-4.0878,-4.0225,-3.9656,-3.9414,-3.9289,-3.9352,-3.9679,-3.9742,-3.9775,-3.9842,-3.9853,-3.9944,-4.0186,-4.0204,-4.0295,-4.0481,-4.0496,-4.0496,-4.0496,-4.0321,-4.0072,-3.9754,-3.9414,-3.9144,-3.8942,-3.9054,-3.9302,-3.9742,-4.0062,-4.0313,-4.0496,-4.0496,-4.0496,-4.6117,-4.6115,-4.614,-4.611,0.0,0.0,-4.6198,-4.6144,-4.608,-4.5995,-4.6042,-4.6082,-4.6033,-4.6138,-4.6222,-4.6222,-4.6222,-4.6245,-4.6289,-4.6226,-4.6115,-4.592,-4.6007,-4.5897,-4.5371,-4.5453,-4.5365,-4.4843,-4.4455,-4.4121,-4.382,-4.3614,-4.3515,-4.3515,-4.3515,-4.3515,-4.3515,-4.3515,-4.3515,-4.3515,-4.402,-4.4359,-4.4624,-4.5096,-4.5419,-4.5594,-4.5594,-4.5594,-4.5594,-4.5594,-4.5594,-4.5594,-4.5594,-4.5594,-4.5594,-4.5594,-4.5364,-4.4998,-4.447,-4.3835,-4.3104,-4.2115,-4.1546,-4.1162,-4.065,-4.0496,-4.0496,-4.0496,-4.0496,-4.0708,-4.1566,-4.1527,-4.1566,-4.2816,-4.3104,-4.3181,-4.3528,-4.2825,-4.1924,-4.1203,-4.0269,-3.9486,-3.9165,-3.9013,-3.904,-3.9358,-3.9389,-3.9438,-3.9587,-3.9599,-3.9668,-3.988,-4.0012,-4.0158,-4.0321,-4.0441,-4.0496,-4.0496,-4.0241,-3.9943,-3.9611,-3.9276,-3.8971,-3.8707,-3.884,-3.9144,-3.9599,-3.9932,-4.0232,-4.0496,-4.0496,-4.0496,-4.6082,-4.5988,-4.592,-4.6033,-4.608,0.0,-4.6247,-4.62,-4.6119,-4.6119,-4.6119,-4.6082,-4.5974,-4.6042,-4.6119,-4.6119,-4.6119,-4.6152,-4.6289,-4.6308,-4.6239,-4.606,-4.6731,-4.6857,-4.5965,-4.6509,-4.6455,-4.5371,-4.4869,-4.4266,-4.3531,-4.3515,-4.3515,-4.3515,-4.3515,-4.3515,-4.3515,-4.3515,-4.3515,-4.3515,-4.4256,-4.4593,-4.4618,-4.5283,-4.5594,-4.5594,-4.5594,-4.5594,-4.5594,-4.5594,-4.5594,-4.5594,-4.5594,-4.5594,-4.5594,-4.5594,-4.5114,-4.4432,-4.4432,-4.347,-4.22,-4.2,-4.1412,-4.0746,-4.0554,-4.0573,-4.0669,-4.0766,-4.0785,-4.0977,-4.1739,-4.1373,-4.1208,-4.2835,-4.3239,-4.3423,-4.4117,-4.3455,-4.2446,-4.1527,-4.037,-3.9463,-3.9242,-3.8984,-3.8884,-3.9027,-3.9137,-3.9245,-3.9476,-3.9493,-3.9505,-3.9552,-3.9808,-4.0002,-4.0032,-4.0267,-4.0406,-4.0406,-4.0139,-3.9859,-3.9564,-3.9231,-3.8947,-3.8707,-3.8735,-3.9022,-3.9599,-3.9932,-4.0232,-4.0496,-4.0496,-4.0496,-4.5974,-4.5916,-4.5881,-4.5878,-4.5971,0.0,-4.6122,-4.6201,-4.6268,-4.6268,-4.6268,-4.6248,-4.6224,-4.6247,-4.6268,-4.6268,-4.6268,-4.6268,-4.6308,-4.6308,-4.6454,-4.6893,-4.7101,-4.7303,-4.7593,-4.7182,-4.6789,-4.657,-4.5342,-4.4266,-4.3531,-4.3515,-4.3515,-4.3515,-4.3515,-4.3515,-4.3515,-4.3515,-4.3515,-4.3515,-4.4256,-4.4593,-4.4618,-4.5283,-4.5594,-4.5594,-4.5594,-4.5594,-4.5594,-4.5594,-4.5594,-4.5594,-4.5594,-4.5594,-4.5594,-4.5594,-4.5498,-4.5344,-4.5344,-4.5133,-4.4643,-4.3278,-4.2739,-4.2335,-4.0939,-4.0989,-4.17,-4.2393,-4.2585,-4.2624,-4.2797,-4.272,-4.2835,-4.3835,-4.4066,-4.4042,-4.4001,-4.3757,-4.3163,-4.18,-4.028,-3.9309,-3.9678,-3.9706,-3.9454,-3.8869,-3.9326,-3.954,-3.8951,-3.8877,-3.897,-3.9178,-3.9269,-3.9401,-3.9668,-3.9746,-3.9778,-3.9778,-3.9474,-3.9282,-3.9199,-3.8923,-3.8747,-3.8707,-3.8909,-3.9205,-3.9599,-3.9932,-4.0232,-4.0496,-4.0496,-4.0496,-4.5881,-4.5807,-4.5764,-4.5783,-4.5883,0.0,0.0,-4.6091,-4.62,-4.62,-4.6248,-4.6289,-4.6203,-4.62,-4.62,-4.62,-4.62,-4.6224,-4.6289,-4.6247,-4.645,-4.7118,-4.7522,-4.7843,-4.8075,-4.774,-4.7002,-4.5835,-4.5047,-4.4266,-4.3531,-4.3515,-4.3515,-4.3515,-4.3515,-4.3515,-4.3515,-4.3515,-4.3515,-4.3515,-4.4256,-4.4593,-4.4618,-4.5283,-4.5594,-4.5594,-4.5594,-4.5594,-4.5594,-4.5594,-4.5594,-4.5594,-4.5594,-4.5594,-4.5594,-4.5594,-4.5594,-4.5594,-4.5594,-4.5325,-4.4797,-4.397,-4.3431,-4.2931,-4.2066,-4.2104,-4.2547,-4.2989,-4.3104,-4.3181,-4.3585,-4.3393,-4.3297,-4.4105,-4.4297,-4.4217,-4.3911,-4.3691,-4.3396,-4.2898,-4.1341,-4.0188,-4.0446,-4.0506,-4.0359,-3.9958,-4.0249,-4.0212,-3.9405,-3.9294,-3.9206,-3.8935,-3.9008,-3.9178,-3.9346,-3.9498,-3.9599,-3.9599,-3.9295,-3.9112,-3.9112,-3.8844,-3.8707,-3.8707,-3.8829,-3.9136,-3.9599,-3.9775,-4.0072,-4.0496,-4.0496,-4.0496,-4.5815,-4.57,-4.5637,-4.5733,-4.5776,-4.5815,0.0,0.0,0.0,-4.6087,-4.6196,-4.6245,-4.6149,-4.6144,-4.6144,-4.6144,-4.6144,-4.6174,-4.6289,-4.6152,-4.6339,-4.711,-4.7707,-4.8064,-4.8105,-4.7971,-4.696,-4.4757,-4.4593,-4.4266,-4.3531,-4.3515,-4.3515,-4.3515,-4.3515,-4.3515,-4.3515,-4.3515,-4.3515,-4.3515,-4.4256,-4.4593,-4.4618,-4.5283,-4.5594,-4.5594,-4.5594,-4.5594,-4.5594,-4.5594,-4.5594,-4.5594,-4.5594,-4.5594,-4.5594,-4.5594,-4.5594,-4.5594,-4.5594,-4.5152,-4.4509,-4.4355,-4.3758,-4.3115,-4.3199,-4.3282,-4.3374,-4.3528,-4.3585,-4.3682,-4.4162,-4.3816,-4.3489,-4.4143,-4.4243,-4.4106,-4.3787,-4.3546,-4.3477,-4.3636,-4.2532,-4.1499,-4.1352,-4.1334,-4.1279,-4.1113,-4.1224,-4.1038,-4.023,-3.9992,-3.9643,-3.9001,-3.8991,-3.9022,-3.9022,-3.9257,-3.9439,-3.9439,-3.9171,-3.9022,-3.9022,-3.8833,-3.8707,-3.8707,-3.8707,-3.8998,-3.9599,-3.9599,-3.9905,-4.0496,-4.0496,-4.0496,-4.5803,-4.57,-4.5603,-4.5629,-4.5715,-4.5803,-4.5803,0.0,-4.5967,-4.6077,0.0,-4.6149,-4.6268,0.0,0.0,-4.6288,-4.6288,-4.6289,-4.6308,-4.6082,-4.6243,-4.7101,-4.7163,-4.7395,-4.8047,-4.7451,-4.6356,-4.472,-4.4593,-4.4266,-4.3531,-4.3515,-4.3515,-4.3515,-4.3515,-4.3515,-4.3515,-4.3515,-4.3515,-4.3515,-4.4256,-4.4593,-4.4618,-4.5283,-4.5594,-4.5594,-4.5594,-4.5594,-4.5594,-4.5594,-4.5594,-4.5594,-4.5594,-4.5594,-4.5594,-4.5594,-4.5594,-4.5594,-4.5594,-4.5537,-4.5325,-4.4547,-4.3758,-4.3178,-4.3578,-4.3925,-4.4316,-4.5094,-4.5325,-4.5171,-4.447,-4.422,-4.4182,-4.4278,-4.4068,-4.3757,-4.3433,-4.3651,-4.3639,-4.2691,-4.2889,-4.3002,-4.2286,-4.2158,-4.1919,-4.1205,-4.1717,-4.1882,-4.1058,-4.0341,-3.9845,-3.9772,-3.9157,-3.875,-3.875,-3.8777,-3.8807,-3.8807,-3.8762,-3.875,-3.875,-3.8723,-3.8707,-3.8707,-3.8707,-3.8998,-3.9599,-3.9599,-3.9905,-4.0496,-4.0496,-4.0496,-4.5708,-4.5643,-4.5594,-4.5594,-4.5643,-4.5669,-4.5669,-4.5764,-4.5859,-4.592,0.0,0.0,0.0,0.0,0.0,0.0,-4.6308,-4.6269,-4.6199,-4.6027,-4.623,-4.7101,-4.7042,-4.7078,-4.7438,-4.7118,-4.6369,-4.5105,-4.4749,-4.4364,-4.382,-4.3614,-4.3515,-4.3515,-4.3515,-4.3515,-4.3515,-4.3515,-4.3515,-4.3515,-4.4256,-4.4593,-4.4618,-4.5283,-4.5594,-4.5594,-4.5594,-4.5594,-4.5594,-4.5594,-4.5594,-4.5594,-4.5594,-4.5594,-4.5594,-4.5594,-4.5594,-4.5594,-4.5594,-4.5594,-4.551,-4.4959,-4.4661,-4.4542,-4.4551,-4.4796,-4.5133,-4.5498,-4.5594,-4.5518,-4.5152,-4.5056,-4.5056,-4.5056,-4.4796,-4.4456,-4.414,-4.4032,-4.3801,-4.3123,-4.3276,-4.3404,-4.3039,-4.3002,-4.2873,-4.2543,-4.2782,-4.2708,-4.1901,-4.1093,-4.0414,-3.9937,-3.9184,-3.8707,-3.8707,-3.8707,-3.8707,-3.8707,-3.8707,-3.8707,-3.8707,-3.8707,-3.8707,-3.8707,-3.8707,-3.8998,-3.9599,-3.9599,-3.9905,-4.0496,-4.0496,-4.0496,-4.5637,-4.5594,-4.5594,-4.5594,-4.5594,-4.5594,-4.5594,-4.568,-4.5761,-4.579,-4.5924,0.0,0.0,0.0,-4.6308,-4.6308,0.0,-4.6268,-4.6173,-4.6001,-4.6119,-4.6741,-4.6684,-4.6622,-4.6667,-4.6641,-4.6251,-4.5364,-4.4987,-4.4556,-4.4028,-4.3756,-4.3597,-4.3496,-4.3515,-4.3515,-4.3515,-4.3515,-4.3515,-4.3515,-4.4256,-4.4593,-4.4618,-4.5283,-4.5594,-4.5594,-4.5594,-4.5594,-4.5594,-4.5594,-4.5594,-4.5594,-4.5594,-4.5594,-4.5594,-4.5594,-4.5594,-4.5594,-4.5594,-4.5594,-4.5531,-4.5211,-4.5332,-4.555,-4.5201,-4.5332,-4.5594,-4.5594,-4.5594,-4.5577,-4.5495,-4.5457,-4.5438,-4.5352,-4.514,-4.4872,-4.4514,-4.4204,-4.3912,-4.3582,-4.3515,-4.3515,-4.3515,-4.3515,-4.3515,-4.3515,-4.3515,-4.3277,-4.269,-4.1735,-4.0875,-4.0286,-3.9313,-3.8707,-3.8707,-3.8707,-3.8707,-3.8707,-3.8707,-3.8707,-3.8707,-3.8707,-3.8707,-3.8707,-3.8777,-3.9073,-3.9599,-3.9679,-3.9994,-4.0496,-4.0496,-4.0496,-4.5594,-4.5594,-4.5594,-4.5594,-4.5594,-4.5594,-4.5594,-4.5594,-4.5643,-4.5763,-4.585,-4.5959,-4.6077,-4.6202,-4.6308,-4.6308,-4.6308,0.0,0.0,-4.6075,-4.5896,-4.5848,-4.5835,-4.5835,-4.5835,-4.5894,-4.5759,-4.5332,-4.528,-4.49,-4.4058,-4.4001,-4.3852,-4.3496,-4.3515,-4.3515,-4.3515,-4.3515,-4.3515,-4.3515,-4.4256,-4.4593,-4.4618,-4.5283,-4.5594,-4.5594,-4.5594,-4.5594,-4.5594,-4.5594,-4.5594,-4.5594,-4.5594,-4.5594,-4.5594,-4.5594,-4.5594,-4.5594,-4.5594,-4.5594,-4.5531,-4.5211,-4.5332,-4.555,-4.5201,-4.5332,-4.5594,-4.5594,-4.5594,-4.5541,-4.5201,-4.5107,-4.5041,-4.4707,-4.4618,-4.4514,-4.4121,-4.4016,-4.3912,-4.3582,-4.3515,-4.3515,-4.3515,-4.3515,-4.3515,-4.3515,-4.3515,-4.3496,-4.346,-4.2084,-4.1095,-4.1058,-3.9643,-3.8707,-3.8707,-3.8707,-3.8707,-3.8707,-3.8707,-3.8707,-3.8707,-3.8707,-3.8707,-3.8707,-3.8961,-3.9269,-3.9599,-3.9922,-4.0223,-4.0496,-4.0496,-4.0496,-4.5594,-4.5594,-4.5594,-4.5594,-4.5594,-4.5594,-4.5594,-4.5594,-4.5612,-4.5648,-4.5763,-4.585,-4.5955,-4.608,-4.62,-4.6289,-4.6308,-4.6246,0.0,-4.5845,-4.5684,-4.5673,-4.5747,-4.5828,-4.5866,-4.5896,-4.5847,-4.5708,-4.5441,-4.5042,-4.4428,-4.4132,-4.3849,-4.3496,-4.3515,-4.3515,-4.3515,-4.3515,-4.3515,-4.3515,-4.4256,-4.4593,-4.4618,-4.5283,-4.5594,-4.5594,-4.5594,-4.5594,-4.5594,-4.5594,-4.5594,-4.5594,-4.5594,-4.5457,-4.5302,-4.5513,-4.5594,-4.5594,-4.5594,-4.5594,-4.5531,-4.5211,-4.5332,-4.555,-4.5201,-4.5332,-4.5594,-4.5594,-4.5594,-4.5577,-4.5448,-4.5429,-4.5342,-4.5,-4.4745,-4.4487,-4.4106,-4.3836,-4.3629,-4.3513,-4.3515,-4.3515,-4.3515,-4.3515,-4.3515,-4.3515,-4.3515,-4.3515,-4.3515,-4.2103,-4.1095,-4.1095,-3.9646,-3.8707,-3.8707,-3.8707,-3.8707,-3.8707,-3.8707,-3.8707,-3.8707,-3.8707,-3.8707,-3.8707,-3.8788,-3.9087,-3.9599,-3.9701,-4.0014,-4.0496,-4.0496,-4.0496,-4.5594,-4.5594,-4.5594,-4.5594,-4.5594,-4.5594,-4.5594,-4.5594,-4.5594,-4.5594,-4.5708,-4.5815,-4.5855,-4.5952,-4.6077,-4.6202,-4.6198,-4.608,0.0,-4.5757,-4.5673,-4.5673,-4.5764,-4.5845,-4.5894,-4.5988,-4.5998,-4.5907,-4.5653,-4.5252,-4.4625,-4.4346,-4.3986,-4.3513,-4.3515,-4.3515,-4.3515,-4.3515,-4.3515,-4.3515,-4.4256,-4.4593,-4.4618,-4.5283,-4.5594,-4.5594,-4.5594,-4.5594,-4.5594,-4.5594,-4.5594,-4.5586,-4.5476,-4.5302,-4.5129,-4.5485,-4.5522,-4.541,-4.5302,-4.5332,-4.5362,-4.5041,-4.514,-4.5371,-4.5169,-4.5243,-4.5438,-4.5568,-4.5594,-4.555,-4.5312,-4.5243,-4.511,-4.4638,-4.4455,-4.4276,-4.3912,-4.3758,-4.3646,-4.3513,-4.3515,-4.3515,-4.3515,-4.3515,-4.3515,-4.3515,-4.3515,-4.3387,-4.3112,-4.2176,-4.1313,-4.0728,-3.9753,-3.9019,-3.8726,-3.8707,-3.8707,-3.8707,-3.8707,-3.8836,-3.9111,-3.9129,-3.9258,-3.9536,-3.9672,-3.983,-4.004,-4.0155,-4.0319,-4.0496,-4.0496,-4.0669]},{"header":{"parameterUnit":"m.s-1","parameterCategory":1,"la1":30.6,"la2":29.2853,"lo1":-89.7004,"lo2":-87.6739,"dy":0.0162,"dx":0.0183,"nx":112,"ny":82,"refTime":"2024-05-23T06:00:00:Z","depth":0,"parameterNumber":3,"parameterNumberName":"V-component_of_WINDS"},"data":[0.0,0.0,0.0,0.0,0.0,0.0,0.0,0.0,0.0,0.0,0.0,0.0,0.0,0.0,0.0,0.0,0.0,0.0,0.0,0.0,0.0,0.0,0.0,0.0,0.0,0.0,0.0,0.0,0.0,0.0,0.0,0.0,0.0,0.0,0.0,0.0,0.0,0.0,0.0,0.0,0.0,0.0,0.0,0.0,0.0,0.0,0.0,0.0,0.0,0.0,0.0,0.0,0.0,0.0,0.0,0.0,0.0,0.0,0.0,0.0,0.0,0.0,0.0,0.0,0.0,0.0,0.0,0.0,0.0,0.0,0.0,0.0,0.0,0.0,0.0,0.0,0.0,0.0,0.0,0.0,0.0,0.0,0.0,0.0,0.0,0.0,0.0,0.0,0.0,0.0,1.175,1.1361,0.6942,0.4016,0.4016,-0.0902,-0.4016,-0.4016,0.0,0.0,0.0,0.0,0.0,0.0,0.0,0.0,0.0,0.0,0.0,0.0,0.0,0.0,0.0,0.0,0.0,0.0,0.0,0.0,0.0,0.0,0.0,0.0,0.0,0.0,0.0,0.0,0.0,0.0,0.0,0.0,0.0,0.0,0.0,0.0,0.0,0.0,0.0,0.0,0.0,0.0,0.0,0.0,0.0,0.0,0.0,0.0,0.0,0.0,0.0,0.0,0.0,0.0,0.0,0.0,0.0,0.0,0.0,0.0,0.0,0.0,0.0,0.0,0.0,0.0,0.0,0.0,0.0,0.0,0.0,0.0,0.0,0.0,0.0,0.0,0.0,0.0,0.0,0.0,0.0,0.0,0.0,0.0,0.0,0.0,0.0,0.0,0.0,0.0,0.0,0.0,0.0,0.0,0.0,0.0,0.0,0.0,0.0,0.0,0.0,0.0,0.0,0.0,1.1068,0.8825,0.5817,0.4016,0.4016,-0.0902,-0.4016,-0.4016,0.0,0.0,0.0,0.0,0.0,0.0,0.0,0.0,0.0,0.0,0.0,0.0,0.0,0.0,0.0,0.0,0.0,0.0,0.0,0.0,0.0,0.0,0.0,0.0,0.0,0.0,0.0,0.0,0.0,0.0,0.0,0.0,0.0,0.0,0.0,0.0,0.0,0.0,0.0,0.0,0.0,0.0,0.0,0.0,0.0,0.0,0.0,0.0,0.0,0.0,0.0,0.0,0.0,0.0,0.0,0.0,0.0,0.0,0.0,0.0,0.0,0.0,0.0,0.0,0.0,0.0,0.0,0.0,0.0,0.0,0.0,0.0,0.0,0.0,0.0,0.0,0.0,0.0,0.0,0.0,0.0,0.0,0.0,0.0,0.0,0.0,0.0,0.0,0.0,0.0,0.0,0.0,0.0,0.0,0.0,0.0,0.0,0.0,0.0,0.0,0.0,0.0,0.0,1.0877,1.0145,0.8187,0.562,0.4016,0.4016,-0.0251,-0.3215,-0.3966,-0.7279,0.0,0.0,0.0,0.0,0.0,0.0,0.0,0.0,0.0,0.0,0.0,0.0,0.0,0.0,0.0,0.0,0.0,0.0,0.0,0.0,0.0,0.0,0.0,0.0,0.0,0.0,0.0,0.0,0.0,0.0,0.0,0.0,0.0,0.0,0.0,0.0,0.0,0.0,0.0,0.0,0.0,0.0,0.0,0.0,0.0,0.0,0.0,0.0,0.0,0.0,0.0,0.0,0.0,0.0,0.0,0.0,0.0,0.0,0.0,0.0,0.0,0.0,0.0,0.0,0.0,0.0,0.0,0.0,0.0,0.0,0.0,0.0,0.0,0.0,0.0,0.0,0.0,0.0,0.0,0.0,0.0,0.0,0.0,0.0,0.0,0.0,0.0,0.0,0.0,0.0,0.0,0.0,0.0,0.0,0.0,0.0,0.0,0.0,0.0,0.0,0.0,0.0,0.9998,0.9509,0.8137,0.562,0.4016,0.4016,0.03,-0.2548,-0.3891,-0.6037,0.0,0.0,0.0,0.0,0.0,0.0,0.0,0.0,0.0,0.0,0.0,0.0,0.0,0.0,0.0,0.0,0.0,0.0,0.0,0.0,0.0,0.0,0.0,0.0,0.0,0.0,0.0,0.0,0.0,0.0,0.0,0.0,0.0,0.0,0.0,0.0,0.0,0.0,0.0,0.0,0.0,0.0,0.0,0.0,0.0,0.0,0.0,0.0,0.0,0.0,0.0,0.0,0.0,0.0,0.0,0.0,0.0,0.0,0.0,0.0,0.0,0.0,0.0,0.0,0.0,0.0,0.0,0.0,0.0,0.0,0.0,0.0,0.0,0.0,0.0,0.0,0.0,0.0,0.0,0.0,0.0,0.0,0.0,0.0,0.0,0.0,0.0,0.0,0.0,0.0,0.0,0.0,0.0,0.0,0.0,0.0,0.0,0.0,0.0,0.0,0.0,0.0,0.9998,0.9509,0.8137,0.562,0.4016,0.4016,0.0296,-0.2498,-0.3722,-0.6013,0.0,0.0,0.0,0.0,0.0,0.0,0.0,0.0,0.0,0.0,0.0,0.0,0.0,0.0,0.0,0.0,0.0,0.0,0.0,0.0,0.0,0.0,0.0,0.0,0.0,0.0,0.0,0.0,0.0,0.0,0.0,0.0,0.0,0.0,0.0,0.0,0.0,0.0,0.0,0.0,0.0,0.0,0.0,0.0,0.0,0.0,0.0,0.0,0.0,0.0,0.0,0.0,0.0,0.0,0.0,0.0,0.0,0.0,0.0,0.0,0.0,0.0,0.0,0.0,0.0,0.0,0.0,0.0,0.0,0.0,0.0,0.0,0.0,0.0,0.0,0.0,0.0,0.0,0.0,0.0,0.0,0.0,0.0,0.0,0.0,0.0,0.0,0.0,0.0,0.0,0.0,0.0,0.0,0.0,0.0,0.0,0.0,0.0,0.0,0.0,0.0,0.0,0.8775,0.8577,0.8038,0.562,0.4016,0.4016,0.11,-0.1636,-0.3668,0.0,0.0,0.0,0.0,0.0,0.0,0.0,0.0,0.0,0.0,0.0,0.0,0.0,0.0,0.0,0.0,0.0,0.0,0.0,0.0,0.0,0.0,0.0,0.0,0.0,0.0,0.0,0.0,0.0,0.0,0.0,0.0,0.0,0.0,0.0,0.0,0.0,0.0,0.0,0.0,0.0,0.0,0.0,0.0,0.0,0.0,0.0,0.0,0.0,0.0,0.0,0.0,0.0,0.0,0.0,0.0,0.0,0.0,0.0,0.0,0.0,0.0,0.0,0.0,0.0,0.0,0.0,0.0,0.0,0.0,0.0,0.0,0.0,0.0,0.0,0.0,0.0,0.0,0.0,0.0,0.0,0.0,0.0,0.0,0.0,0.0,0.0,0.0,0.0,0.0,0.0,0.0,0.0,0.0,0.0,0.0,0.0,0.0,0.0,0.0,0.0,0.0,0.7054,0.776,0.7988,0.7988,0.562,0.4016,0.4016,0.1552,-0.0893,-0.3009,0.0,0.0,0.0,0.0,0.0,0.0,0.0,0.0,0.0,0.0,0.0,0.0,0.0,0.0,0.0,0.0,0.0,0.0,0.0,0.0,0.0,0.0,0.0,0.0,0.0,0.0,0.0,0.0,0.0,0.0,0.0,0.0,0.0,0.0,0.0,0.0,0.0,0.0,0.0,0.0,0.0,0.0,0.0,0.0,0.0,0.0,0.0,0.0,0.0,0.0,0.0,0.0,0.0,0.0,0.0,0.0,0.0,0.0,0.0,0.0,0.0,0.0,0.0,0.0,0.0,0.0,0.0,0.0,0.0,0.0,0.0,0.0,0.0,0.0,0.0,0.0,0.0,0.0,0.0,0.0,0.0,0.0,0.0,0.0,0.0,0.0,0.0,0.0,0.0,0.0,0.0,0.0,0.0,0.0,0.0,0.0,0.0,0.0,0.0,0.0,0.0,0.0,0.5846,0.715,0.7988,0.7988,0.562,0.4016,0.4016,0.1534,-0.0486,0.0,0.0,0.0,0.0,0.0,0.0,0.0,0.0,0.0,0.0,0.0,0.0,0.0,0.0,0.0,0.0,0.0,0.0,0.0,0.0,0.0,0.0,0.0,0.0,0.0,0.0,0.0,0.0,0.0,0.0,0.0,0.0,0.0,0.0,0.0,0.0,0.0,0.0,0.0,0.0,0.0,0.0,0.0,0.0,0.0,0.0,0.0,0.0,0.0,0.0,0.0,0.0,0.0,0.0,0.0,0.0,0.0,0.0,0.0,0.0,0.0,0.0,0.0,0.0,0.0,0.0,0.0,0.0,0.0,0.0,0.0,0.0,0.0,0.0,0.0,0.0,0.0,0.0,0.0,0.0,0.0,0.0,0.0,0.0,0.0,0.0,0.0,0.0,0.0,0.0,0.0,0.0,0.0,0.0,0.0,0.0,0.0,0.0,0.0,0.0,0.0,0.0,0.0,0.5835,0.715,0.7988,0.7988,0.6429,0.5022,0.4066,0.2422,0.0483,-0.1681,0.0,0.0,0.0,0.0,0.0,0.0,0.0,0.0,0.0,0.0,0.0,0.0,0.0,0.0,0.0,0.0,0.0,0.0,0.0,0.0,0.0,0.0,0.0,0.0,0.0,0.0,0.0,0.0,0.0,0.0,0.0,0.0,0.0,0.0,0.0,0.0,0.0,0.0,0.0,0.0,0.0,0.0,0.0,0.0,0.0,0.0,0.0,0.0,0.0,0.0,0.0,0.0,0.0,0.0,0.0,0.0,0.0,0.0,0.0,0.0,0.0,0.0,0.0,0.0,0.0,0.0,0.0,0.0,0.0,0.0,0.0,0.0,0.0,0.0,0.0,0.0,0.0,0.0,0.0,0.0,0.0,0.0,0.0,0.0,0.0,0.0,0.0,0.0,0.0,0.0,0.0,0.0,0.0,0.0,0.0,0.0,0.0,0.0,0.0,0.0,0.0,0.0,0.4279,0.5596,0.6424,0.642,0.5222,0.4057,0.3281,0.1969,0.0528,-0.1008,0.0,0.0,0.0,0.0,0.0,0.0,0.0,0.0,0.0,0.0,0.0,0.0,0.0,0.0,0.0,0.0,0.0,0.0,0.0,0.0,0.0,0.0,0.0,0.0,0.0,0.0,0.0,0.0,0.0,0.0,0.0,0.0,0.0,0.0,0.0,0.0,0.0,0.0,0.0,0.0,0.0,0.0,0.0,0.0,0.0,0.0,0.0,0.0,0.0,0.0,0.0,0.0,0.0,0.0,0.0,0.0,0.0,0.0,0.0,0.0,0.0,0.0,0.0,0.0,0.0,0.0,0.0,0.0,0.0,0.0,0.0,0.0,0.0,0.0,0.0,0.0,0.0,0.0,0.0,0.0,0.0,0.0,0.0,0.0,0.0,0.0,0.0,0.0,0.0,0.0,0.0,0.0,0.0,0.0,0.0,0.0,0.0,0.0,0.0,0.0,0.0,0.0,0.1983,0.3182,0.4023,0.3988,0.2901,0.2187,0.2149,0.0927,0.0191,0.018,0.0,0.0,0.0,0.0,0.0,0.0,0.0,0.0,0.0,0.0,0.0,0.0,0.0,0.0,0.0,0.0,0.0,0.0,0.0,0.0,0.0,0.0,0.0,0.0,0.0,0.0,0.0,0.0,0.0,0.0,0.0,0.0,0.0,0.0,0.0,0.0,0.0,0.0,0.0,0.0,0.0,0.0,0.0,0.0,0.0,0.0,0.0,0.0,0.0,0.0,0.0,0.0,0.0,0.0,0.0,0.0,0.0,0.0,0.0,0.0,-0.0303,-0.1008,0.0,0.0,0.0,0.0,0.0,0.0,0.0,0.0,0.0,0.0,0.0,0.0,0.0,0.0,0.0,0.0,0.0,0.0,0.0,0.0,0.0,0.0,0.0,0.0,0.0,0.0,0.0,0.0,0.0,0.0,0.0,0.0,0.0,0.0,0.0,0.0,0.0,0.0,0.0,0.0,0.1988,0.3165,0.4019,0.3987,0.3749,0.3551,0.344,0.2263,0.1515,0.1401,-0.0515,0.0,0.0,0.0,0.0,0.0,0.0,0.0,0.0,0.0,0.0,0.0,0.0,0.0,0.0,0.0,0.0,0.0,0.0,0.0,0.0,0.0,0.0,0.0,0.0,0.0,0.0,0.0,0.0,0.0,0.0,0.0,0.0,0.0,0.0,0.0,0.0,0.0,0.0,0.0,0.0,0.0,0.0,0.0,0.0,0.0,0.0,0.0,0.0,0.0,0.0,0.0,0.0,0.0,0.0,0.0,0.0,0.0,0.0,0.0,0.0,-0.0404,0.0,0.0,0.0,0.0,0.0,0.0,0.0,0.0,0.0,0.0,0.0,0.0,0.0,0.0,0.0,0.0,0.0,0.0,0.0,0.0,0.0,0.0,0.0,0.0,0.0,0.0,0.0,0.0,0.0,0.0,0.0,0.0,0.0,0.0,0.0,0.0,0.0,0.0,0.0,0.0,0.1056,0.163,0.2304,0.2896,0.2946,0.317,0.3652,0.2598,0.1852,0.1798,0.0127,0.0,0.0,0.0,0.0,0.0,0.0,0.0,0.0,0.0,0.0,0.0,0.0,0.0,0.0,0.0,0.0,0.0,0.0,0.0,0.0,0.0,0.0,0.0,0.0,0.0,0.0,0.0,0.0,0.0,0.0,0.0,0.0,0.0,0.0,0.0,0.0,0.0,0.0,0.0,0.0,0.0,0.0,0.0,0.0,0.0,0.0,0.0,0.0,0.0,0.0,0.0,0.0,0.0,0.3632,0.2283,0.2121,0.0674,0.0,0.0,0.0,0.0,-0.0101,-0.1209,0.0,0.0,0.0,0.0,0.0,0.0,0.0,0.0,0.0,0.0,0.0,0.0,0.0,0.0,0.0,0.0,0.0,0.0,0.0,0.0,0.0,0.0,0.0,0.0,0.0,-0.0295,-0.1255,0.0,0.0,0.0,0.0,0.0,0.0,0.0,0.0,0.0,0.0,0.0,0.0,0.0,0.0371,0.1364,0.1695,0.2197,0.3212,0.2377,0.1784,0.181,0.067,-0.0411,0.0,0.0,0.0,0.0,0.0,0.0,0.0,0.0,0.0,0.0,0.0,0.0,0.0,0.0,0.0,0.0,0.0,0.0,0.0,0.0,0.0,0.0,0.0,0.0,0.0,0.0,0.0,0.0,0.0,0.0,0.0,0.0,1.2856,1.0087,0.0,0.0,0.0,0.0,0.0,0.0,0.0,0.0,0.0,0.0,0.0,0.0,0.0,0.831,0.8241,0.8205,0.7534,0.6283,0.4703,0.3252,0.1966,0.0622,0.0,0.0,0.0,0.0,0.0,-0.0202,0.0,0.0,0.0,0.0,0.0,0.0,0.0,0.0,0.0,0.0,0.0,0.0,0.0,0.0,0.0,0.0,0.0,0.0,0.0,0.0,0.0,0.0,0.0,0.0,0.0,-0.005,-0.0201,-0.1073,-0.1796,-0.1847,-0.2627,-0.3236,0.0,0.0,0.0,0.0,0.0,0.0,0.0,0.0,0.0045,0.0226,0.1175,0.1848,0.2022,0.1899,0.1814,0.1806,0.066,-0.0081,-0.0197,-0.0922,0.0,0.0,0.0,0.0,0.0,0.0,0.0,0.0,0.0,0.0,0.0,0.0,0.0,0.0,0.0,0.0,0.0,0.0,0.0,0.0,0.0,0.0,0.0,0.0,0.0,0.0,0.0,0.0,0.0,1.4098,1.3642,1.2344,1.1707,1.0753,0.0,0.0,0.0,0.0,0.0,0.0,0.0,0.0,0.0,0.8286,0.8353,0.8387,0.8387,0.8452,0.8206,0.7636,0.6124,0.5069,0.4454,0.296,0.1844,0.1109,0.1109,0.0706,0.0,0.0,0.0,-0.005,0.0,0.0,0.0,0.0,-0.0502,0.0,0.0,0.0,-0.0098,-0.0632,0.0,0.0,0.0,0.0,0.0,0.0,0.0,0.0,0.0,0.0,0.0,0.0,0.0,0.0,0.0,-0.0399,-0.0783,-0.072,-0.1091,-0.1442,-0.1381,-0.1009,0.0,0.0,0.0,0.0,0.0,0.0,0.0269,0.0942,0.1478,0.2093,0.2771,0.2178,0.1793,0.1814,0.0653,0.0,0.0,-0.035,-0.0892,0.0,0.0,0.0,0.0,0.0,0.0,0.0,0.0,0.0,0.0,0.0,0.0,0.0,0.0,0.0,0.0,0.0,0.0,0.0,0.0,0.0,0.0,0.0,0.0,0.0,0.0,0.0,0.0,1.5238,1.4564,1.3956,1.338,1.2374,0.0,0.0,0.0,0.0,0.0,0.0,0.8371,0.8378,0.8374,0.8479,0.852,0.854,0.854,0.8577,0.8438,0.816,0.6941,0.6174,0.5879,0.4579,0.3477,0.2514,0.2163,0.1411,0.0504,0.0151,0.0,0.0,0.0,0.0,0.0,0.0,0.0,0.0,0.0,0.0,0.0,0.0,0.0,0.0,0.0,0.0,0.0,0.0,0.0,0.0,0.0,0.0,0.0,0.0,0.0,0.0,0.0,0.0,0.0,0.0,0.0,0.0,0.0,0.0,0.0,0.0,0.0,0.0,0.0,0.0,0.0359,0.1254,0.1612,0.2045,0.2626,0.2119,0.1653,0.1352,0.0487,0.0,0.0,0.0,-0.0392,-0.1176,0.0,0.0,0.0,0.0,0.0,0.0,0.0,0.0,0.0,0.0,0.0,0.0,0.0,0.0,0.0,0.0,0.0,0.0,0.0,0.0,0.0,0.0,0.0,0.0,0.0,0.0,0.0,0.0,0.0,1.41,1.4368,0.0,0.0,0.0,0.0,1.0668,1.0561,0.9952,0.8573,0.8472,0.8476,0.8482,0.8621,0.8699,0.8699,0.879,0.8192,0.6803,0.6577,0.5712,0.4293,0.4112,0.3985,0.3815,0.2564,0.1962,0.1812,0.0504,0.0,0.0,0.0,0.0,0.0,0.0,0.0,0.0,0.0,0.0,0.0,0.0,0.0,0.0,0.0,0.0,0.0,0.0,0.0,0.0,0.0,0.0,0.0,0.0,0.0,0.0,0.0,0.0,0.0,0.0,0.0,0.0,0.0,0.0,0.0,0.0,0.0,0.0,0.0,0.0,0.0045,0.009,0.1121,0.1343,0.0269,0.1164,0.1302,0.0168,0.004,0.0,0.0,0.0,-0.0039,-0.0079,-0.0897,0.0,0.0,0.0,0.0,0.0,0.0,0.0,0.0,0.0,0.0,0.0,0.0,0.0,0.0,0.0,0.0,0.0,0.0,0.0,0.0,0.0,0.0,0.0,0.0,0.0,0.0,0.0,0.0,1.5746,1.6074,0.0,1.4083,1.4033,1.316,1.085,1.0694,1.0076,0.8678,0.8628,0.8672,0.8774,0.8828,0.8804,0.8804,0.8854,0.8657,0.8097,0.7959,0.7603,0.6937,0.6817,0.6235,0.5222,0.3867,0.2815,0.1913,0.0555,0.0,0.0,0.0,0.0,0.0,0.0,0.0,0.0,0.0,0.0,0.0,0.0,0.0,0.0,0.0,0.0,0.0,0.0,0.0,0.0,0.0,0.0,0.0,0.0,0.0,0.0,0.0,0.0,0.0,0.0,0.0,0.0,0.0,0.0,0.0,0.0,0.0,0.0,0.0,0.0,0.0,0.0,0.0404,0.0446,0.0044,0.0385,0.046,0.0041,0.0,0.0,0.0,0.0,0.0,0.0,-0.0304,-0.0481,0.0,0.0,0.0,0.0,0.0,0.0,0.0,0.0,0.0,0.0,0.0,0.0,0.0,0.0,0.0,0.0,0.0,0.0,0.0,0.0,0.0,0.0,0.0,0.0,0.0,1.6613,1.682,1.6714,1.7054,1.6859,1.5732,1.5685,1.4797,1.2454,1.1825,1.0996,0.958,0.9052,0.8832,0.8878,0.8885,0.8885,0.8885,0.8885,0.8885,0.8881,0.8784,0.8659,0.8554,0.836,0.775,0.6693,0.5288,0.3917,0.2564,0.1209,0.0404,0.0,0.0,0.0,0.0,0.0,0.0,0.0,0.0,0.0,0.0,0.0,0.0,0.0,0.0,0.0,0.0,0.0,0.0,0.0,0.0,0.0,0.0,0.0,0.0,0.0,0.0,0.0,0.0,0.0,0.0,0.0,0.0,0.0,0.0,0.0,0.0,0.0,0.0,0.0,0.0,0.0,0.0,0.0,0.0,0.0,0.0,0.0,0.0,0.0,0.0,0.0,0.0,0.0,0.0345,0.071,0.1054,0.0,0.0,0.0,0.0,0.0,0.0,0.0,0.0,0.0,0.0,0.0,0.0,0.0,0.0,0.0,0.0,0.0,0.0,0.0,0.0,0.0,0.0,0.0,1.6348,1.6844,1.7099,1.6767,1.7235,1.7521,1.7239,1.7467,1.6988,1.5524,1.4126,1.2724,1.116,0.9754,0.8937,0.8885,0.8885,0.8885,0.8885,0.8885,0.8885,0.8881,0.8788,0.8713,0.8693,0.8408,0.8323,0.8204,0.6684,0.5272,0.3966,0.2614,0.126,0.005,0.0,0.0,0.0,0.0,0.0,0.0,0.0,0.0,0.0,0.0,0.0,0.0,0.0,0.0,0.0,0.0,0.0,0.0,0.0,0.0,0.0,0.0,0.0,0.0,0.0,0.0,0.0,0.0,0.0,0.0,0.0,0.0,0.0,0.0,0.0,0.0,0.0,0.0,0.0,0.0,0.0,0.0,0.0,0.0,0.0,0.0,0.0,0.0,0.0,0.0,0.0,0.0039,0.111,0.2126,0.309,0.0,0.0,0.0,0.0,0.0,0.0,0.0,0.0,0.0,0.0,0.0,0.0,0.0,0.0,0.0,0.0,0.0,0.0,0.0,0.0,0.0,1.6446,1.666,1.6931,1.7099,1.7246,1.7328,1.7482,1.7549,1.7521,1.7535,1.6988,1.5524,1.5037,1.375,1.1214,1.0726,1.0025,0.8937,0.8885,0.8885,0.8885,0.8885,0.8885,0.8885,0.8841,0.876,0.854,0.8462,0.8306,0.7999,0.6598,0.5777,0.5322,0.4017,0.2665,0.136,0.0404,0.0,0.0,0.0,0.0,0.0,0.0,0.0,0.0,0.0,0.0,0.0,0.0,0.0,0.0,0.0,0.0,0.0,0.0,0.0,0.0,0.0,0.0,0.0,0.0,0.0,0.0,0.0,0.0,0.0,0.0,0.0,0.0,0.0,0.0,0.0,0.0,0.0,0.0,0.0,0.0,0.0,0.0,0.0,0.0,0.0,0.0,0.0,0.0,0.0,0.0351,0.1137,0.218,0.282,0.0,0.0,0.0,0.0,0.0,0.0,0.0,0.0,0.0,0.0,0.0,0.0,0.0,0.0,0.0,0.0,0.0,0.0,0.0,0.0,0.0,0.0,1.6831,1.7045,1.734,1.738,1.7447,1.7562,1.7582,1.7582,1.7582,1.7582,1.7259,1.6387,1.5737,1.4395,1.2132,1.1433,1.0402,0.8937,0.8885,0.8885,0.8885,0.8885,0.8885,0.8885,0.8817,0.875,0.8574,0.8452,0.8299,0.8083,0.721,0.6531,0.5929,0.5172,0.4067,0.2715,0.0,0.0,0.0,0.0,0.0,0.0,0.0,0.0,0.0,0.0,0.0,0.0,0.0,0.0,0.0,0.0,0.0,0.0,0.0,0.0,0.0,0.0,0.0,0.0,0.0,0.0,0.0,0.0,0.0,0.0,0.0,0.0,0.0,0.0,0.0,0.0,0.0,0.0,0.0,0.0,0.0,0.0,0.0,0.0431,0.0,0.0,0.0,0.1286,0.1313,0.1286,0.0,0.0,0.0,0.0,0.0,0.0,0.0,0.0,0.1792,0.1028,0.0,0.0,0.0,0.0,0.0,0.0,0.0,0.0,0.0,0.0,0.0,0.0,0.0,0.0,0.0,0.0,1.7199,1.73,1.7542,1.7582,1.7582,1.7582,1.7582,1.7582,1.7582,1.7582,1.7582,1.7582,1.6387,1.4936,1.3372,1.2077,0.0,0.0,0.0,0.8885,0.8885,0.8885,0.8885,0.8881,0.8784,0.8703,0.8676,0.8397,0.8313,0.8238,0.8099,0.7335,0.6232,0.6232,0.5322,0.3865,0.2514,0.1159,0.0,0.0,0.0,0.0,0.0,0.0,0.0,0.0,0.0,0.0,0.0,0.0101,0.0151,0.005,0.0099,0.0196,0.0049,0.0,0.0,0.0,0.0,0.0,0.0,0.0,0.0,0.0,0.0,0.0,0.0,0.0,0.0,0.0,0.0,0.0,0.0,0.0,0.0,0.0,0.0,0.0,0.0179,0.1032,0.1632,0.1753,0.2603,0.3095,0.3109,0.3205,0.371,0.4691,0.4829,0.5354,0.63,0.63,0.5246,0.3256,0.2249,0.1123,0.0,0.0,0.0,0.0,0.0,0.0,0.0,0.0,0.0,0.0,0.0,0.0,0.0,0.0,0.0,1.6934,1.7199,1.73,1.7542,1.7582,1.7582,1.7582,1.7582,1.7582,1.7582,1.7582,1.7582,1.7582,1.7364,1.6068,1.3426,1.3048,1.1647,0.8992,0.8885,0.8885,0.8885,0.8885,0.8885,0.8881,0.8784,0.0,0.852,0.8347,0.8204,0.8032,0.8002,0.7839,0.7637,0.7637,0.6174,0.3865,0.2514,0.1159,0.0,0.0,0.0,0.0,0.0,0.0,0.0,0.0,0.0,0.0,0.0,0.0699,0.0,0.0296,0.0681,0.1245,0.024,0.0,0.0,0.0,0.0,0.0,0.0,0.0,0.0,0.0,0.0,0.0,0.0,0.0,0.0,0.0,0.0,0.0,0.0,0.0,0.0,0.0,0.0,0.0357,0.1224,0.149,0.1954,0.2773,0.2975,0.3117,0.3103,0.3934,0.4482,0.4694,0.5538,0.6103,0.63,0.63,0.5647,0.4381,0.3311,0.181,0.0,0.0,0.0,0.0,0.0,0.0,0.0,0.0,0.0,0.0,0.0,1.4601,1.4737,0.0,1.6285,1.7263,1.742,1.7467,1.7562,1.7582,1.7582,1.7582,1.7582,1.7582,1.7582,1.7582,1.7582,1.7582,1.7582,1.634,1.3426,1.3318,1.1973,0.8992,0.8885,0.8885,0.8885,0.8885,0.8885,0.8881,0.8706,0.8557,0.8476,0.8255,0.8113,0.7988,0.7988,0.7988,0.7988,0.7988,0.683,0.487,0.3516,0.1762,0.0,0.0,0.0,0.0,0.0,0.0,0.0,0.0,0.0,0.0,0.0,0.0439,0.0773,0.0193,0.0429,0.0751,0.0141,0.0,0.0,0.0,0.0,0.0,0.0,0.0,0.0,0.0,0.0,0.0,0.0,0.0,0.0,0.0,0.0,0.0,0.0,0.0,0.0224,0.0751,0.0794,0.1224,0.2262,0.2837,0.3587,0.4619,0.4719,0.4688,0.4688,0.5198,0.5512,0.5512,0.6025,0.63,0.63,0.63,0.5743,0.4693,0.4236,0.2836,0.0,0.0,0.0,0.0,0.0,0.0,0.0,1.4004,1.4544,1.3745,1.5352,1.6636,1.5823,1.6645,1.7541,1.7722,1.7709,1.7669,1.7669,1.7622,1.7582,1.7582,1.7582,1.7582,1.7582,1.7582,1.7582,1.7582,1.7582,1.634,1.3426,1.3318,1.1973,0.8992,0.8885,0.8885,0.8885,0.8885,0.8885,0.8878,0.8628,0.8482,0.8472,0.8174,0.7988,0.7988,0.7988,0.7988,0.7988,0.7988,0.7235,0.5879,0.482,0.2916,0.0706,0.0202,0.0,0.0,0.0,0.0,0.0,0.0,0.0,0.0,0.0,0.0143,0.0284,0.0047,0.0187,0.0276,0.0046,0.0,0.0,0.0,0.0,0.0,0.0,0.0,0.0,0.0,0.0,0.009,0.0314,0.0359,0.0269,0.0045,0.0,0.009,0.0314,0.0313,0.0709,0.1823,0.1899,0.2303,0.3335,0.4398,0.5385,0.6229,0.63,0.63,0.63,0.63,0.63,0.63,0.63,0.63,0.63,0.63,0.5867,0.5007,0.492,0.3848,1.8509,1.8064,1.6987,1.5852,1.5682,1.583,0.0,1.6163,1.641,1.6293,1.6909,1.7443,1.7364,1.7868,1.835,1.8384,1.817,1.7942,1.7942,1.7756,1.7582,1.7582,1.7582,1.7582,1.7582,1.7582,1.7582,1.7582,1.7582,1.634,1.3426,1.3318,1.1973,0.8992,0.8885,0.8885,0.8885,0.8885,0.8885,0.8878,0.8628,0.8482,0.8472,0.8174,0.7988,0.7988,0.7988,0.7988,0.7988,0.7988,0.7235,0.5979,0.5827,0.4872,0.3265,0.0857,0.0,0.0,0.0,0.0,0.0,0.0,0.0,0.0,0.0,0.0753,0.1391,0.0325,0.0776,0.1348,0.027,0.0,0.0,0.0,0.0,0.0,0.0,0.0,0.0,0.0,0.0,0.0359,0.1433,0.1612,0.1254,0.018,0.0,0.0404,0.1478,0.1497,0.1868,0.2989,0.3021,0.3373,0.4437,0.5492,0.6158,0.63,0.63,0.63,0.63,0.63,0.63,0.63,0.63,0.63,0.63,0.63,0.6219,0.6109,0.5292,0.4279,1.912,1.9131,1.8449,1.7217,1.6996,1.7005,1.6637,1.662,1.6807,1.7141,1.7542,1.7836,1.7849,1.8203,1.849,1.849,1.8237,1.7995,1.7995,1.7776,1.7582,1.7582,1.7742,1.7856,1.7856,1.7689,1.7729,1.8083,1.7782,1.6787,1.4924,1.3823,1.2349,1.0241,0.9375,0.8885,0.8885,0.8885,0.8885,0.8878,0.8628,0.8482,0.8472,0.8174,0.7988,0.7988,0.7988,0.7988,0.7988,0.7988,0.7686,0.7083,0.6282,0.5677,0.4822,0.2164,0.1159,0.1055,0.0247,0.0,0.0,0.0,0.0,0.0,0.0,0.0366,0.0636,0.0136,0.0362,0.0628,0.0135,0.0539,0.1031,0.1031,0.1567,0.1924,0.121,0.1031,0.0852,0.0135,0.0584,0.121,0.1701,0.237,0.2458,0.121,0.1657,0.2013,0.1835,0.2283,0.3001,0.401,0.4611,0.5132,0.5598,0.6058,0.63,0.63,0.63,0.63,0.63,0.63,0.63,0.63,0.63,0.63,0.63,0.63,0.63,0.6303,0.5987,0.5662,1.9686,1.9988,1.9633,1.8095,1.7759,1.7622,1.6783,1.6714,1.6846,1.6892,1.7489,1.7887,1.7585,1.8439,1.9223,1.9361,1.9064,1.8836,1.8754,1.8164,1.7709,1.7709,1.7856,1.8055,1.8215,1.7936,1.7889,1.8337,1.7883,1.7072,1.5856,1.4223,1.2615,1.116,0.9644,0.8885,0.8885,0.8885,0.8885,0.8878,0.8628,0.8482,0.8472,0.8174,0.7988,0.7988,0.7988,0.7988,0.7988,0.7988,0.7988,0.7889,0.6933,0.6531,0.6279,0.3969,0.2865,0.2405,0.1421,0.0819,0.0522,0.0509,0.0273,0.0,0.0,0.0,0.009,0.0404,0.0494,0.0584,0.0897,0.1657,0.228,0.228,0.2948,0.326,0.2057,0.179,0.1433,0.0225,0.0986,0.1924,0.2236,0.3304,0.3796,0.2904,0.3794,0.4007,0.2395,0.3373,0.4437,0.5074,0.5849,0.63,0.63,0.63,0.63,0.63,0.63,0.63,0.63,0.63,0.63,0.63,0.63,0.63,0.63,0.63,0.63,0.6303,0.6446,0.6556,2.1248,2.1248,2.0657,1.8272,1.7876,1.7786,1.6565,1.6777,1.6768,1.5359,1.6655,1.7681,1.6579,1.8903,2.1126,2.1447,2.1223,2.0895,2.0636,1.9106,1.7975,1.7975,1.7989,1.8215,1.8844,1.8315,1.7989,1.8002,1.7762,1.6935,1.5482,1.4073,1.2615,1.116,0.9644,0.8885,0.8885,0.8885,0.8885,0.8878,0.8628,0.8482,0.8472,0.8174,0.7988,0.7988,0.7988,0.7988,0.7988,0.7988,0.7988,0.7988,0.7939,0.7939,0.7786,0.6381,0.5072,0.3896,0.3754,0.29,0.1939,0.1771,0.0942,0.0,0.0,0.0,0.0225,0.1433,0.1746,0.2013,0.317,0.3525,0.3525,0.3525,0.357,0.326,0.2057,0.179,0.1433,0.0225,0.0986,0.2191,0.3347,0.4552,0.5314,0.5314,0.6248,0.6069,0.3563,0.5085,0.6347,0.6242,0.6264,0.63,0.63,0.63,0.63,0.63,0.63,0.63,0.63,0.63,0.63,0.63,0.63,0.63,0.63,0.63,0.63,0.6303,0.6446,0.6556,2.2076,2.1889,2.0935,1.9314,1.8365,1.7334,1.5407,1.5245,1.5143,1.3942,1.4476,1.534,1.5916,1.804,2.0074,2.1115,2.116,2.1048,2.0991,1.9429,1.8343,1.8343,1.851,1.8711,1.8905,1.8571,1.8424,1.8555,1.8115,1.7668,1.7171,1.4704,1.3048,1.2566,1.0186,0.8885,0.8885,0.8885,0.8834,0.8784,0.8486,0.8289,0.8184,0.8035,0.7988,0.7988,0.7988,0.7988,0.7988,0.7988,0.7988,0.7988,0.7988,0.7988,0.7939,0.7487,0.703,0.6404,0.4588,0.3075,0.199,0.1937,0.1585,0.1031,0.0225,0.0539,0.1299,0.17,0.179,0.2057,0.3303,0.4194,0.4776,0.4776,0.5354,0.562,0.4421,0.4198,0.3842,0.2637,0.335,0.4332,0.4732,0.5758,0.6517,0.6517,0.5514,0.4947,0.5476,0.5484,0.5658,0.6236,0.63,0.63,0.63,0.63,0.63,0.63,0.63,0.63,0.63,0.63,0.63,0.63,0.63,0.63,0.63,0.63,0.63,0.6303,0.6351,0.6504,2.2457,2.2217,2.1025,1.9807,1.8241,1.648,1.4613,1.3977,1.3493,1.2245,1.2776,1.3762,1.4826,1.7428,1.9952,2.164,2.2339,2.2449,2.197,2.0486,1.923,1.87,1.8811,1.8965,1.9072,1.8818,1.8677,1.8764,1.8217,1.7883,1.7883,1.4973,1.3318,1.3318,1.0457,0.8885,0.8885,0.8885,0.8835,0.8625,0.8435,0.8238,0.7988,0.7988,0.7988,0.7988,0.7988,0.7988,0.7988,0.7988,0.7988,0.7988,0.7988,0.7988,0.7988,0.7988,0.7988,0.7766,0.5948,0.4508,0.3394,0.3303,0.2925,0.2349,0.1526,0.1835,0.2547,0.295,0.3084,0.335,0.455,0.5442,0.6027,0.6027,0.6561,0.6786,0.5625,0.5403,0.5033,0.3758,0.4458,0.5285,0.5247,0.6198,0.6957,0.7011,0.5341,0.4683,0.6453,0.5953,0.5647,0.6229,0.63,0.63,0.63,0.63,0.63,0.63,0.63,0.63,0.63,0.63,0.63,0.63,0.63,0.63,0.63,0.63,0.63,0.63,0.63,0.6429,2.2359,2.212,2.0935,1.9724,1.7509,1.5306,1.4058,1.2948,1.1773,1.0415,1.1531,1.2929,1.3414,1.7125,2.0847,2.302,2.4531,2.4933,2.3591,2.2104,2.0565,1.9088,1.8925,1.8968,1.9234,1.8994,1.8708,1.8373,1.7876,1.7602,1.7582,1.4883,1.3318,1.3318,1.0457,0.8885,0.8885,0.8868,0.8771,0.8482,0.8465,0.8313,0.7988,0.7988,0.7988,0.7988,0.7988,0.7988,0.7988,0.7988,0.7988,0.7988,0.7988,0.7988,0.7988,0.7988,0.7988,0.7968,0.7872,0.7036,0.597,0.5701,0.4842,0.3853,0.3638,0.3659,0.3927,0.509,0.5403,0.5669,0.6782,0.7095,0.7095,0.7095,0.7095,0.6782,0.5714,0.5492,0.5105,0.3743,0.4413,0.5155,0.5011,0.5957,0.6763,0.6866,0.58,0.5395,0.6557,0.6401,0.6219,0.63,0.63,0.63,0.63,0.63,0.63,0.63,0.63,0.63,0.63,0.63,0.63,0.63,0.63,0.63,0.63,0.63,0.63,0.63,0.63,0.6375,2.1346,2.089,1.9679,1.8457,1.6236,1.4004,1.2716,1.0798,0.9178,0.8864,0.9406,1.0584,1.2722,1.7211,2.1178,2.2778,2.4637,2.5394,2.3911,2.2408,2.0819,1.9115,1.8925,1.8398,1.7209,1.7753,1.7786,1.6643,1.7395,1.7829,1.7595,1.4883,1.3318,1.3318,1.0457,0.8885,0.8885,0.8713,0.856,0.8479,0.8258,0.8062,0.7988,0.7988,0.7988,0.7988,0.7988,0.7988,0.7988,0.7988,0.7988,0.7988,0.7988,0.7988,0.7988,0.7988,0.7988,0.7985,0.7944,0.7116,0.5983,0.579,0.5454,0.4956,0.3907,0.4241,0.5001,0.5314,0.5403,0.5669,0.6782,0.7095,0.7095,0.7095,0.7095,0.7007,0.6738,0.665,0.6552,0.6204,0.6297,0.6438,0.6403,0.6655,0.6839,0.6879,0.6512,0.6366,0.6654,0.5753,0.5434,0.6222,0.63,0.63,0.63,0.63,0.63,0.63,0.63,0.63,0.63,0.63,0.63,0.63,0.63,0.63,0.63,0.63,0.63,0.63,0.63,0.6375,2.098,2.044,1.9077,1.7267,1.4905,1.2668,1.1361,0.9516,0.8136,0.8163,0.8488,0.9576,1.2415,1.5997,1.9287,2.1578,2.3536,2.4357,2.3015,2.2145,2.0914,1.9122,1.8925,1.822,1.6496,1.7308,1.7427,1.6023,1.7083,1.7769,1.7595,1.4883,1.3318,1.3318,1.0457,0.8885,0.8885,0.8703,0.855,0.8479,0.8252,0.8106,0.7988,0.7988,0.7988,0.7988,0.7988,0.7988,0.7988,0.7988,0.7988,0.7988,0.7988,0.7988,0.7988,0.7988,0.7988,0.7988,0.7988,0.7486,0.6841,0.6655,0.6508,0.6241,0.5387,0.562,0.616,0.616,0.616,0.6293,0.6918,0.7095,0.7095,0.7095,0.7095,0.7095,0.7095,0.7095,0.7078,0.7014,0.6875,0.6749,0.6817,0.6773,0.6773,0.6866,0.6742,0.6624,0.6692,0.5956,0.5628,0.6219,0.63,0.63,0.63,0.63,0.63,0.63,0.63,0.63,0.63,0.63,0.63,0.63,0.63,0.63,0.63,0.63,0.63,0.63,0.63,0.634,2.0531,2.0079,1.8648,1.6101,1.3651,1.156,1.0288,0.8817,0.7789,0.7939,0.8269,0.9354,1.2037,1.4426,1.6997,1.9921,2.2017,2.2868,2.176,2.1586,2.09,1.9068,1.8865,1.8093,1.611,1.6953,1.6984,1.537,1.6363,1.7199,1.7582,1.4883,1.3102,1.2729,1.0241,0.8885,0.8885,0.8767,0.8615,0.8479,0.8319,0.817,0.7988,0.7988,0.7988,0.7988,0.7988,0.7988,0.7988,0.7988,0.7988,0.7988,0.7988,0.7988,0.7988,0.7988,0.7988,0.7988,0.7988,0.7975,0.7914,0.7689,0.7509,0.737,0.7149,0.7095,0.7095,0.7095,0.7095,0.7095,0.7095,0.7095,0.7095,0.7095,0.7095,0.7095,0.7095,0.7095,0.7058,0.6937,0.6725,0.6576,0.6709,0.662,0.6624,0.6846,0.6685,0.6552,0.6681,0.6484,0.63,0.63,0.63,0.63,0.63,0.63,0.63,0.63,0.63,0.63,0.63,0.63,0.63,0.63,0.63,0.63,0.63,0.63,0.63,0.63,0.63,0.63,1.828,1.8187,1.739,1.4864,1.3049,1.156,1.0288,0.8117,0.6681,0.7786,0.8299,0.9109,1.0742,1.4684,1.7935,1.8728,2.1378,2.2978,2.176,2.1586,2.0869,1.8791,1.8564,1.7331,1.413,1.5027,1.4784,1.2133,1.3236,1.5097,1.7477,1.4883,1.2186,0.9754,0.9154,0.8885,0.8885,0.8662,0.8509,0.8479,0.8208,0.8015,0.7988,0.7988,0.7988,0.7988,0.7988,0.7988,0.7988,0.7988,0.7988,0.7988,0.7988,0.7988,0.7988,0.7988,0.7988,0.7988,0.7988,0.7907,0.7824,0.7655,0.7584,0.7509,0.7179,0.7095,0.7095,0.7095,0.7095,0.7095,0.7095,0.7095,0.7095,0.7095,0.7095,0.7095,0.7095,0.7095,0.7088,0.7065,0.6923,0.6858,0.6842,0.6825,0.6825,0.6876,0.6776,0.6671,0.6698,0.6484,0.63,0.63,0.63,0.63,0.63,0.63,0.63,0.63,0.63,0.63,0.63,0.63,0.63,0.63,0.63,0.63,0.63,0.63,0.63,0.63,0.63,0.63,1.7692,1.7692,1.6922,1.3674,1.2382,1.1361,0.941,0.7978,0.7235,0.7889,0.831,0.8971,1.0431,1.2846,1.496,1.5855,1.8095,1.9522,1.9112,1.9699,1.9794,1.8648,1.849,1.7127,1.3635,1.4556,1.4175,1.1324,1.2457,1.4234,1.6333,1.4449,1.1973,0.8992,0.8885,0.8844,0.8821,0.8594,0.8445,0.837,0.8147,0.7988,0.7988,0.7988,0.7988,0.7988,0.7988,0.7988,0.7988,0.7988,0.7988,0.7988,0.7988,0.7988,0.7988,0.7988,0.7988,0.7988,0.7988,0.7891,0.7787,0.7645,0.7546,0.7438,0.7166,0.7095,0.7095,0.7095,0.7095,0.7095,0.7095,0.7095,0.7095,0.7095,0.7095,0.7095,0.7095,0.7095,0.7095,0.7095,0.698,0.691,0.698,0.6933,0.691,0.6984,0.6848,0.6702,0.6702,0.6484,0.63,0.63,0.63,0.63,0.63,0.63,0.63,0.63,0.63,0.63,0.63,0.63,0.63,0.63,0.63,0.63,0.63,0.63,0.63,0.63,0.63,0.63,1.7217,1.707,1.6062,1.2764,1.1702,1.0872,0.8528,0.7988,0.7988,0.7988,0.8252,0.8807,1.002,1.0828,1.1782,1.3024,1.4676,1.588,1.6189,1.7506,1.8361,1.8017,1.8317,1.7127,1.3635,1.4288,1.3745,1.0836,1.2028,1.3318,1.4449,1.3426,1.1592,0.8992,0.8885,0.8811,0.8713,0.856,0.8411,0.832,0.8113,0.7988,0.7988,0.7988,0.7988,0.7988,0.7988,0.7988,0.7988,0.7988,0.7988,0.7988,0.7988,0.7988,0.7988,0.7988,0.7988,0.7988,0.7988,0.7911,0.7831,0.7655,0.7495,0.7343,0.7142,0.7095,0.7095,0.7095,0.7095,0.7095,0.7095,0.7095,0.7095,0.7095,0.7095,0.7095,0.7095,0.7095,0.7095,0.7095,0.7007,0.6967,0.7078,0.7004,0.6967,0.7078,0.6888,0.6702,0.6702,0.6484,0.63,0.63,0.63,0.63,0.63,0.63,0.63,0.63,0.63,0.63,0.63,0.63,0.63,0.63,0.63,0.63,0.63,0.63,0.63,0.63,0.63,0.63,1.5676,1.5134,1.3872,1.2285,1.1023,0.9801,0.8333,0.7988,0.7988,0.7988,0.8174,0.8381,0.8664,0.994,1.1095,1.1599,1.3054,1.4236,1.4577,1.6076,1.6982,1.6375,1.7625,1.7127,1.3635,1.3426,1.2295,0.9316,1.0457,1.1378,1.1483,1.1374,1.0566,0.8937,0.8885,0.8811,0.8713,0.856,0.8411,0.832,0.8113,0.7988,0.7988,0.7988,0.7988,0.7988,0.7988,0.7988,0.7988,0.7988,0.7988,0.7988,0.7988,0.7988,0.7988,0.7988,0.7988,0.7988,0.7988,0.7982,0.7924,0.7692,0.7495,0.7343,0.7142,0.7095,0.7095,0.7095,0.7095,0.7095,0.7095,0.7095,0.7095,0.7095,0.7095,0.7095,0.7095,0.7095,0.7095,0.7095,0.7085,0.7082,0.7095,0.7085,0.7082,0.7095,0.6888,0.6702,0.6702,0.6484,0.63,0.63,0.63,0.63,0.63,0.63,0.63,0.63,0.63,0.63,0.63,0.63,0.63,0.63,0.63,0.63,0.63,0.63,0.63,0.63,0.63,0.63,1.4513,1.4268,1.359,1.2237,1.0925,0.9657,0.8283,0.7988,0.7988,0.7988,0.8231,0.8414,0.8472,0.9158,0.9749,0.988,1.1223,1.2655,1.4008,1.5573,1.6825,1.7483,1.734,1.6158,1.3527,1.2512,1.1105,0.9047,0.9427,0.9754,0.9754,1.0621,1.0402,0.8937,0.8849,0.8726,0.8574,0.8428,0.8279,0.813,0.8019,0.7988,0.7988,0.7988,0.7988,0.7988,0.7988,0.7988,0.7988,0.7988,0.7988,0.7988,0.7988,0.7988,0.7988,0.7988,0.7988,0.7988,0.7988,0.7931,0.7868,0.7665,0.7495,0.7343,0.7142,0.7095,0.7095,0.7095,0.7095,0.7095,0.7095,0.7095,0.7095,0.7095,0.7095,0.7095,0.7095,0.7095,0.7095,0.7095,0.7095,0.7095,0.7095,0.7095,0.7095,0.7095,0.6888,0.6702,0.6702,0.6484,0.63,0.63,0.63,0.63,0.63,0.63,0.63,0.63,0.63,0.63,0.63,0.63,0.63,0.63,0.63,0.63,0.63,0.63,0.63,0.63,0.63,0.63,1.3199,1.3054,1.2517,1.1556,1.0386,0.9167,0.8237,0.7988,0.8002,0.8099,0.8272,0.8445,0.8533,0.8726,0.8831,0.8875,0.9832,1.1083,1.252,1.409,1.542,1.6384,1.5958,1.4837,1.2904,1.1354,1.0021,0.8992,0.8885,0.8885,0.8885,0.987,0.9894,0.8872,0.8767,0.8618,0.8421,0.8371,0.8194,0.7988,0.7988,0.7988,0.7988,0.7988,0.7988,0.7988,0.7988,0.7988,0.7988,0.7988,0.7988,0.7988,0.7988,0.7988,0.7988,0.7988,0.7988,0.7988,0.7988,0.7921,0.7848,0.7662,0.7526,0.74,0.7156,0.7095,0.7095,0.7095,0.7095,0.7095,0.7095,0.7095,0.7095,0.7095,0.7095,0.7095,0.7095,0.7095,0.7095,0.7095,0.7095,0.7095,0.7095,0.7095,0.7082,0.7041,0.6861,0.6685,0.6637,0.6457,0.63,0.63,0.63,0.63,0.63,0.63,0.63,0.63,0.63,0.63,0.63,0.63,0.63,0.63,0.63,0.63,0.63,0.63,0.63,0.63,0.63,0.6323,1.1556,1.1023,1.0047,0.9998,0.9019,0.8041,0.7988,0.7988,0.8032,0.8238,0.8323,0.8364,0.8655,0.871,0.8764,0.8858,0.9184,0.9436,0.9436,1.1043,1.2141,1.19,1.3092,1.322,1.1496,0.9843,0.894,0.8885,0.8885,0.8885,0.8885,0.8794,0.8713,0.8713,0.871,0.857,0.8327,0.8323,0.8194,0.7988,0.7988,0.7988,0.7988,0.7988,0.7988,0.7988,0.7988,0.7988,0.7988,0.7988,0.7988,0.7988,0.7988,0.7988,0.7988,0.7988,0.7988,0.7988,0.7988,0.7988,0.7938,0.7695,0.7597,0.7539,0.7189,0.7095,0.7095,0.7095,0.7095,0.7095,0.7095,0.7095,0.7095,0.7095,0.7095,0.7095,0.7095,0.7095,0.7095,0.7095,0.7095,0.7095,0.7095,0.7095,0.7048,0.691,0.68,0.6647,0.6535,0.6388,0.63,0.63,0.63,0.63,0.63,0.63,0.63,0.63,0.63,0.63,0.63,0.63,0.63,0.63,0.63,0.63,0.63,0.63,0.63,0.63,0.63,0.6375,1.0485,1.0293,0.9998,0.9998,0.897,0.7988,0.7988,0.7988,0.8032,0.8238,0.8347,0.8476,0.8672,0.8798,0.8913,0.9062,0.9221,0.9695,1.1004,1.1715,1.2362,1.3145,1.2478,1.1368,0.9832,0.9182,0.8885,0.8885,0.8885,0.8885,0.8885,0.8794,0.871,0.871,0.8516,0.8367,0.8323,0.8167,0.8089,0.7988,0.7988,0.7988,0.7988,0.7988,0.7988,0.7988,0.7988,0.7988,0.7988,0.7988,0.7988,0.7988,0.7988,0.7988,0.7988,0.7988,0.7988,0.7988,0.7988,0.7988,0.7941,0.7695,0.76,0.7543,0.7189,0.7095,0.7095,0.7095,0.7095,0.7095,0.7095,0.7095,0.7095,0.7095,0.7095,0.7095,0.7095,0.7095,0.7095,0.7095,0.7095,0.7095,0.7095,0.7014,0.6937,0.6893,0.6709,0.6566,0.6518,0.6388,0.63,0.63,0.63,0.63,0.63,0.63,0.63,0.63,0.63,0.63,0.63,0.63,0.63,0.63,0.63,0.63,0.63,0.63,0.6351,0.6446,0.6446,0.6539,0.8612,0.8863,0.9114,0.8609,0.8226,0.7988,0.7988,0.7988,0.8032,0.8238,0.8384,0.853,0.8682,0.8835,0.8967,0.9059,0.9173,0.9631,1.0868,1.1079,1.1344,1.2139,1.1116,0.9983,0.8999,0.8885,0.8885,0.8885,0.8885,0.8858,0.8801,0.8706,0.8601,0.8547,0.8367,0.8241,0.8184,0.8089,0.7988,0.7988,0.7988,0.7988,0.7988,0.7988,0.7988,0.7988,0.7988,0.7988,0.0,0.7988,0.7988,0.7988,0.7988,0.7988,0.7988,0.7988,0.7988,0.7988,0.7988,0.7988,0.7948,0.7756,0.7604,0.7468,0.7173,0.7095,0.7095,0.7095,0.7095,0.7095,0.7095,0.7095,0.7095,0.7095,0.7095,0.7095,0.7095,0.7095,0.7095,0.7095,0.7095,0.7095,0.7095,0.6977,0.6866,0.6851,0.663,0.6494,0.6439,0.6354,0.63,0.63,0.63,0.63,0.63,0.63,0.63,0.63,0.63,0.63,0.63,0.63,0.63,0.63,0.63,0.63,0.63,0.63,0.6344,0.6433,0.6549,0.6661,0.0,0.6883,0.7686,0.6331,0.6983,0.7988,0.7988,0.7988,0.0,0.8238,0.8374,0.8516,0.8679,0.8825,0.8875,0.8895,0.9066,0.9262,0.9361,0.9493,0.9523,0.9381,0.9286,0.9086,0.8895,0.8885,0.8885,0.8885,0.8871,0.8804,0.8716,0.8557,0.8408,0.8327,0.831,0.8184,0.7992,0.7988,0.7988,0.7988,0.7988,0.7988,0.7988,0.7988,0.7988,0.7988,0.7988,0.7988,0.7988,0.7988,0.7988,0.7988,0.7988,0.7988,0.7988,0.7988,0.7988,0.7988,0.7988,0.7988,0.7965,0.7848,0.7604,0.7343,0.7142,0.7095,0.7095,0.7095,0.7095,0.7095,0.7095,0.7095,0.7095,0.7095,0.7095,0.7095,0.7095,0.7095,0.7095,0.7095,0.7095,0.7095,0.7095,0.697,0.6865,0.6722,0.6563,0.645,0.6317,0.63,0.63,0.63,0.63,0.63,0.63,0.63,0.63,0.63,0.63,0.63,0.63,0.63,0.63,0.63,0.63,0.63,0.63,0.63,0.631,0.6337,0.6573,0.6712,0.512,0.0,0.7686,0.6331,0.6983,0.7988,0.0,0.7988,0.8032,0.8238,0.8347,0.8401,0.8662,0.874,0.8838,0.9066,0.9187,0.9262,0.9361,0.931,0.9306,0.9268,0.9076,0.8977,0.8888,0.8885,0.8885,0.8885,0.8828,0.875,0.8713,0.8462,0.8357,0.8323,0.8153,0.8025,0.7988,0.7988,0.7988,0.7988,0.7988,0.7988,0.7988,0.7988,0.7988,0.7988,0.7988,0.7988,0.7988,0.7988,0.7988,0.7988,0.7988,0.7988,0.7988,0.7988,0.7988,0.7988,0.7988,0.7988,0.7944,0.7736,0.7522,0.7343,0.7142,0.7095,0.7095,0.7095,0.7095,0.7095,0.7095,0.7095,0.7095,0.7095,0.7095,0.7095,0.7095,0.7095,0.7095,0.7095,0.7095,0.7095,0.7095,0.6883,0.6742,0.6705,0.6518,0.6337,0.6303,0.63,0.63,0.63,0.63,0.63,0.63,0.63,0.63,0.63,0.63,0.63,0.63,0.63,0.63,0.63,0.63,0.63,0.63,0.63,0.6416,0.66,0.6668,0.682,0.4416,0.6012,0.7837,0.646,0.7122,0.8147,0.8147,0.8092,0.8012,0.8147,0.8221,0.8319,0.8479,0.8618,0.8764,0.8923,0.9008,0.9106,0.9313,0.9262,0.921,0.921,0.9025,0.8885,0.8885,0.8885,0.8854,0.8838,0.8757,0.8652,0.8516,0.8357,0.8238,0.8167,0.8032,0.7988,0.7988,0.7988,0.7988,0.7988,0.7988,0.7988,0.7988,0.7988,0.7988,0.7988,0.7988,0.7988,0.7988,0.7988,0.7988,0.7988,0.7988,0.7988,0.7988,0.7988,0.7988,0.7988,0.7988,0.7944,0.7896,0.7672,0.7495,0.7343,0.7142,0.7095,0.7095,0.7095,0.7095,0.7095,0.7095,0.7095,0.7095,0.7095,0.7095,0.7095,0.7095,0.7095,0.7095,0.7095,0.7095,0.7075,0.7011,0.6854,0.6675,0.6607,0.6446,0.63,0.63,0.63,0.63,0.63,0.63,0.63,0.63,0.63,0.63,0.63,0.63,0.63,0.63,0.63,0.633,0.6395,0.6334,0.6368,0.6464,0.6368,0.6416,0.6597,0.6668,0.6787,0.4016,0.5966,0.7769,0.6785,0.7415,0.8364,0.8544,0.828,0.7988,0.7988,0.8143,0.8248,0.8347,0.8506,0.8693,0.8737,0.8801,0.8981,0.9103,0.9176,0.9176,0.9176,0.9015,0.8875,0.8851,0.8848,0.8842,0.8686,0.8655,0.8533,0.8337,0.8248,0.8174,0.7992,0.7988,0.7988,0.7988,0.7988,0.7988,0.7988,0.7988,0.7988,0.7988,0.7988,0.7988,0.7988,0.7988,0.7988,0.7988,0.7988,0.7988,0.7988,0.7988,0.7988,0.7988,0.7988,0.7988,0.7988,0.7988,0.7891,0.7787,0.7645,0.7495,0.7343,0.7142,0.7095,0.7095,0.7095,0.7095,0.7095,0.7095,0.7095,0.7095,0.7095,0.7095,0.7095,0.7095,0.7095,0.7095,0.7095,0.7095,0.7051,0.691,0.6803,0.6647,0.6535,0.6392,0.63,0.63,0.63,0.63,0.63,0.63,0.63,0.63,0.63,0.631,0.633,0.6313,0.63,0.63,0.632,0.6388,0.6511,0.6416,0.6491,0.6702,0.6487,0.6439,0.6546,0.6651,0.6725,0.4016,0.5351,0.6914,0.7591,0.7999,0.8537,0.954,0.8844,0.7988,0.7988,0.8008,0.815,0.8401,0.8486,0.8601,0.8807,0.8868,0.8892,0.8967,0.8971,0.8971,0.8971,0.8898,0.8834,0.8757,0.8747,0.8682,0.853,0.8408,0.8319,0.8323,0.8147,0.8015,0.7988,0.7988,0.7988,0.7988,0.7988,0.7988,0.7988,0.7988,0.7988,0.7988,0.7988,0.7988,0.7988,0.7988,0.7988,0.7988,0.7988,0.7988,0.7988,0.7988,0.7988,0.7988,0.7988,0.7988,0.7988,0.7988,0.7891,0.7787,0.7645,0.7495,0.7343,0.7142,0.7095,0.7095,0.7095,0.7095,0.7095,0.7095,0.7095,0.7095,0.7095,0.7095,0.7095,0.7095,0.7095,0.7095,0.7095,0.7095,0.7051,0.691,0.6803,0.6647,0.6535,0.6392,0.63,0.63,0.63,0.63,0.63,0.63,0.63,0.63,0.63,0.6351,0.647,0.6368,0.63,0.63,0.6416,0.6491,0.6511,0.6576,0.6654,0.6702,0.6654,0.6712,0.6858,0.6749,0.6834,0.3615,0.4608,0.6078,0.9504,1.0047,0.9804,1.0285,0.9815,0.9029,0.8201,0.7988,0.8056,0.8326,0.8431,0.8581,0.8834,0.8885,0.8885,0.8885,0.8885,0.8885,0.8885,0.8811,0.8788,0.8716,0.8635,0.8526,0.8377,0.8958,0.8979,0.82,0.872,0.8726,0.8038,0.7988,0.7988,0.7988,0.7988,0.7988,0.7988,0.7988,0.7988,0.7988,0.7988,0.7988,0.7988,0.7988,0.7988,0.7988,0.7988,0.7988,0.7988,0.7988,0.7988,0.7988,0.7988,0.7988,0.7988,0.7988,0.7891,0.7787,0.7645,0.7495,0.7343,0.7142,0.7095,0.7095,0.7095,0.7095,0.7095,0.7095,0.7095,0.7095,0.7095,0.7095,0.7095,0.7095,0.7095,0.7095,0.7095,0.7095,0.7051,0.691,0.6829,0.6773,0.6617,0.6539,0.6498,0.6498,0.6467,0.6446,0.6488,0.6463,0.645,0.6491,0.6498,0.6497,0.6405,0.6484,0.6501,0.6419,0.6519,0.6634,0.6719,0.6709,0.678,0.6896,0.6776,0.678,0.6883,0.6858,0.6856,0.2864,0.3869,0.5355,1.0234,1.1093,1.0923,1.154,1.1175,1.033,0.8846,0.8507,0.8432,0.8343,0.8414,0.8611,0.8849,0.8861,0.8871,0.8834,0.8831,0.8817,0.8835,0.8726,0.8645,0.8611,0.8503,0.8374,0.8228,0.9159,0.9345,0.8538,0.9167,0.9217,0.8482,0.8187,0.7988,0.7988,0.7988,0.7988,0.7988,0.7988,0.7988,0.7988,0.7988,0.7988,0.7988,0.7988,0.7988,0.7988,0.7988,0.7988,0.7988,0.7988,0.7988,0.7988,0.7988,0.7988,0.7988,0.7988,0.7891,0.7787,0.7645,0.7495,0.7343,0.7142,0.7095,0.7095,0.7095,0.7095,0.7095,0.7095,0.7095,0.7095,0.7095,0.7095,0.7095,0.7095,0.7095,0.7085,0.7055,0.7071,0.7041,0.6862,0.6862,0.6832,0.6722,0.6702,0.6702,0.6702,0.66,0.6569,0.6688,0.6597,0.6573,0.6692,0.6732,0.6641,0.6419,0.6576,0.6647,0.6569,0.6671,0.681,0.6883,0.6848,0.6915,0.7095,0.6912,0.6865,0.6933,0.6903,0.6903,0.1762,0.3159,0.4897,0.795,0.9454,1.1,1.3824,1.3121,1.1482,1.0418,1.0021,0.9516,0.8493,0.8503,0.8703,0.8723,0.8845,0.8834,0.8747,0.8726,0.8672,0.853,0.8506,0.8445,0.8368,0.8344,0.8221,0.8019,0.8105,0.8638,0.9801,0.8775,0.8676,0.9805,0.8627,0.7988,0.7988,0.7988,0.7988,0.7988,0.7988,0.7988,0.7988,0.7988,0.7988,0.7988,0.7988,0.7988,0.7988,0.7988,0.7988,0.7988,0.7988,0.7988,0.7988,0.7988,0.7988,0.7988,0.7988,0.7891,0.7787,0.7645,0.7495,0.7343,0.7142,0.7095,0.7095,0.7095,0.7095,0.7095,0.7095,0.7095,0.7095,0.7095,0.7095,0.7095,0.7095,0.7095,0.7058,0.6927,0.7007,0.7007,0.6766,0.6834,0.6832,0.6722,0.6702,0.6702,0.6702,0.6692,0.6688,0.6698,0.6692,0.6688,0.6698,0.6831,0.6844,0.6678,0.6688,0.6695,0.6685,0.6831,0.6876,0.6886,0.7004,0.7075,0.7095,0.7075,0.7068,0.7078,0.6947,0.6957,0.2665,0.3635,0.4979,0.87,0.9875,1.064,1.2796,1.2723,1.184,1.046,0.9409,0.8681,0.8343,0.8435,0.8567,0.8567,0.8618,0.8635,0.8577,0.8567,0.8547,0.8489,0.8404,0.8381,0.8327,0.8184,0.8102,0.7992,0.9505,1.0288,0.9998,1.1063,1.1497,1.117,0.9899,0.9266,0.9266,0.8432,0.7988,0.7988,0.7988,0.7988,0.7988,0.7988,0.7988,0.7988,0.7988,0.7988,0.7988,0.7988,0.7988,0.7988,0.7988,0.7988,0.7988,0.7988,0.7988,0.7988,0.7988,0.7951,0.7867,0.7678,0.756,0.7465,0.7173,0.7095,0.7095,0.7095,0.7095,0.7095,0.7095,0.7095,0.7095,0.7095,0.7095,0.7095,0.7095,0.7095,0.7082,0.7028,0.7058,0.7061,0.695,0.6977,0.6997,0.694,0.693,0.693,0.693,0.6898,0.6875,0.692,0.693,0.693,0.693,0.6984,0.6994,0.6937,0.693,0.6893,0.6848,0.694,0.7018,0.7018,0.7068,0.7095,0.7095,0.7095,0.7095,0.7095,0.7041,0.7045,0.2764,0.3665,0.4828,0.818,0.949,1.0274,1.1399,1.193,1.1855,1.0442,0.9008,0.8022,0.8177,0.8316,0.8414,0.8414,0.8452,0.8465,0.8421,0.8414,0.8397,0.8347,0.8255,0.8197,0.8197,0.8446,0.8627,0.8627,1.0681,1.1702,1.1263,1.2522,1.3054,1.2528,1.1263,1.0386,0.9998,0.9069,0.8432,0.7988,0.7988,0.7988,0.7988,0.7988,0.7988,0.7988,0.7988,0.7988,0.7988,0.7988,0.7988,0.7988,0.7988,0.7988,0.7988,0.7988,0.7988,0.7988,0.7988,0.7988,0.7941,0.7695,0.76,0.7543,0.7189,0.7095,0.7095,0.7095,0.7095,0.7095,0.7095,0.7095,0.7095,0.7095,0.7095,0.7095,0.7095,0.7095,0.7082,0.7038,0.7065,0.7082,0.7038,0.7065,0.7095,0.7095,0.7095,0.7095,0.7095,0.7011,0.6991,0.7085,0.7095,0.7095,0.7095,0.7095,0.7095,0.7095,0.7095,0.7051,0.6957,0.7045,0.7095,0.7095,0.7095,0.7095,0.7095,0.7095,0.7095,0.7095,0.7095,0.7095,0.1611,0.2964,0.4316,0.5677,0.8014,0.9998,0.9998,1.0974,1.1619,1.0582,0.9133,0.7988,0.7988,0.8167,0.832,0.832,0.8387,0.8428,0.834,0.832,0.8211,0.8008,0.7988,0.7988,0.7988,0.9217,0.9998,0.9998,1.117,1.2479,1.3824,1.2668,1.2528,1.3878,1.2619,1.1312,1.0047,0.9998,0.9316,0.8041,0.8041,0.7988,0.7988,0.7988,0.7988,0.7988,0.7988,0.7988,0.7988,0.7988,0.7988,0.7988,0.7988,0.7988,0.7988,0.7988,0.7988,0.7988,0.7988,0.7988,0.7938,0.7695,0.7597,0.7539,0.7189,0.7095,0.7095,0.7095,0.7095,0.7095,0.7095,0.7095,0.7095,0.7095,0.7095,0.7095,0.7095,0.7095,0.7055,0.6916,0.7001,0.7051,0.6913,0.7004,0.7095,0.7095,0.7095,0.7095,0.7095,0.7095,0.7095,0.7095,0.7095,0.7095,0.7095,0.7095,0.7095,0.7095,0.7095,0.7095,0.7095,0.7095,0.7095,0.7095,0.7095,0.7095,0.7095,0.7095,0.7095,0.7095,0.7095,0.7095,0.1611,0.2964,0.4316,0.5677,0.7329,0.8577,0.8577,0.9608,1.0207,0.8984,0.8314,0.7988,0.7988,0.8025,0.8109,0.8109,0.8143,0.8157,0.8113,0.8109,0.8092,0.7995,0.7988,0.7988,0.7988,0.9217,0.9998,0.9998,1.2037,1.3494,1.3878,1.437,1.4806,1.5242,1.3974,1.3151,1.2764,1.0921,0.9805,0.941,0.941,0.892,0.7988,0.7988,0.7988,0.7988,0.7988,0.7988,0.7988,0.7988,0.7988,0.7988,0.7988,0.7988,0.7988,0.7988,0.7988,0.7988,0.7988,0.7921,0.7848,0.7662,0.7529,0.74,0.7156,0.7095,0.7095,0.7095,0.7095,0.7095,0.7095,0.7095,0.7095,0.7095,0.7095,0.7095,0.7095,0.7095,0.7085,0.7041,0.7068,0.7082,0.7041,0.7068,0.7095,0.7095,0.7095,0.7095,0.7095,0.7095,0.7095,0.7095,0.7095,0.7095,0.7095,0.7095,0.7095,0.7095,0.7095,0.7095,0.7095,0.7095,0.7095,0.7095,0.7095,0.7095,0.7095,0.7095,0.7095,0.7095,0.7095,0.7095,0.1611,0.2964,0.4316,0.5677,0.6983,0.7988,0.7988,0.8627,0.897,0.8187,0.7988,0.7988,0.7988,0.7988,0.7839,0.7285,0.7185,0.7185,0.7185,0.7185,0.7385,0.7939,0.8482,0.8775,0.8775,1.048,1.1551,1.1551,1.3494,1.4657,1.4657,1.5391,1.5784,1.5784,1.5051,1.4411,1.3926,1.2323,1.1258,1.073,1.0243,0.9558,0.8775,0.8775,0.8775,0.8775,0.8233,0.7988,0.7988,0.7988,0.7988,0.7988,0.7988,0.7988,0.7988,0.7988,0.7988,0.7988,0.7988,0.7891,0.7787,0.7645,0.7495,0.7343,0.7142,0.7095,0.7095,0.7095,0.7095,0.7095,0.7095,0.7095,0.7095,0.7095,0.7095,0.7095,0.7095,0.7095,0.7095,0.7095,0.7095,0.7095,0.7095,0.7095,0.7095,0.7095,0.7095,0.7095,0.7095,0.7095,0.7095,0.7095,0.7095,0.7095,0.7095,0.7095,0.7095,0.7095,0.7095,0.7095,0.7095,0.7095,0.7095,0.7095,0.7095,0.7095,0.7095,0.7095,0.7095,0.7095,0.7095,0.7095,0.1511,0.2864,0.4318,0.5525,0.693,0.7988,0.7988,0.7988,0.7988,0.7988,0.7988,0.7988,0.7988,0.7988,0.7587,0.6229,0.5979,0.5979,0.5979,0.5979,0.6481,0.7839,0.9167,0.9998,0.9998,1.2372,1.3926,1.3926,1.5092,1.5784,1.5784,1.5784,1.5784,1.5784,1.5784,1.5242,1.407,1.3968,1.3295,1.2091,1.0921,1.0337,1.0337,0.9998,0.9805,0.9752,0.8531,0.7988,0.7988,0.7988,0.7988,0.7988,0.7988,0.7988,0.7988,0.7988,0.7988,0.7988,0.7988,0.788,0.777,0.7641,0.7489,0.7322,0.7139,0.7095,0.7095,0.7095,0.7095,0.7095,0.7095,0.7095,0.7095,0.7095,0.7095,0.7095,0.7095,0.7095,0.7095,0.7095,0.7095,0.7095,0.7095,0.7095,0.7095,0.7095,0.7095,0.7095,0.7095,0.7095,0.7095,0.7095,0.7095,0.7095,0.7095,0.7095,0.7095,0.7095,0.7095,0.7095,0.7095,0.7095,0.7095,0.7095,0.7095,0.7095,0.7095,0.7095,0.7095,0.7095,0.7095,0.7095,0.0353,0.2163,0.4066,0.4368,0.6226,0.7988,0.7988,0.7988,0.7988,0.7988,0.7988,0.7988,0.7988,0.7988,0.7587,0.6229,0.5979,0.5979,0.5979,0.5979,0.6481,0.7839,0.9167,0.9998,0.9998,1.2372,1.3926,1.3926,1.5092,1.5784,1.5784,1.5784,1.5784,1.5784,1.5784,1.5683,1.5391,1.4411,1.3776,1.3488,1.3199,1.3054,1.2958,0.9846,0.8432,0.8432,0.8137,0.7988,0.7988,0.7988,0.7988,0.7988,0.7988,0.7988,0.7988,0.7988,0.7988,0.7988,0.7988,0.7868,0.7641,0.7611,0.7414,0.7139,0.7105,0.7095,0.7095,0.7095,0.7095,0.7095,0.7095,0.7095,0.7095,0.7095,0.7095,0.7095,0.7095,0.7095,0.7095,0.7095,0.7095,0.7095,0.7095,0.7095,0.7095,0.7095,0.7095,0.7095,0.7095,0.7095,0.7095,0.7095,0.7095,0.7095,0.7095,0.7095,0.7095,0.7095,0.7095,0.7095,0.7095,0.7095,0.7095,0.7095,0.7095,0.7095,0.7095,0.7095,0.7095,0.7095,0.7095,0.7095,0.0,0.1962,0.4316,0.557,0.698,0.7988,0.7988,0.7988,0.7988,0.7988,0.7988,0.7988,0.7988,0.7484,0.6581,0.5272,0.452,0.4069,0.4069,0.4622,0.5525,0.6883,0.9349,1.0925,1.0925,1.3247,1.48,1.48,1.5439,1.5784,1.5784,1.5784,1.5784,1.5784,1.5784,1.5784,1.5784,1.514,1.48,1.48,1.4166,1.3241,1.1984,1.0529,0.9167,0.7988,0.7988,0.7988,0.7988,0.7988,0.7988,0.7988,0.7988,0.7988,0.7988,0.7988,0.7988,0.7988,0.7988,0.7845,0.76,0.76,0.739,0.7095,0.7095,0.7095,0.7095,0.7095,0.7095,0.7095,0.7095,0.7095,0.7095,0.7095,0.7095,0.7095,0.7095,0.7095,0.7095,0.7095,0.7095,0.7095,0.7095,0.7095,0.7095,0.7095,0.7095,0.7095,0.7095,0.7095,0.7095,0.7095,0.7095,0.7095,0.7095,0.7095,0.7095,0.7095,0.7095,0.7095,0.7095,0.7095,0.7095,0.7095,0.7095,0.7095,0.7095,0.7095,0.7095,0.7095,0.7095,0.7095,0.0,0.1962,0.4568,0.703,0.7839,0.7988,0.7988,0.7988,0.7988,0.7988,0.7988,0.7988,0.7988,0.6883,0.5575,0.4216,0.2864,0.2013,0.2013,0.3165,0.4518,0.5827,0.9481,1.1896,1.1896,1.4274,1.5784,1.5784,1.5784,1.5784,1.5784,1.5784,1.5784,1.5784,1.5784,1.5784,1.5784,1.5784,1.5784,1.5778,1.4507,1.2668,1.0342,1.117,1.0288,0.7988,0.7988,0.7988,0.7988,0.7988,0.7988,0.7988,0.7988,0.7988,0.7988,0.7988,0.7988,0.7988,0.7988,0.7845,0.76,0.76,0.739,0.7095,0.7095,0.7095,0.7095,0.7095,0.7095,0.7095,0.7095,0.7095,0.7095,0.7095,0.7095,0.7095,0.7095,0.7095,0.7095,0.7095,0.7095,0.7095,0.7095,0.7095,0.7095,0.7095,0.7095,0.7095,0.7095,0.7095,0.7095,0.7095,0.7095,0.7095,0.7095,0.7095,0.7095,0.7095,0.7095,0.7183,0.7401,0.7228,0.7183,0.7401,0.7404,0.7316,0.7095,0.7316,0.7316,0.7095,0.7095,0.7095,0.0,0.1962,0.4368,0.5877,0.7135,0.7988,0.7988,0.7988,0.7988,0.7988,0.7988,0.7988,0.7988,0.6883,0.5575,0.4216,0.2864,0.2013,0.2013,0.3165,0.4518,0.5827,0.9481,1.1896,1.1896,1.4274,1.5784,1.5784,1.5784,1.5784,1.5784,1.5784,1.5784,1.5784,1.5784,1.5784,1.5784,1.5784,1.5784,1.5778,1.4507,1.3102,1.1609,1.0681,0.941,0.7988,0.7988,0.7988,0.7988,0.7988,0.7988,0.7988,0.7988,0.7988,0.7988,0.7988,0.7988,0.7988,0.7988,0.7845,0.76,0.76,0.739,0.7095,0.7095,0.7095,0.7095,0.7095,0.7095,0.7095,0.7095,0.7095,0.7095,0.7095,0.7095,0.7095,0.7095,0.7095,0.7095,0.7095,0.7095,0.7095,0.7095,0.7095,0.7095,0.7095,0.7095,0.7095,0.7095,0.7095,0.7095,0.7095,0.7095,0.7095,0.7095,0.7095,0.7095,0.7095,0.7095,0.7577,0.8627,0.7665,0.7577,0.8627,0.8671,0.8149,0.7095,0.8149,0.8101,0.7095,0.7095,0.7095,0.0907,0.1962,0.3367,0.5477,0.6431,0.7083,0.7839,0.7988,0.7988,0.7988,0.7988,0.7786,0.7033,0.5774,0.442,0.3116,0.1762,0.0857,0.0857,0.2665,0.4216,0.482,0.9023,1.1896,1.1896,1.4274,1.5784,1.5784,1.5784,1.5784,1.5784,1.5784,1.5784,1.5784,1.5784,1.5784,1.5784,1.5784,1.5784,1.5778,1.4507,1.3199,1.1848,1.0583,0.9262,0.7988,0.7988,0.7988,0.7988,0.7988,0.7988,0.7988,0.7988,0.7988,0.7988,0.7988,0.7988,0.7978,0.7891,0.7773,0.7587,0.7499,0.7322,0.7095,0.7095,0.7095,0.7095,0.7095,0.7095,0.7095,0.7095,0.7095,0.7095,0.7095,0.7095,0.7095,0.7095,0.7095,0.7095,0.7095,0.7095,0.7095,0.7095,0.7095,0.7095,0.7095,0.7095,0.7095,0.7095,0.7095,0.7095,0.7095,0.7095,0.7095,0.7095,0.7095,0.7095,0.7095,0.7095,0.736,0.7885,0.7404,0.7356,0.7885,0.7885,0.7621,0.7095,0.7621,0.7621,0.7095,0.7095,0.7095,0.1209,0.1762,0.2565,0.4922,0.5727,0.6329,0.7686,0.7988,0.7988,0.7988,0.7988,0.7484,0.5827,0.467,0.3565,0.2213,0.0857,0.0,0.0,0.2314,0.4016,0.4016,0.8671,1.1896,1.1896,1.4274,1.5784,1.5784,1.5784,1.5784,1.5784,1.5784,1.5784,1.5784,1.5784,1.5784,1.5784,1.5784,1.5784,1.5778,1.4507,1.3199,1.1848,1.0583,0.9262,0.7988,0.7988,0.7988,0.7988,0.7988,0.7988,0.7988,0.7988,0.7988,0.7988,0.7988,0.7988,0.7968,0.7865,0.7719,0.7577,0.7467,0.7265,0.7095,0.7095,0.7095,0.7095,0.7095,0.7095,0.7095,0.7095,0.7095,0.7095,0.7095,0.7095,0.7095,0.7095,0.7095,0.7095,0.7095,0.7095,0.7095,0.7095,0.7095,0.7095,0.7095,0.7095,0.7095,0.7095,0.7095,0.7095,0.7095,0.7095,0.7095,0.7095,0.7095,0.7095,0.7095,0.7095,0.7228,0.7533,0.7577,0.7577,0.7577,0.7577,0.7401,0.7095,0.7401,0.7401,0.7095,0.7095,0.7095,0.0101,0.1008,0.2364,0.3765,0.5072,0.6329,0.7686,0.7988,0.7988,0.7988,0.7988,0.7182,0.4568,0.4066,0.3565,0.2213,0.0857,0.0,0.0,0.2314,0.4016,0.4016,0.8671,1.1896,1.1896,1.4274,1.5784,1.5784,1.5784,1.5784,1.5784,1.5784,1.5784,1.5784,1.5784,1.5784,1.5784,1.5784,1.5784,1.5778,1.4507,1.3199,1.1848,1.0583,0.9262,0.7988,0.7988,0.7988,0.7988,0.7988,0.7988,0.7988,0.7988,0.7988,0.7988,0.7988,0.7988,0.7968,0.7865,0.7719,0.7577,0.7467,0.7265,0.7095,0.7095,0.7095,0.7095,0.7095,0.7095,0.7095,0.7095,0.7095,0.7095,0.7095,0.7095,0.7095,0.7095,0.7095,0.7095,0.7095,0.7095,0.7095,0.7095,0.7095,0.7095,0.7095,0.7095,0.7095,0.7095,0.7095,0.7095,0.7095,0.7095,0.7095,0.7095,0.7095,0.7095,0.7095,0.7095,0.7621,0.8759,0.8803,0.8803,0.8803,0.8803,0.8237,0.7095,0.8233,0.8233,0.7095,0.7095,0.7095,0.0,0.0353,0.1058,0.2363,0.3066,0.4021,0.6229,0.6731,0.6983,0.7839,0.7335,0.6176,0.4318,0.4016,0.3265,0.1058,0.0303,0.0,0.0,0.2314,0.4016,0.4016,0.8671,1.1896,1.1896,1.4274,1.5784,1.5784,1.5784,1.5784,1.5784,1.5784,1.5784,1.5784,1.5784,1.5784,1.5784,1.5784,1.5784,1.5778,1.4507,1.3199,1.1848,1.0583,0.9262,0.7988,0.7988,0.7988,0.7988,0.7988,0.7988,0.7988,0.7988,0.7988,0.7988,0.7988,0.7988,0.7955,0.776,0.7641,0.7556,0.7305,0.7139,0.7095,0.7095,0.7095,0.7095,0.7095,0.7095,0.7095,0.7095,0.7095,0.7095,0.7095,0.7095,0.7095,0.7095,0.7095,0.7316,0.8105,0.8233,0.8233,0.8233,0.8233,0.7973,0.7228,0.7095,0.7095,0.7095,0.7095,0.7095,0.7095,0.7095,0.7095,0.7095,0.7095,0.7095,0.7095,0.7095,0.7621,0.8846,0.889,0.9235,0.9966,0.9279,0.8321,0.7095,0.7533,0.7536,0.7095,0.7095,0.7095,0.0,0.0,0.0303,0.1661,0.2013,0.2564,0.482,0.5677,0.6229,0.7135,0.6631,0.5575,0.4268,0.3615,0.2614,0.0353,0.0,0.0,0.0,0.1913,0.3515,0.3966,0.7882,1.076,1.1214,1.3204,1.4663,1.5146,1.5146,1.5343,1.5784,1.5784,1.5784,1.5784,1.5784,1.5784,1.5784,1.5784,1.5784,1.5778,1.4507,1.3199,1.1848,1.0583,0.9262,0.7988,0.7988,0.7988,0.7988,0.7988,0.7988,0.7988,0.7988,0.7988,0.7988,0.7988,0.7958,0.788,0.7685,0.7567,0.7478,0.7179,0.7095,0.7095,0.7095,0.7095,0.7095,0.7095,0.7095,0.7095,0.7095,0.7095,0.7109,0.7207,0.7217,0.7231,0.7237,0.7169,0.7316,0.8149,0.8627,0.889,0.889,0.9235,0.9056,0.7881,0.7709,0.7577,0.7139,0.7095,0.7095,0.7095,0.7095,0.7095,0.7095,0.7095,0.7095,0.7095,0.7095,0.7621,0.8846,0.9279,0.9836,1.0611,1.0226,0.927,0.7709,0.7316,0.7095,0.7095,0.7095,0.7095,0.0,0.0,0.0,0.1661,0.1962,0.2314,0.3615,0.4972,0.5879,0.5929,0.5929,0.5475,0.4166,0.2865,0.1511,0.0202,0.0,0.0,0.0,0.1159,0.2514,0.3865,0.6349,0.8541,0.9846,1.117,1.2431,1.3734,1.3878,1.4459,1.5683,1.5784,1.5784,1.5784,1.5784,1.5784,1.5784,1.5784,1.5784,1.5778,1.4507,1.3199,1.1848,1.0583,0.9262,0.7988,0.7988,0.7988,0.7988,0.7988,0.7988,0.7988,0.7988,0.7988,0.7988,0.7988,0.7894,0.7797,0.7655,0.7509,0.736,0.7156,0.7102,0.7102,0.7098,0.7095,0.7095,0.7095,0.7095,0.7098,0.7102,0.7102,0.7142,0.7343,0.7426,0.7463,0.7567,0.736,0.7146,0.719,0.8149,0.8978,0.8978,0.9923,1.0265,0.9104,0.8934,0.854,0.7356,0.7183,0.7183,0.7139,0.7139,0.7139,0.7095,0.7095,0.7095,0.7095,0.7139,0.7709,0.889,1.0053,1.0654,1.0697,1.1766,1.1171,0.8934,0.7753,0.7139,0.7095,0.7095,0.7095,0.1159,0.0,0.0,0.0,0.0,0.0,0.2264,0.2815,0.3367,0.4368,0.3768,0.3016,0.2614,0.146,0.0454,0.005,0.0,0.0,0.0,0.1159,0.2514,0.3865,0.6349,0.8541,0.9846,1.117,1.2042,1.2431,1.3343,1.407,1.4411,1.5289,1.5784,1.5784,1.5784,1.5784,1.5784,1.5784,1.5784,1.5778,1.4507,1.3199,1.1848,1.0583,0.9262,0.7988,0.7988,0.7988,0.7988,0.7988,0.7988,0.7988,0.7988,0.7988,0.7988,0.7988,0.7965,0.7907,0.7804,0.7726,0.7648,0.739,0.7309,0.7285,0.7129,0.7095,0.7095,0.7095,0.7095,0.7122,0.7278,0.7309,0.7346,0.7499,0.7536,0.755,0.759,0.7448,0.7795,0.9437,0.9983,1.0394,1.1209,1.1638,1.1423,1.0308,1.0139,1.0009,0.9657,0.9614,0.9314,0.8496,0.8408,0.8061,0.7183,0.7095,0.7095,0.7095,0.7929,0.893,1.0096,1.1209,1.2248,1.3124,1.2595,1.1595,1.0139,0.8973,0.7973,0.7095,0.7095,0.7095,0.1812,0.1862,0.1712,0.1963,0.0,0.0,0.1109,0.1611,0.2213,0.3015,0.2564,0.2163,0.2715,0.1762,0.0857,0.0857,0.0857,0.0656,0.0101,0.0656,0.1862,0.3765,0.5445,0.7115,0.8973,0.9921,1.0578,1.1077,1.2328,1.3542,1.4609,1.5391,1.5784,1.5784,1.5784,1.5784,1.5784,1.5784,1.5784,1.5784,1.3932,1.2668,1.1853,0.9998,0.8726,0.7988,0.7988,0.7988,0.7988,0.7988,0.7988,0.7988,0.7988,0.7988,0.7988,0.7988,0.7948,0.7884,0.7841,0.7729,0.76,0.7473,0.7326,0.7258,0.7122,0.7095,0.7095,0.7095,0.7095,0.7132,0.7329,0.7322,0.7329,0.755,0.76,0.7614,0.7675,0.7937,0.8577,0.9845,1.0367,1.095,1.2114,1.2723,1.2638,1.1472,1.1295,1.1123,1.0654,1.0611,1.0351,0.9666,0.9192,0.8627,0.7929,0.7404,0.7095,0.7095,0.8233,0.9405,1.0567,1.1681,1.2851,1.4088,1.3421,1.2248,1.0611,0.9449,0.8277,0.7095,0.7095,0.7095,0.2163,0.3115,0.3765,0.2715,0.2213,0.0,0.0504,0.1008,0.1762,0.1762,0.1762,0.2163,0.3316,0.2564,0.1762,0.1762,0.1762,0.136,0.0151,0.0,0.1009,0.3726,0.414,0.5235,0.7795,0.8201,0.8715,0.9747,1.1135,1.306,1.5683,1.5784,1.5784,1.5784,1.5784,1.5784,1.5784,1.5784,1.5784,1.5784,1.3162,1.1896,1.1799,0.9213,0.7988,0.7988,0.7988,0.7988,0.7988,0.7988,0.7988,0.7988,0.7988,0.7988,0.7988,0.7988,0.7904,0.7834,0.7834,0.7665,0.7441,0.7453,0.7302,0.7139,0.7105,0.7109,0.7125,0.7142,0.7146,0.7179,0.736,0.7295,0.722,0.7553,0.7624,0.7706,0.7928,0.8693,0.941,0.9492,1.0206,1.1176,1.2326,1.3423,1.377,1.2681,1.2528,1.2186,1.1133,1.0999,1.0956,1.0783,0.9879,0.9235,0.9104,0.8101,0.7489,0.7489,0.8623,0.9753,1.074,1.1901,1.2984,1.4088,1.3955,1.282,1.0611,0.9449,0.8277,0.7095,0.7095,0.7095,0.3316,0.3815,0.4216,0.5024,0.3618,0.0,0.1661,0.0958,0.0404,0.0404,0.0404,0.0454,0.0756,0.0555,0.0404,0.0404,0.0404,0.0303,0.0051,0.0,0.1014,0.3845,0.4173,0.5285,0.8124,0.8319,0.8408,0.8631,1.0677,1.306,1.5683,1.5784,1.5784,1.5784,1.5784,1.5784,1.5784,1.5784,1.5784,1.5784,1.3162,1.1896,1.1799,0.9213,0.7988,0.7988,0.7988,0.7988,0.7988,0.7988,0.7988,0.7988,0.7988,0.7988,0.7988,0.7988,0.7971,0.7944,0.7944,0.7907,0.7872,0.7631,0.7536,0.7465,0.7173,0.7227,0.7353,0.7475,0.7509,0.7516,0.7546,0.7533,0.7553,0.7729,0.777,0.8014,0.8952,0.9451,1.0213,1.1887,1.2075,1.2441,1.3808,1.4256,1.4263,1.3812,1.3926,1.3905,1.3459,1.3434,1.3039,1.2072,1.1772,1.1252,1.0351,1.0048,0.9918,0.9918,1.0994,1.1729,1.1938,1.3118,1.3864,1.4088,1.316,1.1986,1.0611,0.9449,0.8277,0.7095,0.7095,0.7095,0.462,0.5472,0.5974,0.5977,0.4974,0.0,0.0,0.1962,0.1008,0.1008,0.0454,0.0202,0.0857,0.1008,0.1008,0.1008,0.1008,0.0756,0.0101,0.0555,0.1774,0.3967,0.489,0.6192,0.8315,0.8418,0.8871,1.0004,1.1231,1.306,1.5683,1.5784,1.5784,1.5784,1.5784,1.5784,1.5784,1.5784,1.5784,1.5784,1.3162,1.1896,1.1799,0.9213,0.7988,0.7988,0.7988,0.7988,0.7988,0.7988,0.7988,0.7988,0.7988,0.7988,0.7988,0.7988,0.7988,0.7988,0.7988,0.7941,0.7899,0.7753,0.7658,0.757,0.7417,0.7424,0.7502,0.758,0.76,0.7614,0.7685,0.7651,0.7634,0.7777,0.7811,0.8145,0.9384,1.0187,1.1223,1.3064,1.3582,1.3887,1.4621,1.4743,1.4689,1.4593,1.4649,1.4636,1.4342,1.4302,1.4028,1.3264,1.2674,1.2072,1.1515,1.0907,1.0611,1.0611,1.1686,1.2285,1.2285,1.347,1.4088,1.4088,1.3512,1.2339,1.0611,1.0009,0.8838,0.7095,0.7095,0.7095,0.5727,0.6983,0.7739,0.6631,0.6179,0.5727,0.0,0.0,0.0,0.2063,0.1159,0.0656,0.146,0.1611,0.1611,0.1611,0.1611,0.126,0.0151,0.136,0.2834,0.407,0.5541,0.7022,0.8374,0.8459,0.9394,1.1731,1.1896,1.306,1.5683,1.5784,1.5784,1.5784,1.5784,1.5784,1.5784,1.5784,1.5784,1.5784,1.3162,1.1896,1.1799,0.9213,0.7988,0.7988,0.7988,0.7988,0.7988,0.7988,0.7988,0.7988,0.7988,0.7988,0.7988,0.7988,0.7988,0.7988,0.7988,0.7911,0.7848,0.7821,0.7716,0.7651,0.7958,0.7827,0.7648,0.7675,0.7685,0.7702,0.7787,0.7726,0.7668,0.7784,0.8,0.8523,0.9858,1.111,1.2415,1.3915,1.4697,1.5156,1.5102,1.5095,1.5075,1.5015,1.5055,1.4937,1.4643,1.4556,1.4429,1.4195,1.3283,1.2632,1.2632,1.1815,1.1262,1.1262,1.2163,1.2632,1.2632,1.3561,1.4088,1.4088,1.4088,1.2954,1.0611,1.0611,0.9396,0.7095,0.7095,0.7095,0.5979,0.6983,0.7939,0.7789,0.6883,0.5979,0.5827,0.0,0.3416,0.2264,0.0,0.146,0.0404,0.0,0.0,0.0252,0.0252,0.0151,0.0,0.2163,0.3893,0.4173,0.5478,0.6872,0.8364,0.8367,0.9326,1.1722,1.1896,1.306,1.5683,1.5784,1.5784,1.5784,1.5784,1.5784,1.5784,1.5784,1.5784,1.5784,1.3162,1.1896,1.1799,0.9213,0.7988,0.7988,0.7988,0.7988,0.7988,0.7988,0.7988,0.7988,0.7988,0.7988,0.7988,0.7988,0.7988,0.7988,0.7988,0.7978,0.7941,0.7855,0.7716,0.7856,0.9163,0.8737,0.7814,0.7901,0.7941,0.7914,0.7841,0.7797,0.779,0.7807,0.8716,0.9901,1.1081,1.2517,1.3969,1.5013,1.5504,1.5651,1.5391,1.5344,1.5257,1.5048,1.5184,1.5244,1.4995,1.4683,1.4502,1.4476,1.4107,1.3913,1.3913,1.3779,1.3695,1.3695,1.3822,1.3913,1.3913,1.4046,1.4088,1.4088,1.4088,1.2954,1.0611,1.0611,0.9396,0.7095,0.7095,0.7095,0.6933,0.7587,0.7988,0.7988,0.7587,0.7182,0.7182,0.6126,0.5022,0.4422,0.0,0.0,0.0,0.0,0.0,0.0,0.0,0.0252,0.1058,0.2815,0.4045,0.4173,0.6141,0.7404,0.7248,0.7885,0.8646,0.9587,1.1053,1.2721,1.4609,1.5391,1.5784,1.5784,1.5784,1.5784,1.5784,1.5784,1.5784,1.5784,1.3162,1.1896,1.1799,0.9213,0.7988,0.7988,0.7988,0.7988,0.7988,0.7988,0.7988,0.7988,0.7988,0.7988,0.7988,0.7988,0.7988,0.7988,0.7988,0.7988,0.8127,0.8841,0.853,0.8105,0.947,0.8961,0.7907,0.7971,0.7988,0.7975,0.7911,0.7894,0.7894,0.7894,0.8961,1.0263,1.1467,1.2886,1.4232,1.543,1.5698,1.5744,1.5665,1.5651,1.5605,1.5484,1.5571,1.5545,1.5251,1.4957,1.471,1.4536,1.4262,1.4088,1.4088,1.4088,1.4088,1.4088,1.4088,1.4088,1.4088,1.4088,1.4088,1.4088,1.4088,1.2954,1.0611,1.0611,0.9396,0.7095,0.7095,0.7095,0.7739,0.7988,0.7988,0.7988,0.7988,0.7988,0.7988,0.7235,0.6431,0.6079,0.4169,0.0,0.0,0.0,0.0,0.0,0.0,0.0353,0.131,0.2914,0.4187,0.4655,0.6457,0.728,0.6299,0.6763,0.7377,0.7948,0.9768,1.1731,1.3776,1.48,1.5439,1.5778,1.5784,1.5784,1.5784,1.5784,1.5784,1.5784,1.3162,1.1896,1.1799,0.9213,0.7988,0.7988,0.7988,0.7988,0.7988,0.7988,0.7988,0.7988,0.7988,0.7988,0.7988,0.7988,0.7988,0.7988,0.7988,0.7988,0.8233,0.9558,0.9069,0.8237,0.9608,0.9069,0.7988,0.7988,0.7988,0.8088,0.8432,0.8528,0.8627,0.897,0.9801,1.0877,1.2188,1.3199,1.4268,1.554,1.5784,1.5784,1.5784,1.5784,1.5784,1.5784,1.5784,1.5752,1.5538,1.519,1.4928,1.4663,1.4309,1.4088,1.4088,1.4088,1.4088,1.4088,1.4088,1.4088,1.4088,1.4088,1.4088,1.4088,1.3779,1.2601,1.0611,1.0308,0.9096,0.7095,0.7095,0.7095,0.7988,0.7988,0.7988,0.7988,0.7988,0.7988,0.7988,0.7988,0.7587,0.6279,0.492,0.3516,0.2264,0.0907,0.0,0.0,0.0,0.0,0.0,0.2314,0.447,0.5782,0.6034,0.6034,0.6034,0.4874,0.5214,0.7789,0.8086,0.98,1.368,1.3926,1.4513,1.5778,1.5784,1.5784,1.5784,1.5784,1.5784,1.5784,1.3162,1.1896,1.1799,0.9213,0.7988,0.7988,0.7988,0.7988,0.7988,0.7988,0.7988,0.7988,0.7988,0.7988,0.7988,0.7988,0.7988,0.7988,0.7988,0.7988,0.8233,0.9558,0.9069,0.8237,0.9608,0.9069,0.7988,0.7988,0.7988,0.8287,0.9608,0.9948,1.0243,1.1458,1.1799,1.2188,1.3542,1.3878,1.4268,1.554,1.5784,1.5784,1.5784,1.5784,1.5784,1.5784,1.5784,1.5778,1.5764,1.5317,1.5008,1.4995,1.4429,1.4088,1.4088,1.4088,1.4088,1.4088,1.4088,1.4088,1.4088,1.4088,1.4088,1.4088,1.2942,1.1772,1.0611,0.9492,0.8321,0.7095,0.7095,0.7095,0.7988,0.7988,0.7988,0.7988,0.7988,0.7988,0.7988,0.7988,0.7889,0.7434,0.6279,0.492,0.3566,0.2213,0.1008,0.0151,0.0,0.0605,0.0,0.497,0.6828,0.7285,0.6531,0.5627,0.477,0.4268,0.4364,0.5309,0.6994,0.9318,1.2425,1.344,1.4459,1.5778,1.5784,1.5784,1.5784,1.5784,1.5784,1.5784,1.3162,1.1896,1.1799,0.9213,0.7988,0.7988,0.7988,0.7988,0.7988,0.7988,0.7988,0.7988,0.7988,0.8528,0.9217,0.8333,0.7988,0.7988,0.7988,0.7988,0.8233,0.9558,0.9069,0.8237,0.9608,0.9069,0.7988,0.7988,0.7988,0.8088,0.8577,0.8676,0.9019,1.0337,1.1312,1.2285,1.359,1.4561,1.5289,1.573,1.5784,1.5784,1.5784,1.5784,1.5784,1.5784,1.5784,1.5784,1.5784,1.5324,1.5008,1.5008,1.4479,1.4088,1.4088,1.4088,1.4088,1.4088,1.4088,1.4088,1.4088,1.4088,1.4088,1.4088,1.3688,1.2559,1.0611,1.0221,0.9008,0.7095,0.7095,0.7095,0.7988,0.7988,0.7988,0.7988,0.7988,0.7988,0.7988,0.7988,0.7988,0.7988,0.6933,0.5727,0.487,0.3616,0.2264,0.0907,0.1109,0.2213,0.0,0.6176,0.7285,0.7285,0.6126,0.497,0.4066,0.3115,0.2964,0.3915,0.5606,0.8132,1.1697,1.2716,1.3974,1.573,1.5784,1.5784,1.5784,1.5784,1.5784,1.5784,1.3162,1.1896,1.1799,0.9213,0.7988,0.7988,0.7988,0.7988,0.7988,0.7988,0.7988,0.8038,0.8531,0.9217,0.985,0.8482,0.8283,0.8775,0.9217,0.9069,0.892,1.0243,0.9801,0.8871,0.9756,0.941,0.8627,0.8137,0.7988,0.8237,0.9167,0.941,0.9846,1.1648,1.2328,1.2958,1.4268,1.4854,1.5242,1.573,1.5784,1.5784,1.5784,1.5784,1.5784,1.5784,1.5784,1.5792,1.5691,1.5351,1.5037,1.4874,1.4469,1.4202,1.4095,1.4088,1.4088,1.4088,1.4088,1.4135,1.4235,1.4242,1.4289,1.4439,1.4,1.2798,1.0776,1.0338,0.9077,0.7095,0.7095,0.7125]}]]